[[{"header":{"parameterUnit":"m.s-1","parameterCategory":1,"la1":30.6,"la2":29.2853,"lo1":-89.7004,"lo2":-87.6739,"dy":0.0162,"dx":0.0183,"nx":112,"ny":82,"refTime":"2024-07-13T00:00:00:Z","depth":0,"parameterNumber":2,"parameterNumberName":"U-component_of_WINDS"},"data":[0.0,0.0,0.0,0.0,0.0,0.0,0.0,0.0,0.0,0.0,0.0,0.0,0.0,0.0,0.0,0.0,0.0,0.0,0.0,0.0,0.0,0.0,0.0,0.0,0.0,0.0,0.0,0.0,0.0,0.0,0.0,0.0,0.0,0.0,0.0,0.0,0.0,0.0,0.0,0.0,0.0,0.0,0.0,0.0,0.0,0.0,0.0,0.0,0.0,0.0,0.0,0.0,0.0,0.0,0.0,0.0,0.0,0.0,0.0,0.0,0.0,0.0,0.0,0.0,0.0,0.0,0.0,0.0,0.0,0.0,0.0,0.0,0.0,0.0,0.0,0.0,0.0,0.0,0.0,0.0,0.0,0.0,0.0,0.0,0.0,0.0,0.0,0.0,0.0,0.0,0.0,-3.8432,-3.8473,-3.7821,-3.6632,-3.6032,-3.4423,-3.1396,0.0,0.0,0.0,0.0,0.0,0.0,0.0,0.0,0.0,0.0,0.0,0.0,0.0,0.0,0.0,0.0,0.0,0.0,0.0,0.0,0.0,0.0,0.0,0.0,0.0,0.0,0.0,0.0,0.0,0.0,0.0,0.0,0.0,0.0,0.0,0.0,0.0,0.0,0.0,0.0,0.0,0.0,0.0,0.0,0.0,0.0,0.0,0.0,0.0,0.0,0.0,0.0,0.0,0.0,0.0,0.0,0.0,0.0,0.0,0.0,0.0,0.0,0.0,0.0,0.0,0.0,0.0,0.0,0.0,0.0,0.0,0.0,0.0,0.0,0.0,0.0,0.0,0.0,0.0,0.0,0.0,0.0,0.0,0.0,0.0,0.0,0.0,0.0,0.0,0.0,0.0,0.0,0.0,0.0,0.0,0.0,0.0,0.0,0.0,0.0,0.0,0.0,0.0,0.0,-3.5202,-3.8358,-3.8259,-3.7721,-3.7133,-3.6583,-3.4826,-3.1416,0.0,0.0,0.0,0.0,0.0,0.0,0.0,0.0,0.0,0.0,0.0,0.0,0.0,0.0,0.0,0.0,0.0,0.0,0.0,0.0,0.0,0.0,0.0,0.0,0.0,0.0,0.0,0.0,0.0,0.0,0.0,0.0,0.0,0.0,0.0,0.0,0.0,0.0,0.0,0.0,0.0,0.0,0.0,0.0,0.0,0.0,0.0,0.0,0.0,0.0,0.0,0.0,0.0,0.0,0.0,0.0,0.0,0.0,0.0,0.0,0.0,0.0,0.0,0.0,0.0,0.0,0.0,0.0,0.0,0.0,0.0,0.0,0.0,0.0,0.0,0.0,0.0,0.0,0.0,0.0,0.0,0.0,0.0,0.0,0.0,0.0,0.0,0.0,0.0,0.0,0.0,0.0,0.0,0.0,0.0,0.0,0.0,0.0,0.0,0.0,0.0,0.0,0.0,-3.4397,-3.5745,-3.7292,-3.7488,-3.7033,-3.583,-3.5521,-3.4021,-3.0821,-3.0226,0.0,0.0,0.0,0.0,0.0,0.0,0.0,0.0,0.0,0.0,0.0,0.0,0.0,0.0,0.0,0.0,0.0,0.0,0.0,0.0,0.0,0.0,0.0,0.0,0.0,0.0,0.0,0.0,0.0,0.0,0.0,0.0,0.0,0.0,0.0,0.0,0.0,0.0,0.0,0.0,0.0,0.0,0.0,0.0,0.0,0.0,0.0,0.0,0.0,0.0,0.0,0.0,0.0,0.0,0.0,0.0,0.0,0.0,0.0,0.0,0.0,0.0,0.0,0.0,0.0,0.0,0.0,0.0,0.0,0.0,0.0,0.0,0.0,0.0,0.0,0.0,0.0,0.0,0.0,0.0,0.0,0.0,0.0,0.0,0.0,0.0,0.0,0.0,0.0,0.0,0.0,0.0,0.0,0.0,0.0,0.0,0.0,0.0,0.0,0.0,0.0,0.0,-3.5688,-3.6392,-3.6561,-3.6843,-3.6389,-3.4823,-3.4406,-3.3051,-3.0294,-2.9228,0.0,0.0,0.0,0.0,0.0,0.0,0.0,0.0,0.0,0.0,0.0,0.0,0.0,0.0,0.0,0.0,0.0,0.0,0.0,0.0,0.0,0.0,0.0,0.0,0.0,0.0,0.0,0.0,0.0,0.0,0.0,0.0,0.0,0.0,0.0,0.0,0.0,0.0,0.0,0.0,0.0,0.0,0.0,0.0,0.0,0.0,0.0,0.0,0.0,0.0,0.0,0.0,0.0,0.0,0.0,0.0,0.0,0.0,0.0,0.0,0.0,0.0,0.0,0.0,0.0,0.0,0.0,0.0,0.0,0.0,0.0,0.0,0.0,0.0,0.0,0.0,0.0,0.0,0.0,0.0,0.0,0.0,0.0,0.0,0.0,0.0,0.0,0.0,0.0,0.0,0.0,0.0,0.0,0.0,0.0,0.0,0.0,0.0,0.0,0.0,0.0,0.0,-3.4878,-3.6581,-3.7097,-3.6724,-3.6125,-3.5322,-3.4161,-3.2527,-3.0243,-2.8703,0.0,0.0,0.0,0.0,0.0,0.0,0.0,0.0,0.0,0.0,0.0,0.0,0.0,0.0,0.0,0.0,0.0,0.0,0.0,0.0,0.0,0.0,0.0,0.0,0.0,0.0,0.0,0.0,0.0,0.0,0.0,0.0,0.0,0.0,0.0,0.0,0.0,0.0,0.0,0.0,0.0,0.0,0.0,0.0,0.0,0.0,0.0,0.0,0.0,0.0,0.0,0.0,0.0,0.0,0.0,0.0,0.0,0.0,0.0,0.0,0.0,0.0,0.0,0.0,0.0,0.0,0.0,0.0,0.0,0.0,0.0,0.0,0.0,0.0,0.0,0.0,0.0,0.0,0.0,0.0,0.0,0.0,0.0,0.0,0.0,0.0,0.0,0.0,0.0,0.0,0.0,0.0,0.0,0.0,0.0,0.0,0.0,0.0,0.0,0.0,0.0,0.0,-3.2879,-3.4187,0.0,-3.4953,-3.4602,-3.3522,-3.2992,-3.1765,-2.9533,0.0,0.0,0.0,0.0,0.0,0.0,0.0,0.0,0.0,0.0,0.0,0.0,0.0,0.0,0.0,0.0,0.0,0.0,0.0,0.0,0.0,0.0,0.0,0.0,0.0,0.0,0.0,0.0,0.0,0.0,0.0,0.0,0.0,0.0,0.0,0.0,0.0,0.0,0.0,0.0,0.0,0.0,0.0,0.0,0.0,0.0,0.0,0.0,0.0,0.0,0.0,0.0,0.0,0.0,0.0,0.0,0.0,0.0,0.0,0.0,0.0,0.0,0.0,0.0,0.0,0.0,0.0,0.0,0.0,0.0,0.0,0.0,0.0,0.0,0.0,0.0,0.0,0.0,0.0,0.0,0.0,0.0,0.0,0.0,0.0,0.0,0.0,0.0,0.0,0.0,0.0,0.0,0.0,0.0,0.0,0.0,0.0,0.0,0.0,0.0,0.0,0.0,-3.0124,-3.1808,-3.2931,0.0,-3.3724,-3.3497,-3.2401,-3.187,-3.0753,-2.8738,0.0,0.0,0.0,0.0,0.0,0.0,0.0,0.0,0.0,0.0,0.0,0.0,0.0,0.0,0.0,0.0,0.0,0.0,0.0,0.0,0.0,0.0,0.0,0.0,0.0,0.0,0.0,0.0,0.0,0.0,0.0,0.0,0.0,0.0,0.0,0.0,0.0,0.0,0.0,0.0,0.0,0.0,0.0,0.0,0.0,0.0,0.0,0.0,0.0,0.0,0.0,0.0,0.0,0.0,0.0,0.0,0.0,0.0,0.0,0.0,0.0,0.0,0.0,0.0,0.0,0.0,0.0,0.0,0.0,0.0,0.0,0.0,0.0,0.0,0.0,0.0,0.0,0.0,0.0,0.0,0.0,0.0,0.0,0.0,0.0,0.0,0.0,0.0,0.0,0.0,0.0,0.0,0.0,0.0,0.0,0.0,0.0,0.0,0.0,0.0,0.0,0.0,-2.9888,-3.2019,-3.3389,-3.3389,-3.3389,-3.3085,-3.2344,-3.0937,-2.943,0.0,0.0,0.0,0.0,0.0,0.0,0.0,0.0,0.0,0.0,0.0,0.0,0.0,0.0,0.0,0.0,0.0,0.0,0.0,0.0,0.0,0.0,0.0,0.0,0.0,0.0,0.0,0.0,0.0,0.0,0.0,0.0,0.0,0.0,0.0,0.0,0.0,0.0,0.0,0.0,0.0,0.0,0.0,0.0,0.0,0.0,0.0,0.0,0.0,0.0,0.0,0.0,0.0,0.0,0.0,0.0,0.0,0.0,0.0,0.0,0.0,0.0,0.0,0.0,0.0,0.0,0.0,0.0,0.0,0.0,0.0,0.0,0.0,0.0,0.0,0.0,0.0,0.0,0.0,0.0,0.0,0.0,0.0,0.0,0.0,0.0,0.0,0.0,0.0,0.0,0.0,0.0,0.0,0.0,0.0,0.0,0.0,0.0,0.0,0.0,0.0,0.0,0.0,-2.8348,-3.0463,-3.185,-3.185,-3.185,-3.1765,-3.1529,-3.0649,-2.943,-2.7908,0.0,0.0,0.0,0.0,0.0,0.0,0.0,0.0,0.0,0.0,0.0,0.0,0.0,0.0,0.0,0.0,0.0,0.0,0.0,0.0,0.0,0.0,0.0,0.0,0.0,0.0,0.0,0.0,0.0,0.0,0.0,0.0,0.0,0.0,0.0,0.0,0.0,0.0,0.0,0.0,0.0,0.0,0.0,0.0,0.0,0.0,0.0,0.0,0.0,0.0,0.0,0.0,0.0,0.0,0.0,0.0,0.0,0.0,0.0,0.0,0.0,0.0,0.0,0.0,0.0,0.0,0.0,0.0,0.0,0.0,0.0,0.0,0.0,0.0,0.0,0.0,0.0,0.0,0.0,0.0,0.0,0.0,0.0,0.0,0.0,0.0,0.0,0.0,0.0,0.0,0.0,0.0,0.0,0.0,0.0,0.0,0.0,0.0,0.0,0.0,0.0,0.0,-2.7672,-2.9279,-3.055,-3.114,-3.0937,-3.0886,-3.1173,-3.0243,-2.9127,-2.7874,0.0,0.0,0.0,0.0,0.0,0.0,0.0,0.0,0.0,0.0,0.0,0.0,0.0,0.0,0.0,0.0,0.0,0.0,0.0,0.0,0.0,0.0,0.0,0.0,0.0,0.0,0.0,0.0,0.0,0.0,0.0,0.0,0.0,0.0,0.0,0.0,0.0,0.0,0.0,0.0,0.0,0.0,0.0,0.0,0.0,0.0,0.0,0.0,0.0,0.0,0.0,0.0,0.0,0.0,0.0,0.0,0.0,0.0,0.0,0.0,0.0,0.0,0.0,0.0,0.0,0.0,0.0,0.0,0.0,0.0,0.0,0.0,0.0,0.0,0.0,0.0,0.0,0.0,0.0,0.0,0.0,0.0,0.0,0.0,0.0,0.0,0.0,0.0,0.0,0.0,0.0,0.0,0.0,0.0,0.0,0.0,0.0,0.0,0.0,0.0,0.0,0.0,-2.7519,-2.845,-2.9517,-3.0835,-3.0395,-3.0277,-3.0937,-2.9704,-2.8552,-2.7756,0.0,0.0,0.0,0.0,0.0,0.0,0.0,0.0,0.0,0.0,0.0,0.0,0.0,0.0,0.0,0.0,0.0,0.0,0.0,0.0,0.0,0.0,0.0,0.0,0.0,0.0,0.0,0.0,0.0,0.0,0.0,0.0,0.0,0.0,0.0,0.0,0.0,0.0,0.0,0.0,0.0,0.0,0.0,0.0,0.0,0.0,0.0,0.0,0.0,0.0,0.0,0.0,0.0,0.0,0.0,0.0,0.0,0.0,0.0,0.0,-2.9831,0.0,0.0,0.0,0.0,0.0,0.0,0.0,0.0,0.0,0.0,0.0,0.0,0.0,0.0,0.0,0.0,0.0,0.0,0.0,0.0,0.0,0.0,0.0,0.0,0.0,0.0,0.0,0.0,0.0,0.0,0.0,0.0,0.0,0.0,0.0,0.0,0.0,0.0,0.0,0.0,0.0,-2.6826,-2.8147,-2.9128,-2.945,-2.9331,-2.9297,-2.9467,-2.8602,-2.774,-2.6979,0.0,0.0,0.0,0.0,0.0,0.0,0.0,0.0,0.0,0.0,0.0,0.0,0.0,0.0,0.0,0.0,0.0,0.0,0.0,0.0,0.0,0.0,0.0,0.0,0.0,0.0,0.0,0.0,0.0,0.0,0.0,0.0,0.0,0.0,0.0,0.0,0.0,0.0,0.0,0.0,0.0,0.0,0.0,0.0,0.0,0.0,0.0,0.0,0.0,0.0,0.0,0.0,0.0,0.0,0.0,0.0,0.0,0.0,0.0,0.0,0.0,-3.0159,0.0,0.0,0.0,0.0,0.0,0.0,0.0,0.0,0.0,0.0,0.0,0.0,0.0,0.0,0.0,0.0,0.0,0.0,0.0,0.0,0.0,0.0,0.0,0.0,0.0,0.0,0.0,0.0,0.0,0.0,0.0,0.0,0.0,0.0,0.0,0.0,0.0,0.0,0.0,0.0,-2.6556,-2.7385,-2.818,-2.8925,-2.8653,-2.8569,-2.8976,-2.8264,-2.755,-2.6935,-2.5714,0.0,0.0,0.0,0.0,0.0,0.0,0.0,0.0,0.0,0.0,0.0,0.0,0.0,0.0,0.0,0.0,0.0,0.0,0.0,0.0,0.0,0.0,0.0,0.0,0.0,0.0,0.0,0.0,0.0,0.0,0.0,0.0,0.0,0.0,0.0,0.0,0.0,0.0,0.0,0.0,0.0,0.0,0.0,0.0,0.0,0.0,0.0,0.0,0.0,0.0,0.0,0.0,0.0,0.0,-3.3587,-3.2821,-3.3495,-3.3355,-3.2516,-3.1181,-3.0698,-3.0698,0.0,0.0,0.0,0.0,0.0,0.0,0.0,0.0,0.0,0.0,0.0,0.0,0.0,0.0,0.0,0.0,0.0,0.0,0.0,0.0,0.0,0.0,0.0,0.0,0.0,-2.9837,-2.9786,0.0,0.0,0.0,0.0,0.0,0.0,0.0,0.0,0.0,0.0,0.0,0.0,-2.6522,-2.6691,-2.7182,-2.8468,-2.801,-2.7892,-2.8553,-2.7923,-2.7322,-2.6939,-2.5929,-2.4863,0.0,0.0,0.0,0.0,0.0,0.0,0.0,0.0,0.0,0.0,0.0,0.0,0.0,0.0,0.0,0.0,0.0,0.0,0.0,0.0,0.0,0.0,0.0,0.0,0.0,0.0,0.0,0.0,0.0,0.0,0.0,0.0,-2.7326,-2.6803,0.0,0.0,0.0,0.0,0.0,0.0,0.0,0.0,0.0,0.0,0.0,0.0,0.0,0.0,-3.2417,-3.383,-3.4234,-3.3642,-3.4454,-3.4417,-3.3642,-3.3752,-3.3317,-3.2505,-3.2284,0.0,-3.1267,-3.0593,0.0,0.0,0.0,0.0,0.0,0.0,0.0,0.0,0.0,0.0,0.0,0.0,0.0,0.0,0.0,0.0,0.0,0.0,0.0,0.0,0.0,0.0,-3.0903,-3.0903,-3.097,-3.097,0.0,-2.9602,-2.8468,-2.7655,0.0,0.0,0.0,0.0,0.0,0.0,0.0,0.0,-2.659,-2.6691,-2.6793,-2.6979,-2.6911,-2.6877,-2.6979,-2.6532,-2.6199,-2.6162,-2.4995,-2.4221,-2.4051,-2.3798,0.0,0.0,0.0,0.0,0.0,0.0,0.0,0.0,0.0,0.0,0.0,0.0,0.0,0.0,0.0,0.0,0.0,0.0,0.0,0.0,0.0,0.0,0.0,0.0,0.0,0.0,0.0,0.0,0.0,-2.7505,-2.842,-2.802,-2.8871,-2.8977,0.0,0.0,0.0,0.0,0.0,0.0,0.0,0.0,0.0,-3.2839,-3.3243,-3.3844,-3.4669,-3.5385,-3.5298,-3.4472,-3.533,-3.5055,-3.3807,-3.4039,-3.3674,-3.2856,-3.2332,-3.1917,-3.1567,-3.0711,-3.0076,-2.9533,0.0,0.0,0.0,0.0,0.0,-2.8586,-2.9347,0.0,0.0,0.0,0.0,0.0,0.0,0.0,0.0,0.0,0.0,0.0,0.0,0.0,0.0,-3.119,-3.119,-3.119,-3.119,-3.0683,-3.0006,0.0,-2.8839,-2.8095,-2.6488,0.0,0.0,0.0,0.0,0.0,-2.6607,-2.6691,-2.6691,-2.6691,-2.6691,-2.6691,-2.6691,-2.6262,-2.587,-2.5577,-2.5043,-2.4408,-2.3685,-2.382,-2.3255,0.0,0.0,0.0,0.0,0.0,0.0,0.0,0.0,0.0,0.0,0.0,0.0,0.0,0.0,0.0,0.0,0.0,0.0,0.0,0.0,0.0,0.0,0.0,0.0,0.0,0.0,0.0,0.0,-2.8429,-2.9601,-2.9162,-3.0399,-3.0631,0.0,0.0,0.0,0.0,0.0,0.0,-3.2265,-3.2889,-3.3867,-3.5298,-3.5536,-3.5954,-3.6597,-3.6798,-3.6376,-3.5334,-3.6193,-3.5624,-3.3812,-3.4317,-3.3987,-3.2983,-3.2281,-3.1861,-3.1588,-3.0734,-3.0378,-3.0311,-2.9567,-2.9281,-2.9281,-2.9281,-2.9281,-2.9399,-3.0125,-3.026,-2.9937,-2.8973,0.0,-2.7756,-2.5913,0.0,0.0,0.0,0.0,-2.9213,-3.0142,0.0,-3.097,-3.1157,-3.0903,-3.0734,-3.1106,-3.1055,-3.0768,0.0,-2.9956,-2.9211,-2.7317,0.0,0.0,0.0,0.0,-2.6082,-2.6623,-2.6691,-2.6691,-2.6691,-2.659,-2.6505,-2.6505,-2.5944,-2.5411,-2.5028,-2.4871,-2.4358,-2.3432,-2.3881,-2.3626,-2.2436,0.0,0.0,0.0,0.0,0.0,0.0,0.0,0.0,0.0,0.0,0.0,0.0,0.0,0.0,0.0,0.0,0.0,0.0,0.0,0.0,0.0,0.0,0.0,0.0,0.0,0.0,0.0,0.0,0.0,-3.0068,-3.2831,0.0,0.0,0.0,0.0,-3.1238,-3.2008,-3.3151,-3.4747,-3.4857,-3.5298,-3.6211,-3.6978,-3.7401,-3.7437,-3.8193,-3.779,-3.6229,-3.7052,-3.617,-3.3825,-3.4623,-3.4093,-3.2534,-3.2484,-3.2003,-3.123,-3.1176,-3.114,-3.1072,-3.0328,-3.004,-3.004,-3.004,-3.004,-3.0159,-3.0886,-3.0683,-3.019,-3.0818,-3.0093,-2.879,-2.7891,-2.7182,0.0,0.0,-2.8942,-2.9331,-3.0768,-3.0649,-3.0345,-3.1021,-3.0144,-2.9501,-3.0886,-3.0649,-3.0142,0.0,-2.9533,-2.879,-2.7891,0.0,-2.6691,-2.664,-2.664,-2.6657,-2.6691,-2.6691,-2.6691,-2.6691,-2.6297,-2.6049,-2.6049,-2.507,-2.4471,-2.445,-2.3948,-2.3644,-2.3593,-2.4112,-2.3846,-2.2699,-2.3084,0.0,0.0,0.0,0.0,0.0,0.0,0.0,0.0,0.0,0.0,0.0,0.0,0.0,0.0,0.0,0.0,0.0,0.0,0.0,0.0,0.0,0.0,0.0,0.0,0.0,0.0,0.0,0.0,-3.2683,-3.4433,0.0,-3.2616,-3.328,-3.36,-3.2994,-3.4211,-3.5459,-3.6541,-3.6597,-3.6982,-3.7826,-3.812,-3.8267,-3.8267,-3.856,-3.8157,-3.707,-3.685,-3.5973,-3.4564,-3.4051,-3.3345,-3.2484,-3.2179,-3.1732,-3.119,-3.119,-3.119,-3.1173,-3.0903,-3.0818,-3.0818,-3.0818,-3.0818,-3.0852,-3.1106,-3.1021,-3.0768,-3.0565,-2.982,-2.8942,-2.8653,-2.84,-2.84,-2.9414,-2.9382,-2.923,-3.0226,-2.9939,-2.9567,-3.0328,-3.0091,-2.9854,-3.0378,-3.0294,-2.982,-2.8804,-2.9211,-2.9313,-2.8027,-2.757,-2.7249,-2.6776,-2.6691,-2.659,-2.6297,-2.6244,-2.6122,-2.5764,-2.558,-2.5503,-2.5503,-2.4816,-2.4224,-2.3789,-2.3299,-2.3032,-2.3032,-2.319,-2.3302,-2.3287,-2.3054,-2.2405,0.0,0.0,0.0,0.0,0.0,0.0,0.0,0.0,0.0,0.0,0.0,0.0,0.0,0.0,0.0,0.0,0.0,0.0,0.0,0.0,0.0,0.0,0.0,0.0,0.0,0.0,-3.343,-3.3725,-3.5025,-3.5243,-3.3553,-3.4117,-3.4491,-3.4215,-3.5514,-3.6652,-3.7456,-3.7768,-3.8138,-3.8689,-3.8707,-3.8707,-3.8707,-3.8707,-3.8303,-3.7492,-3.7221,-3.6376,-3.499,-3.4301,-3.347,-3.2467,-3.2004,-3.1565,-3.119,-3.119,-3.119,-3.119,-3.119,-3.119,-3.119,-3.119,-3.119,-3.119,-3.119,-3.119,-3.1123,-3.0632,-3.0142,-2.9704,-2.9467,-2.9364,-2.9414,-2.9651,-2.9382,-2.9111,-2.96,-2.9161,-2.8789,-2.955,-2.933,-2.911,-2.9617,-2.9533,-2.9024,-2.801,-2.8635,-2.8922,-2.7638,-2.7418,-2.7215,-2.6571,-2.6453,-2.6297,-2.5781,-2.5726,-2.5596,-2.524,-2.5047,-2.4914,-2.4914,-2.443,-2.3938,-2.3493,-2.3196,-2.3002,-2.3002,-2.2808,-2.2897,-2.3302,-2.2688,-2.2269,-2.2044,0.0,0.0,0.0,0.0,0.0,0.0,0.0,0.0,0.0,0.0,0.0,0.0,0.0,0.0,0.0,0.0,0.0,0.0,0.0,0.0,0.0,0.0,0.0,-3.0481,-3.2641,-3.3936,-3.3122,-3.474,-3.5299,-3.3655,-3.3739,-3.4206,-3.4963,-3.5807,-3.6652,-3.7456,-3.823,-3.867,-3.8707,-3.8707,-3.8707,-3.8707,-3.8707,-3.8303,-3.7547,-3.8285,-3.7353,-3.5031,-3.5372,-3.4403,-3.2451,-3.2004,-3.1565,-3.119,-3.119,-3.119,-3.119,-3.119,-3.119,-3.119,-3.119,-3.119,-3.119,-3.119,-3.119,-3.119,-3.119,-3.119,-3.1072,-3.0362,-3.0123,-2.9989,-2.9247,-2.9027,-2.8993,-2.8976,-2.8366,-2.7959,-2.8755,-2.7825,-2.7131,-2.8637,-2.8349,-2.779,-2.7773,-2.7773,-2.7536,-2.6826,-2.6691,-2.6505,-2.6067,-2.5995,0.0,-2.524,-2.5182,-2.5182,-2.5163,-2.4692,-2.4369,-2.4369,-2.39,-2.3595,-2.3565,-2.3565,-2.3565,-2.3565,-2.3017,-2.2703,-2.2718,-2.2054,-2.2059,-2.2703,0.0,0.0,0.0,0.0,0.0,0.0,0.0,0.0,0.0,0.0,0.0,0.0,0.0,0.0,0.0,0.0,0.0,0.0,0.0,0.0,0.0,0.0,-3.2218,-3.2218,-3.391,-3.5269,-3.5615,-3.6498,-3.6644,-3.5598,-3.5747,-3.5762,-3.5391,-3.5943,-3.6652,-3.7456,-3.7713,-3.8102,-3.8689,-3.8707,-3.8707,-3.8707,-3.8707,-3.8597,-3.8358,-3.7404,-3.6427,-3.5408,-3.4343,-3.3187,-3.2004,-3.1861,-3.1565,-3.119,-3.119,-3.119,-3.119,-3.119,-3.119,-3.119,-3.119,-3.119,-3.119,-3.119,-3.119,-3.119,-3.119,-3.119,-3.1157,-3.0954,-3.0903,-3.0734,-3.0006,-2.9397,-2.8874,-2.8281,-2.7571,-2.7199,-2.7942,-2.7807,-2.7604,-2.8027,-2.7959,-2.7638,-2.7114,-2.6996,-2.6945,-2.6725,-2.6419,-2.6156,-2.6031,0.0,0.0,-2.4692,-2.4632,-2.4471,-2.4074,-2.3921,-2.3815,-2.3815,-2.3666,-2.34,0.0,-2.2957,-2.2957,-2.2957,-2.2793,-2.2912,-2.3325,-2.2748,-2.2523,0.0,0.0,0.0,0.0,0.0,0.0,0.0,0.0,0.0,0.0,0.0,0.0,0.0,0.0,0.0,0.0,0.0,0.0,0.0,0.0,0.0,0.0,-3.2025,-3.3564,-3.3949,-3.4865,-3.5673,-3.6135,-3.6375,-3.6316,-3.5829,-3.57,-3.5473,-3.5001,-3.5462,-3.6119,-3.696,-3.7327,-3.7878,-3.867,-3.8707,-3.8707,-3.8707,-3.8377,-3.8193,-3.8175,-3.6909,-3.5967,-3.5306,-3.4009,-3.2934,0.0,-3.1714,-3.1411,-3.119,-3.119,-3.119,0.0,0.0,0.0,0.0,0.0,-3.1004,-3.0734,-3.0734,-3.0734,-3.0734,-3.0734,-3.0954,-3.119,-3.119,-3.119,-3.1055,-3.0311,-2.9567,-2.8824,-2.801,-2.7249,-2.681,-2.7249,-2.7334,-2.7299,-2.709,-2.7054,-2.685,-2.6206,0.0,0.0,-2.607,-2.6033,-2.5852,-2.5392,-2.5067,-2.4672,0.0,-2.4053,-2.3948,-2.3638,-2.3595,-2.3595,-2.3595,-2.3595,0.0,0.0,0.0,-2.2957,-2.2703,-2.2703,0.0,0.0,0.0,0.0,0.0,0.0,0.0,0.0,-2.4814,-2.5262,0.0,0.0,0.0,0.0,0.0,0.0,0.0,0.0,0.0,0.0,0.0,0.0,0.0,0.0,0.0,0.0,-3.3256,-3.4622,-3.5385,-3.5423,-3.5385,-3.5481,-3.5289,-3.5157,-3.5157,-3.4615,-3.4265,-3.4265,-3.4626,-3.5279,-3.6248,0.0,0.0,0.0,0.0,-3.867,-3.8579,-3.786,-3.7456,-3.7345,-3.6541,-3.5724,-3.4902,-3.3978,-3.3155,-3.2384,-3.1562,-3.119,-3.119,-3.119,-3.119,-3.119,-3.119,-3.114,-3.1072,-3.1072,-3.0615,0.0,0.0,0.0,0.0,-3.0074,-3.0548,-3.1089,-3.1173,-3.114,-3.092,-3.0192,-2.9431,-2.867,-2.7874,-2.7199,-2.6691,-2.6691,-2.6691,-2.659,-2.6174,-2.5983,-2.5755,-2.5279,-2.5067,-2.4962,-2.4885,-2.5408,-2.5503,-2.4536,-2.4348,0.0,-2.3659,-2.3595,-2.3595,-2.3595,0.0,0.0,-2.3595,-2.3595,-2.3595,-2.3595,-2.3595,-2.3355,-2.2823,-2.2808,-2.2808,-2.2808,-2.2808,-2.3062,-2.3595,-2.4881,-2.5217,-2.4724,-2.4874,-2.5555,0.0,0.0,0.0,0.0,0.0,0.0,0.0,0.0,0.0,0.0,0.0,0.0,0.0,0.0,0.0,-3.2545,-3.4122,-3.5308,-3.5481,-3.4891,-3.4718,-3.5423,-3.5446,-3.5424,-3.5424,-3.4935,-3.4593,-3.4593,-3.4247,-3.4706,-3.6211,-3.645,0.0,-3.8652,-3.8707,-3.8395,-3.7749,-3.7584,-3.718,-3.6505,0.0,0.0,-3.4482,-3.3278,-3.2439,-3.1915,-3.1411,-3.119,-3.119,-3.119,-3.119,-3.119,-3.119,-3.0835,-3.0311,-3.0311,-2.9854,-2.9213,-2.9213,-2.9213,-2.9314,-2.9922,-3.0209,-3.0429,-3.1021,-3.0784,0.0,-2.9433,-2.8636,-2.7858,-2.7114,-2.681,-2.6691,-2.6691,-2.6691,-2.6674,-2.6573,-2.583,-2.5156,-2.5053,-2.4246,-2.3451,-2.3029,-2.3936,-2.4652,-2.443,-2.4032,-2.3724,-2.3616,-2.3595,-2.3595,-2.3595,-2.3595,-2.3595,-2.3595,-2.3595,-2.3595,-2.3595,-2.3595,-2.355,-2.343,-2.343,-2.343,-2.343,-2.343,-2.3475,-2.3595,-2.4395,-2.4993,-2.5427,-2.6512,-2.6881,0.0,0.0,0.0,0.0,0.0,0.0,0.0,0.0,0.0,0.0,0.0,-2.8369,-2.9579,0.0,-3.2564,-3.341,-3.4276,-3.4853,-3.4853,-3.4103,-3.3872,-3.4757,-3.4853,-3.4853,-3.4853,-3.4882,-3.4832,-3.4704,-3.4272,-3.4489,-3.5587,-3.6064,-3.6853,-3.8065,-3.8487,-3.8303,-3.7511,-3.7107,-3.6486,-3.5628,-3.4802,-3.4284,-3.4062,-3.2987,-3.2384,-3.2109,-3.1468,-3.119,-3.119,-3.119,-3.097,-3.0649,-3.0649,-3.0429,-3.0074,-2.9685,-2.9059,-2.8399,-2.8399,-2.8399,-2.8467,-2.8821,-2.9463,-3.0108,-3.0091,-3.0091,-2.9956,-2.9213,-2.8416,-2.7722,-2.7351,-2.679,-2.6349,-2.6349,-2.6141,-2.5775,-2.5181,-2.4588,-2.4031,-2.3457,-2.2867,-2.2353,-2.2103,-2.2609,-2.3051,-2.3051,-2.2823,-2.2652,-2.2652,-2.2652,-2.2772,-2.3122,-2.3152,-2.3152,-2.3152,-2.3152,-2.3287,-2.358,-2.3595,-2.3595,-2.3595,-2.3595,-2.3595,-2.3595,-2.3595,-2.3595,-2.3595,-2.4276,-2.4948,-2.563,-2.6641,-2.7106,0.0,0.0,0.0,0.0,0.0,0.0,0.0,0.0,-2.703,-2.7131,-2.829,-2.9655,-3.0787,-3.2028,-3.3237,-3.4276,-3.4321,-3.4205,-3.4205,-3.3314,-3.2929,-3.3628,-3.3859,-3.4013,-3.4186,-3.4584,-3.4819,-3.4714,-3.439,-3.4433,-3.4963,-3.5679,-3.6413,-3.7235,-3.79,-3.7845,-3.7033,-3.6376,-3.5624,-3.4766,-3.4119,-3.3807,-3.3762,-3.2981,-3.2632,-3.2583,-3.154,-3.1051,-3.097,-3.0818,-3.0412,-2.9871,-2.97,-2.9649,-2.9565,-2.8975,-2.8264,-2.7587,-2.7587,-2.7587,-2.7604,-2.7756,-2.8635,-2.9583,-2.9128,-2.9313,-2.9533,-2.8924,-2.8197,-2.7587,-2.7587,-2.6853,-2.6138,-2.6138,-2.5646,-2.489,-2.3916,-2.3358,-2.2763,-2.1845,-2.1473,-2.1306,-2.1306,-2.1306,-2.1395,-2.1665,-2.1695,-2.1695,-2.1695,-2.1695,-2.1904,-2.2448,-2.2508,-2.2568,-2.2688,-2.2703,-2.2957,-2.3565,-2.3595,-2.3595,-2.3595,-2.3595,-2.3595,-2.3595,-2.3595,-2.3595,-2.3595,-2.4141,-2.4754,-2.5412,-2.6093,-2.6811,-2.5703,-2.5703,-2.5703,-2.5703,-2.5703,-2.5703,0.0,0.0,-2.7206,-2.7908,-2.8717,-3.0001,-3.2304,-3.2814,-3.3449,-3.5096,-3.4718,-3.4205,-3.4205,-3.2833,-3.1872,-3.1968,-3.2602,-3.3353,-3.4129,-3.4048,-3.4163,-3.4658,-3.439,-3.4433,-3.4963,-3.5096,-3.5536,-3.6413,-3.6523,-3.6156,-3.5298,-3.5188,-3.4729,-3.3935,-3.3844,-3.3807,-3.3775,-3.3332,-3.3105,-3.3039,-3.1442,-3.0552,-3.0176,-2.9534,-2.9196,-2.9061,-2.8349,-2.806,-2.8043,-2.7959,-2.7469,-2.6826,-2.6826,-2.6826,-2.6928,-2.7587,-2.7925,-2.8179,-2.8824,-2.8569,-2.8043,-2.7959,-2.7402,-2.6826,-2.6826,-2.6725,-2.6624,-2.6624,-2.5797,-2.4989,-2.4854,-2.3183,-2.1672,-2.1556,-2.0652,-1.9932,-1.9932,-1.9932,-2.0337,-2.1515,-2.1695,-2.1695,-2.1695,-2.1695,-2.1724,-2.1799,-2.1799,-2.2059,-2.2643,-2.2703,-2.2957,-2.3565,-2.3595,-2.3595,-2.3595,-2.3595,-2.3595,-2.3595,-2.3595,-2.3595,-2.3595,-2.3684,-2.4073,-2.4724,-2.5397,-2.6378,-2.5566,-2.5703,0.0,0.0,-2.5703,-2.5703,-2.5703,-2.6367,-2.7246,-2.8082,-2.8879,-3.0027,-3.2054,-3.2699,-3.3363,0.0,-3.4045,-3.343,-3.343,-3.2006,-3.0942,-3.0942,-3.1698,-3.2526,-3.3353,-3.3805,-3.4286,-3.4897,-3.4655,-3.4495,-3.4543,-3.4838,-3.5169,-3.5518,-3.6046,-3.5881,-3.5023,-3.5004,-3.4601,-3.3807,-3.3807,-3.3807,-3.3793,-3.3375,-3.2668,-3.1676,-3.0505,-2.9797,-2.9431,-2.9128,-2.8722,-2.8281,-2.7925,-2.7536,-2.7165,-2.7165,-2.6962,-2.6691,-2.6691,-2.6691,-2.6742,-2.7063,-2.7452,-2.7773,-2.7689,-2.774,-2.7705,-2.7266,-2.6945,-2.6691,-2.6691,-2.6504,-2.6297,-2.6297,-2.5365,-2.4301,-2.3633,-2.2364,-2.119,-2.0571,-2.005,-1.9708,-1.9708,-1.9708,-1.9887,-2.0456,-2.0546,-2.0546,-2.0546,-2.0546,-2.0677,-2.1081,-2.1126,-2.1395,-2.2074,-2.1754,-2.1979,-2.3017,-2.3077,-2.3242,-2.3595,-2.3595,-2.3595,-2.3595,-2.3595,-2.3595,-2.3595,-2.3595,-2.3954,-2.4619,-2.4889,-2.554,-2.5527,0.0,0.0,-2.5703,-2.5703,-2.5703,-2.5703,-2.6367,-2.7187,-2.7812,-2.8585,-2.9656,-3.1328,-3.2013,-3.2681,-3.3771,-3.3175,-3.2594,-3.257,-3.1327,-3.05,-3.0731,-3.1308,-3.2102,-3.316,-3.3603,-3.4201,-3.5045,-3.4461,-3.4115,-3.4193,-3.435,-3.4517,-3.4656,-3.5275,-3.5312,-3.4674,-3.4674,-3.438,-3.3807,-3.3807,-3.3678,-3.3445,-3.2831,-3.1829,-3.0505,-2.9606,-2.9008,-2.8654,-2.8451,-2.801,-2.7503,-2.7503,-2.7182,-2.6691,-2.6691,-2.6691,-2.6691,-2.6691,-2.6691,-2.6691,-2.6691,-2.7063,-2.7384,-2.686,-2.708,-2.7384,-2.6843,-2.6691,-2.6674,-2.6556,-2.6262,-2.5911,-2.5571,-2.4533,-2.3351,-2.2365,-2.1481,-2.0632,-1.9855,-1.9708,-1.9708,-1.9708,-1.9708,-1.9708,-1.9708,-1.9708,-1.9708,-1.9708,-1.9708,-1.9902,-2.0378,-2.0423,-2.0707,-2.1365,-2.0991,-2.1201,-2.2358,-2.2418,-2.2703,-2.3325,-2.334,-2.343,-2.3595,-2.3595,-2.3595,-2.3595,-2.3595,-2.3849,-2.4335,-2.4515,-2.4859,0.0,0.0,-2.5703,-2.5703,-2.5703,-2.5703,-2.5703,-2.6367,-2.7012,-2.7031,-2.7687,-2.8757,-3.0429,-3.0691,-3.1195,-3.2779,-3.2363,-3.1801,-3.1755,-3.0962,-3.0712,-3.1564,-3.1679,-3.2352,0.0,-3.341,-3.3541,-3.498,-3.3525,-3.3042,-3.4149,-3.3483,-3.329,-3.382,-3.3862,-3.3862,-3.3844,-3.3844,-3.3825,-3.3807,-3.3807,-3.3385,-3.2588,-3.1483,-3.0693,-3.0152,-2.9019,-2.8269,-2.7773,-2.7063,-2.6776,-2.6725,-2.6725,-2.6708,-2.6691,-2.6691,-2.6691,-2.6691,-2.6691,-2.6691,-2.6691,-2.6691,-2.6708,-2.6725,-2.6725,-2.6708,-2.6725,-2.6725,-2.6691,-2.6607,-2.6138,-2.6013,-2.5707,-2.4537,-2.3322,-2.2294,-2.1659,-2.0587,-1.9741,-1.9708,-1.9708,-1.9708,-1.9708,-1.9708,-1.9708,-1.9708,-1.9708,-1.9708,-1.9708,-1.9708,-1.9708,-1.9738,-1.9738,-1.9989,-2.0658,-2.0703,-2.0987,-2.168,-2.1724,-2.2044,-2.2703,-2.2718,-2.3002,-2.3595,-2.3595,-2.3595,-2.3595,-2.3595,-2.361,-2.3655,-2.4291,-2.4619,0.0,0.0,-2.5703,-2.5703,-2.5703,-2.5703,-2.5703,-2.5937,-2.6309,-2.6875,-2.7225,-2.775,-2.8901,-2.9968,-3.0843,-3.1385,-3.1662,-3.1797,-3.1772,-3.1474,-3.1371,-3.1679,-3.2679,0.0,0.0,0.0,0.0,-3.5234,-3.4109,-3.3771,-3.4756,-3.4161,-3.3868,-3.4062,-3.3889,-3.3532,-3.3005,-3.3532,-3.3532,-3.2999,-3.2999,-3.2577,-3.177,-3.085,-3.0067,-2.9414,-2.8505,-2.7716,-2.7046,-2.6793,-2.6691,-2.6691,-2.6691,-2.6691,-2.6691,-2.6691,-2.6691,-2.6691,-2.6691,-2.6691,-2.6691,-2.6691,-2.6691,-2.6691,-2.6691,-2.6691,-2.6691,-2.6691,-2.6691,-2.6657,-2.6521,-2.6244,-2.5796,-2.4932,-2.376,-2.2609,-2.1699,-2.0771,-2.0017,-1.9747,-1.9708,-1.9708,-1.9708,-1.9708,-1.9708,-1.9708,-1.9708,-1.9708,-1.9708,-1.9708,-1.9708,-1.9708,-1.9708,-1.9798,-2.0019,-2.0034,-2.0318,-2.0991,-2.1051,-2.1335,-2.1994,-2.2044,-2.2113,-2.2338,-2.2793,-2.3002,-2.3002,-2.34,-2.3595,-2.361,-2.3834,-2.3939,-2.4785,-2.5273,-2.5703,-2.5703,-2.5703,-2.5703,-2.5703,-2.5703,-2.5859,-2.6426,-2.6543,-2.6797,-2.7676,-2.8686,-2.9568,-3.016,-3.0664,-3.1161,-3.1727,-3.1762,-3.195,-3.2513,-3.3551,-3.4321,0.0,0.0,0.0,-3.5385,-3.4242,-3.383,-3.459,-3.3901,-3.3444,-3.335,-3.3087,-3.2687,-3.2173,-3.2687,-3.2687,-3.2173,-3.188,-3.1476,-3.0944,-2.9996,-2.9235,-2.8617,-2.7962,-2.7319,-2.6691,-2.6691,-2.6691,-2.6691,-2.6691,-2.6691,-2.6691,-2.6691,-2.6691,-2.6691,-2.6691,-2.6691,-2.6691,-2.6691,-2.6691,-2.6691,-2.6691,-2.6691,-2.6691,-2.6691,-2.6691,-2.6556,-2.5964,-2.5583,-2.5033,-2.3756,-2.2839,-2.1994,-2.1057,-2.0461,-2.0017,-1.9747,-1.9708,-1.9708,-1.9708,-1.9708,-1.9708,-1.9708,-1.9708,-1.9708,-1.9708,-1.9708,-1.9708,-1.9708,-1.9708,-1.9708,-1.9708,-1.9708,-1.9869,-2.0318,-2.0348,-2.0647,-2.1321,-2.1335,-2.1455,-2.1695,-2.2134,-2.2343,-2.2343,-2.2972,-2.3287,-2.3266,-2.349,-2.3595,-2.5331,-2.5605,-2.5625,-2.5586,-2.5625,-2.5684,-2.5644,-2.5664,-2.5703,-2.5703,-2.5703,-2.5957,-2.6777,0.0,-2.7596,-2.9178,-2.9504,-3.0094,-3.1611,-3.1839,-3.2444,0.0,0.0,0.0,0.0,0.0,0.0,-3.5442,0.0,-3.3241,-3.3851,-3.287,-3.2164,-3.1882,-3.1579,-3.1391,-3.1342,-3.1342,-3.1342,-3.1342,-3.0558,-3.0173,-3.0106,-2.8947,-2.825,-2.7911,-2.75,-2.7099,-2.6725,-2.6708,-2.6691,-2.6691,-2.6691,-2.6691,-2.6691,-2.6691,-2.6691,-2.6691,-2.6691,-2.6691,-2.6691,-2.6691,-2.6691,-2.6691,-2.6691,-2.6691,-2.6691,-2.6691,-2.6674,-2.6302,-2.4666,-2.42,-2.3589,-2.1292,-2.0707,-2.0528,-1.9824,-1.9708,-1.9708,-1.9708,-1.9708,-1.9708,-1.9708,-1.9708,-1.9708,-1.9708,-1.9708,-1.9708,-1.9708,-1.9708,-1.9708,-1.9708,-1.9708,-1.9708,-1.9708,-1.9708,-1.9708,-1.9708,-1.9708,-1.9989,-2.0613,-2.0643,-2.0961,-2.1575,-2.162,-2.165,-2.165,-2.2328,-2.2658,-2.2703,-2.3302,-2.3565,-2.3696,-2.4235,-2.457,-2.3926,-2.4746,-2.5527,-2.4883,-2.5234,-2.5703,-2.5703,-2.5703,-2.5762,-2.5996,0.0,0.0,-2.8534,-2.9616,0.0,-3.1794,-3.238,0.0,-3.4151,0.0,-3.525,-3.5481,-3.5308,0.0,0.0,-3.4487,-3.4217,-3.5014,-3.4001,-3.3267,-3.3003,-3.2157,-3.13,-3.0503,-3.0503,-3.0503,-3.0503,-3.0301,-2.9886,-2.9299,-2.8997,-2.8633,-2.8264,-2.7894,-2.7515,-2.7131,-2.6824,-2.6691,-2.6691,-2.6691,-2.6691,-2.6691,-2.6691,-2.6691,-2.6691,-2.6691,-2.6691,-2.6691,-2.6691,-2.6691,-2.6691,-2.6691,-2.6691,-2.6691,-2.6691,-2.6436,-2.5973,-2.5036,-2.42,-2.3198,-2.167,-2.0992,-2.0528,-1.9824,-1.9708,-1.9708,-1.9708,-1.9708,-1.9708,-1.9708,-1.9708,-1.9708,-1.9708,-1.9708,-1.9708,-1.9708,-1.9708,-1.9708,-1.9708,-1.9708,-1.9708,-1.9708,-1.9708,-1.9708,-1.9708,-1.9708,-1.9783,-1.9962,-1.9944,-2.0052,-2.0217,-2.0707,-2.0942,-2.0957,-2.162,-2.2224,-2.2703,-2.2868,-2.3182,-2.2979,-2.3466,-2.3708,-2.3222,-2.4121,-2.5,-2.4512,-2.5078,-2.5703,-2.5703,-2.5703,0.0,-2.5703,-2.6816,0.0,0.0,0.0,0.0,-3.2392,-3.3229,-3.3992,0.0,-3.5264,0.0,-3.5507,-3.5154,-3.493,0.0,-3.4834,-3.4661,-3.4365,-3.3658,-3.2844,-3.1939,-3.1145,-3.0398,-2.9677,-2.9666,-2.9666,-2.9666,-2.9666,-2.9445,-2.9005,-2.9005,-2.87,-2.817,0.0,-2.756,-2.7019,-2.6791,-2.6691,-2.6691,-2.6691,-2.6691,-2.6691,-2.6691,-2.6691,-2.6691,-2.6691,-2.6691,-2.6691,-2.6691,-2.6691,-2.6691,-2.6691,-2.6691,-2.6691,-2.6691,-2.6286,-2.5612,-2.4729,-2.3685,-2.2517,-2.1272,-2.0612,-2.0154,-1.9783,-1.9708,-1.9708,-1.9708,-1.9708,-1.9708,-1.9708,-1.9708,-1.9708,-1.9708,-1.9708,-1.9708,-1.9708,-1.9708,-1.9708,-1.9708,-1.9708,-1.9708,-1.9708,-1.9708,-1.9708,-1.9708,-1.9708,-1.9708,-1.9708,-1.9708,-1.9708,-1.9708,-2.0064,-2.0258,-2.0258,-2.0932,-2.1455,-2.1814,-2.2134,-2.2428,-2.2668,-2.2903,-2.2913,-2.2928,-2.3671,-2.4394,-2.4394,-2.5078,-2.5703,-2.5703,0.0,-2.5703,-2.5703,-2.6406,-2.7324,-2.8301,0.0,-3.1502,-3.3237,-3.4126,-3.4867,-3.5566,-3.5514,-3.5403,-3.5361,-3.4539,-3.4032,-3.4032,-3.4737,-3.45,-3.2987,-3.2623,-3.1703,-3.0007,-2.9561,-2.9254,-2.9005,-2.9005,-2.9005,-2.9005,-2.9005,-2.895,-2.884,-2.884,-2.8488,-2.7877,0.0,0.0,-2.6841,-2.6741,-2.6691,-2.6691,-2.6691,-2.6691,-2.6691,-2.6691,-2.6691,-2.6691,-2.659,-2.6539,-2.6573,-2.6657,-2.6691,-2.6674,-2.6573,-2.6539,-2.6522,-2.6437,-2.5898,-2.5093,-2.4017,-2.2916,-2.1789,-2.0588,-2.0035,-1.9764,-1.9711,-1.9708,-1.9708,-1.9708,-1.9708,-1.9708,-1.9708,-1.9708,-1.9708,-1.9708,-1.9708,-1.9708,-1.9708,-1.9708,-1.9708,-1.9708,-1.9708,-1.9708,-1.9708,-1.9708,-1.9708,-1.9708,-1.9708,-1.9708,-1.9708,-1.9708,-1.9708,-1.9708,-1.9708,-1.9708,-1.9708,-2.0288,-2.0598,-2.0703,-2.1306,-2.1605,-2.1817,-2.1891,-2.1961,-2.2013,-2.3211,-2.4406,-2.4394,-2.5078,0.0,0.0,-2.5703,-2.5703,-2.5703,-2.6406,-2.7519,-2.9121,0.0,0.0,0.0,0.0,-3.4919,0.0,0.0,0.0,0.0,0.0,0.0,0.0,0.0,0.0,-3.291,-3.225,-3.1214,-2.9792,-2.9314,-2.9051,-2.9005,-2.9005,-2.9005,-2.9005,-2.9005,-2.8638,-2.8007,-2.8007,-2.7933,-2.7789,0.0,0.0,-2.7634,-2.6971,-2.6691,-2.6691,-2.6691,-2.6691,-2.6691,-2.6691,-2.6691,-2.6607,-2.5998,-2.5795,-2.5896,-2.6488,-2.6691,-2.659,-2.5981,-2.5795,-2.5659,-2.5049,-2.4476,-2.3852,-2.3093,-2.2459,-2.172,-2.0571,-2.0246,-2.0106,-1.9764,-1.9708,-1.9708,-1.9708,-1.9708,-1.9708,-1.9708,-1.9708,-1.9708,-1.9708,-1.9708,-1.9708,-1.9708,-1.9708,-1.9708,-1.9708,-1.9708,-1.9708,-1.9708,-1.9708,-1.9708,-1.9708,-1.9708,-1.9708,-1.9708,-1.9708,-1.9708,-1.9708,-1.9708,-1.9708,-1.9708,-1.9828,-2.0154,-2.0703,-2.0823,-2.1171,-2.0917,-2.0939,-2.1102,-2.162,-2.2726,-2.3787,-2.4209,0.0,0.0,0.0,-2.5682,-2.5703,-2.5703,0.0,0.0,0.0,0.0,0.0,0.0,0.0,0.0,0.0,0.0,0.0,0.0,0.0,0.0,0.0,0.0,0.0,-3.2256,-3.1481,-3.0616,-2.9741,-2.9073,-2.8621,-2.8374,-2.7959,-2.7758,-2.7758,-2.7758,-2.7537,-2.7181,-2.7181,-2.7057,-2.684,-2.6487,0.0,-2.6355,-2.5975,-2.5715,-2.5557,-2.5557,-2.5557,-2.5557,-2.5557,-2.5557,-2.5506,-2.5151,-2.5033,-2.5084,-2.5439,-2.5557,-2.5489,-2.5134,-2.5033,-2.4949,-2.4592,-2.4049,-2.3398,-2.286,-2.2102,-2.1275,-2.0494,-2.0141,-1.9929,-1.9729,-1.9708,-1.9708,-1.9708,-1.9708,-1.9708,-1.9708,-1.9708,-1.9708,-1.9708,-1.9708,-1.9708,-1.9708,-1.9708,-1.9708,-1.9708,-1.9708,-1.9708,-1.9708,-1.9708,-1.9708,-1.9708,-1.9708,-1.9708,-1.9708,-1.9708,-1.9708,-1.9708,-1.9708,-1.9708,-1.9708,-1.9708,-1.9872,-2.0183,-2.0183,-2.0348,-2.0305,-2.0302,-2.0575,-2.1675,-2.2472,-2.3237,-2.4256,-2.5056,0.0,0.0,-2.563,-2.566,-2.566,0.0,-2.7108,0.0,0.0,0.0,0.0,0.0,0.0,0.0,0.0,0.0,0.0,0.0,0.0,0.0,0.0,0.0,-3.1385,-3.0547,-2.9881,-2.9525,-2.863,-2.7988,-2.7598,-2.6927,-2.6602,-2.6602,-2.6602,-2.6521,-2.6337,-2.6337,-2.6162,-2.5862,-2.5703,0.0,0.0,-2.4948,-2.4746,-2.4491,-2.4491,-2.4491,-2.4491,-2.4491,-2.4491,-2.4474,-2.4321,-2.4254,-2.4237,-2.4085,-2.4237,-2.4457,-2.4305,-2.4254,-2.422,-2.4068,-2.3613,-2.3066,-2.2716,-2.1886,-2.0991,-2.0433,-2.0,-1.9708,-1.9708,-1.9708,-1.9708,-1.9708,-1.9708,-1.9708,-1.9708,-1.9708,-1.9708,-1.9708,-1.9708,-1.9708,-1.9708,-1.9708,-1.9708,-1.9708,-1.9708,-1.9708,-1.9708,-1.9708,-1.9708,-1.9708,-1.9708,-1.9708,-1.9708,-1.9708,-1.9708,-1.9708,-1.9708,-1.9708,-1.9708,-1.9708,-1.9708,-1.9708,-1.9708,-1.9708,-2.03,-2.0304,-2.07,-2.2366,-2.2856,-2.3339,-2.4992,0.0,0.0,-2.552,-2.5505,-2.5526,-2.5526,-2.5623,0.0,0.0,0.0,0.0,0.0,0.0,0.0,0.0,0.0,0.0,0.0,0.0,0.0,0.0,0.0,0.0,0.0,-2.9519,-2.8933,-2.8879,-2.7689,-2.7028,-2.6981,-2.6727,-2.6602,-2.6602,-2.6602,-2.6227,-2.5503,-2.5503,-2.5493,-2.5413,0.0,0.0,0.0,-2.4802,-2.4521,-2.4491,-2.4491,-2.4491,-2.4491,-2.4491,-2.4491,-2.4406,-2.3729,-2.3494,-2.3376,-2.2733,-2.341,-2.4372,-2.3697,-2.3494,-2.3359,-2.2699,-2.2448,-2.2398,-2.2338,-2.1949,-2.1321,-2.05,-2.0,-1.9708,-1.9708,-1.9708,-1.9708,-1.9708,-1.9708,-1.9708,-1.9708,-1.9708,-1.9708,-1.9708,-1.9708,-1.9708,-1.9708,-1.9708,-1.9708,-1.9708,-1.9708,-1.9708,-1.9708,-1.9708,-1.9708,-1.9708,-1.9708,-1.9708,-1.9708,-1.9708,-1.9708,-1.9708,-1.9708,-1.9708,-1.9708,-1.9708,-1.9708,-1.9708,-1.9708,-1.9708,-2.0308,-2.0308,-2.0704,-2.2412,-2.2848,-2.3284,-2.5,0.0,-2.5444,-2.5438,-2.5479,-2.5491,-2.5491,-2.5511,-2.624,0.0,-2.8737,-2.98,-3.2773,0.0,0.0,0.0,0.0,0.0,0.0,0.0,0.0,0.0,0.0,0.0,0.0,-2.9217,-2.8926,-2.8793,-2.7217,-2.6303,-2.6181,-2.5501,-2.5162,-2.5162,-2.5162,-2.4979,-2.4677,-2.4677,-2.4677,-2.4657,0.0,0.0,0.0,-2.36,-2.3306,-2.3173,-2.3173,-2.3173,-2.3173,-2.3173,-2.3173,-2.3122,-2.2835,-2.275,-2.2699,-2.2398,-2.2699,-2.3122,-2.2835,-2.275,-2.2682,-2.2381,-2.2106,-2.1825,-2.1584,-2.0991,-2.0364,-2.0017,-1.9818,-1.9708,-1.9708,-1.9708,-1.9708,-1.9708,-1.9708,-1.9708,-1.9708,-1.9708,-1.9708,-1.9708,-1.9708,-1.9708,-1.9708,-1.9708,-1.9708,-1.9708,-1.9708,-1.9708,-1.9708,-1.9708,-1.9708,-1.9708,-1.9708,-1.9708,-1.9708,-1.9708,-1.9708,-1.9708,-1.9708,-1.9708,-1.9708,-1.9708,-1.9708,-1.9708,-1.9708,-1.9708,-2.0365,-2.0462,-2.1004,-2.2451,-2.299,-2.3567,0.0,-2.5339,-2.536,-2.5375,-2.5413,-2.5444,-2.5444,-2.5465,-2.5967,0.0,-2.8013,-2.9048,-3.1443,0.0,0.0,0.0,0.0,0.0,0.0,0.0,0.0,0.0,0.0,0.0,0.0,-2.8626,-2.8301,-2.8141,-2.6552,-2.5612,-2.5437,-2.4662,-2.4266,-2.419,-2.419,-2.419,-2.419,-2.419,-2.419,-2.418,0.0,0.0,0.0,-2.2903,-2.2603,-2.2398,-2.2335,-2.2296,-2.2296,-2.2296,-2.2296,-2.2296,-2.2296,-2.2296,-2.2296,-2.2296,-2.2296,-2.2296,-2.2296,-2.2296,-2.2296,-2.2296,-2.1957,-2.1506,-2.1102,-2.0431,-1.9839,-1.9744,-1.9708,-1.9708,-1.9708,-1.9708,-1.9708,-1.9708,-1.9708,-1.9708,-1.9708,-1.9708,-1.9708,-1.9708,-1.9708,-1.9708,-1.9708,-1.9708,-1.9708,-1.9708,-1.9708,-1.9708,-1.9708,-1.9708,-1.9708,-1.9708,-1.9708,-1.9708,-1.9708,-1.9708,-1.9708,-1.9708,-1.9708,-1.9708,-1.9708,-1.9708,-1.9708,-1.9708,-1.9708,-1.9708,-2.0519,-2.0885,-2.1696,-2.2586,-2.3451,-2.4298,0.0,-2.5308,-2.5308,-2.5308,-2.5308,-2.5288,-2.5288,-2.5359,-2.5688,-2.6574,-2.7541,-2.8807,-3.0566,0.0,0.0,0.0,0.0,0.0,0.0,0.0,0.0,0.0,0.0,0.0,0.0,-2.7525,-2.664,-2.6615,-2.5564,-2.4943,-2.4816,-2.4591,-2.4401,-2.419,-2.419,-2.419,-2.419,-2.419,-2.419,0.0,0.0,0.0,0.0,-2.3049,-2.2773,-2.2656,-2.2398,-2.2296,-2.2296,-2.2296,-2.2296,-2.2296,-2.2296,-2.2296,-2.2296,-2.2296,-2.2296,-2.2296,-2.2296,-2.2296,-2.2296,-2.2296,-2.1957,-2.1506,-2.1102,-2.0649,-2.0177,-1.98,-1.9708,-1.9708,-1.9708,-1.9708,-1.9708,-1.9708,-1.9708,-1.9708,-1.9708,-1.9708,-1.9708,-1.9708,-1.9708,-1.9708,-1.9708,-1.9708,-1.9708,-1.9708,-1.9708,-1.9708,-1.9708,-1.9708,-1.9708,-1.9708,-1.9708,-1.9708,-1.9708,-1.9708,-1.9708,-1.9708,-1.9708,-1.9708,-1.9708,-1.9708,-1.9708,-1.9708,-1.9708,-1.9708,-2.2081,-2.2197,-2.2605,-2.3471,-2.3898,-2.4317,-2.5115,-2.5308,-2.5308,-2.5308,-2.5308,-2.5481,-2.6077,-2.5726,-2.6195,-2.8848,0.0,0.0,0.0,0.0,0.0,0.0,0.0,0.0,0.0,0.0,0.0,0.0,0.0,0.0,0.0,-2.689,-2.6601,-2.6601,-2.5564,-2.4949,-2.4804,-2.4591,-2.4401,-2.419,-2.419,-2.419,-2.419,-2.419,0.0,0.0,0.0,0.0,0.0,-2.3242,-2.2928,-2.2695,-2.2612,-2.2463,-2.2296,-2.2296,-2.2296,-2.2296,-2.2296,-2.2296,-2.2296,-2.2296,-2.2296,-2.2296,-2.2296,-2.2296,-2.218,-2.1569,-2.1307,-2.1023,-2.0294,-1.9997,-1.9856,-1.9729,-1.9708,-1.9708,-1.9708,-1.9708,-1.9708,-1.9708,-1.9708,-1.9708,-1.9708,-1.9708,-1.9708,-1.9708,-1.9708,-1.9708,-1.9708,-1.9708,-1.9708,-1.9708,-1.9708,-1.9708,-1.9708,-1.9708,-1.9708,-1.9708,-1.9708,-1.9708,-1.9708,-1.9708,-1.9708,-1.9708,-1.9708,-1.953,-1.9151,-1.953,-1.9708,-1.9708,-1.9708,-1.9708,0.0,-2.3047,-2.3413,-2.3956,-2.4336,-2.4678,-2.5192,-2.5308,-2.5308,-2.5308,-2.5558,-2.5962,-2.6505,-2.6428,-2.6997,-2.9168,0.0,0.0,0.0,0.0,0.0,0.0,0.0,0.0,0.0,0.0,0.0,0.0,0.0,0.0,0.0,0.0,-2.6115,-2.6115,-2.5461,-2.5036,-2.4889,-2.4697,-2.4512,-2.4312,-2.4237,-2.419,-2.419,-2.419,0.0,0.0,0.0,0.0,0.0,-2.3533,-2.3189,-2.2885,-2.2759,-2.2537,-2.2296,-2.2296,-2.2296,-2.2296,-2.2296,-2.2296,-2.2296,-2.2296,-2.2296,-2.2296,-2.2296,-2.2296,-2.218,-2.163,-2.126,-2.0878,-2.0328,-1.996,-1.9708,-1.9708,-1.9708,-1.9708,-1.9708,-1.9708,-1.9708,-1.9708,-1.9708,-1.9708,-1.9708,-1.9708,-1.9708,-1.9708,-1.9708,-1.9708,-1.9708,-1.9708,-1.9708,-1.9708,-1.9708,-1.9708,-1.9708,-1.9708,-1.9708,-1.9708,-1.9708,-1.9708,-1.9708,-1.9708,-1.9708,-1.9708,-1.9708,-1.9548,-1.9207,-1.9548,-1.9708,-1.9708,-1.9708,-1.9708,0.0,-2.3567,-2.4187,-2.4187,-2.4755,-2.5308,-2.5308,-2.5308,0.0,-2.5308,-2.5981,-2.664,-2.6755,-2.739,-2.7992,-2.8222,0.0,0.0,0.0,0.0,0.0,0.0,0.0,0.0,0.0,0.0,0.0,0.0,0.0,0.0,0.0,0.0,-2.5308,-2.5308,-2.5308,-2.5203,-2.4992,-2.4869,-2.4693,-2.4478,-2.4284,-2.419,-2.419,-2.419,0.0,0.0,0.0,0.0,0.0,-2.3858,-2.3533,-2.3165,-2.286,-2.255,-2.2296,-2.2296,-2.2296,-2.2296,-2.2296,-2.2296,-2.2296,-2.2296,-2.2296,-2.2296,-2.2296,-2.2296,-2.2296,-2.2268,-2.1676,-2.1039,-2.0959,-2.0345,-1.9744,-1.9708,-1.9708,-1.9708,-1.9708,-1.9708,-1.9708,-1.9708,-1.9708,-1.9708,-1.9708,-1.9708,-1.9708,-1.9708,-1.9708,-1.9708,-1.9708,-1.9708,-1.9708,-1.9708,-1.9708,-1.9708,-1.9708,-1.9708,-1.9708,-1.9708,-1.9708,-1.9708,-1.9708,-1.9708,-1.9708,-1.9708,-1.9657,-1.9657,-1.9708,-1.9657,-1.9657,-1.9708,-1.9708,-1.9708,-2.4827,0.0,-2.5019,-2.5019,-2.5154,-2.5308,0.0,-2.5308,-2.5308,-2.5308,0.0,-2.6986,-2.828,-2.8184,-2.8742,0.0,0.0,0.0,0.0,0.0,0.0,0.0,0.0,0.0,0.0,0.0,0.0,0.0,0.0,0.0,0.0,0.0,-2.5308,-2.5308,-2.5308,-2.5154,-2.4849,-2.4825,-2.4615,-2.4266,-2.4218,-2.419,-2.419,-2.419,0.0,0.0,0.0,0.0,-2.419,-2.4103,-2.3724,-2.3189,-2.3117,-2.2773,-2.2296,-2.2296,-2.2296,-2.2296,-2.2296,-2.2296,-2.2296,-2.2296,-2.2296,-2.2296,-2.2296,-2.2296,-2.224,-2.1869,-2.1628,-2.1322,-2.0649,-2.0314,-2.0072,-1.9764,-1.9708,-1.9708,-1.9708,-1.9708,-1.9708,-1.9708,-1.9708,-1.9708,-1.9708,-1.9708,-1.9708,-1.9708,-1.9708,-1.9708,-1.9708,-1.9708,-1.9708,-1.9708,-1.9708,-1.9708,-1.9708,-1.9708,-1.9708,-1.9708,-1.9708,-1.9708,-1.9708,-1.9708,-1.9708,-1.9708,-1.9299,-1.9281,-1.9708,-1.9281,-1.9299,-1.9708,-1.9708,-1.9708,-2.5308,-2.5308,-2.5308,-2.5308,-2.5308,-2.5308,-2.5308,0.0,0.0,0.0,0.0,-2.7005,-2.8319,-2.8813,0.0,0.0,0.0,0.0,0.0,0.0,0.0,0.0,0.0,0.0,0.0,0.0,0.0,0.0,0.0,0.0,0.0,0.0,-2.5308,-2.5308,-2.5308,-2.5217,-2.5037,-2.4881,-2.4693,-2.4469,-2.4284,-2.419,-2.419,-2.419,0.0,0.0,0.0,0.0,-2.419,-2.419,-2.3806,-2.32,-2.32,-2.2837,-2.2296,-2.2296,-2.2296,-2.2296,-2.2296,-2.2296,-2.2296,-2.2296,-2.2296,-2.2296,-2.2296,-2.2296,-2.2254,-2.1988,-2.1628,-2.1228,-2.0732,-2.033,-1.9965,-1.9747,-1.9708,-1.9708,-1.9708,-1.9708,-1.9708,-1.9708,-1.9708,-1.9708,-1.9708,-1.9708,-1.9708,-1.9708,-1.9708,-1.9708,-1.9708,-1.9708,-1.9708,-1.9708,-1.9708,-1.9708,-1.9708,-1.9708,-1.9708,-1.9708,-1.9708,-1.9708,-1.9708,-1.9708,-1.9584,-1.935,-1.8817,-1.8669,-1.8968,-1.8669,-1.8669,-1.8968,-1.8968,-1.8968,-2.5269,-2.5308,-2.5308,-2.5308,-2.5308,-2.5308,-2.5308,0.0,0.0,0.0,0.0,0.0,0.0,-2.9467,0.0,0.0,0.0,0.0,0.0,0.0,0.0,0.0,0.0,0.0,0.0,0.0,0.0,0.0,0.0,0.0,0.0,0.0,0.0,-2.5308,-2.5308,-2.5308,-2.5308,-2.4974,-2.4782,-2.4753,-2.4375,-2.419,-2.419,-2.419,0.0,0.0,0.0,0.0,-2.419,-2.419,-2.3845,-2.3259,-2.3212,-2.2857,-2.2363,-2.2324,-2.2296,-2.2296,-2.2296,-2.2296,-2.2296,-2.2296,-2.2296,-2.2296,-2.2296,-2.2296,-2.2282,-2.2209,-2.1721,-2.1166,-2.1023,-2.0464,-1.9856,-1.9744,-1.9708,-1.9708,-1.9708,-1.9708,-1.9708,-1.9708,-1.9708,-1.9708,-1.9708,-1.9708,-1.9708,-1.9708,-1.9708,-1.9708,-1.9708,-1.9708,-1.9708,-1.9708,-1.9708,-1.9708,-1.9708,-1.9708,-1.9708,-1.9708,-1.9708,-1.9708,-1.9708,-1.9708,-1.9479,-1.9024,-1.8574,-1.8341,-1.8341,-1.8341,-1.8341,-1.8341,-1.8341,-1.8341,-2.5115,-2.5308,-2.5308,-2.5308,-2.5308,-2.5308,-2.5308,0.0,0.0,0.0,0.0,0.0,0.0,0.0,0.0,0.0,0.0,0.0,0.0,0.0,0.0,0.0,0.0,0.0,0.0,0.0,0.0,0.0,0.0,0.0,0.0,0.0,0.0,-2.5308,-2.5308,-2.5308,-2.5308,-2.4974,-2.4716,-2.4534,-2.4312,-2.419,-2.419,-2.419,-2.419,0.0,0.0,-2.419,-2.419,-2.419,-2.3976,-2.3606,-2.3311,-2.2972,-2.2612,-2.2388,-2.2296,-2.2296,-2.2296,-2.2296,-2.2296,-2.2296,-2.2296,-2.2296,-2.2296,-2.2296,-2.2209,-2.1809,-2.1899,-2.193,-2.1197,-2.0894,-2.0615,-1.9889,-1.9708,-1.9708,-1.9708,-1.9708,-1.9708,-1.9708,-1.9708,-1.9708,-1.9708,-1.9708,-1.9708,-1.9708,-1.9708,-1.9708,-1.9708,-1.9708,-1.9708,-1.9708,-1.9708,-1.9708,-1.9708,-1.9708,-1.9708,-1.9708,-1.9708,-1.9708,-1.9708,-1.9708,-1.9657,-1.9584,-1.9497,-1.9442,-1.9442,-1.9442,-1.9442,-1.9442,-1.9442,-1.9442,-2.4548,-2.4639,-2.4755,-2.5192,-2.5308,-2.5308,-2.5308,0.0,0.0,0.0,0.0,0.0,0.0,0.0,0.0,0.0,0.0,0.0,0.0,0.0,0.0,0.0,0.0,0.0,0.0,0.0,0.0,0.0,0.0,0.0,0.0,0.0,0.0,0.0,-2.5308,-2.5308,-2.5308,-2.5049,-2.4842,-2.4662,-2.4452,-2.4312,-2.419,-2.419,-2.419,-2.419,0.0,-2.419,-2.419,-2.419,-2.4006,-2.3682,-2.3533,-2.3153,-2.2673,-2.2402,-2.2296,-2.2296,-2.2296,-2.2296,-2.2296,-2.2296,-2.2296,-2.2296,-2.2296,-2.2296,-2.2268,-2.2032,-2.1796,-2.1447,-2.0781,-2.0465,-2.0191,-1.98,-1.9708,-1.9708,-1.9708,-1.9708,-1.9708,-1.9708,-1.9708,-1.9708,-1.9708,-1.9708,-1.9708,-1.9708,-1.9708,-1.9708,-1.9708,-1.9708,-1.9708,-1.9708,-1.9708,-1.9708,-1.9708,-1.9708,-1.9708,-1.9708,-1.9424,-1.9406,-1.969,-1.9151,-1.8968,-1.9262,-1.8987,-1.8836,-1.8836,-1.8535,-1.8554,-1.8836,-1.8535,-1.8554,-2.3995,-2.411,-2.4298,-2.5096,0.0,-2.5346,-2.5558,0.0,0.0,0.0,0.0,0.0,0.0,0.0,0.0,0.0,0.0,0.0,0.0,0.0,0.0,0.0,0.0,0.0,0.0,0.0,0.0,0.0,0.0,0.0,0.0,0.0,0.0,0.0,-2.5308,-2.5308,-2.5308,-2.5152,-2.4999,-2.4842,-2.4615,-2.4428,-2.4266,-2.4218,-2.419,-2.419,-2.419,-2.419,-2.419,-2.419,-2.4054,-2.3806,-2.3631,-2.3183,-2.2573,-2.2374,-2.2296,-2.2296,-2.2296,-2.2296,-2.2296,-2.2296,-2.2296,-2.2296,-2.2296,-2.2296,-2.2282,-2.218,-2.166,-2.1039,-2.0583,-2.0227,-1.9945,-1.9747,-1.9708,-1.9708,-1.9708,-1.9708,-1.9708,-1.9708,-1.9708,-1.9708,-1.9708,-1.9708,-1.9708,-1.9708,-1.9708,-1.9708,-1.9708,-1.9708,-1.9708,-1.9708,-1.9708,-1.9708,-1.9708,-1.9708,-1.9708,-1.9708,-1.9207,-1.908,-1.9497,-1.8593,-1.8302,-1.8688,-1.8322,-1.8106,-1.8106,-1.7686,-1.7706,-1.8086,-1.7807,-1.7887,-2.3663,-2.411,-2.4298,-2.5096,-2.5308,0.0,-2.6327,-2.6544,0.0,0.0,0.0,0.0,0.0,0.0,0.0,0.0,0.0,0.0,0.0,0.0,0.0,0.0,0.0,0.0,0.0,0.0,0.0,0.0,0.0,0.0,0.0,0.0,0.0,0.0,0.0,-2.5308,-2.5308,-2.5298,-2.5187,-2.4986,-2.4666,-2.4495,-2.4469,-2.4284,-2.419,-2.419,-2.419,-2.419,-2.419,-2.419,-2.418,-2.4094,-2.3488,-2.2857,-2.2338,-2.231,-2.2296,-2.2296,-2.2296,-2.2296,-2.2296,-2.2296,-2.2296,-2.2296,-2.2296,-2.2296,-2.2209,-2.1779,-2.1613,-2.146,-2.1055,-2.0926,-2.0698,-1.9892,-1.9708,-1.9708,-1.9708,-1.9708,-1.9708,-1.9708,-1.9708,-1.9708,-1.9708,-1.9708,-1.9708,-1.9708,-1.9708,-1.9708,-1.9708,-1.9708,-1.9708,-1.9708,-1.9708,-1.9708,-1.9708,-1.9708,-1.9708,-1.9708,-1.9207,-1.893,-1.8968,-1.8419,-1.8125,-1.8165,-1.8125,-1.8106,-1.8106,-1.8066,-1.8066,-1.8125,-1.8574,-1.8817,-2.2805,-2.3194,-2.3587,-2.4807,-2.5208,0.0,0.0,-2.7024,0.0,0.0,0.0,0.0,0.0,0.0,0.0,0.0,0.0,0.0,0.0,0.0,0.0,0.0,0.0,0.0,0.0,0.0,0.0,0.0,0.0,0.0,0.0,0.0,0.0,0.0,0.0,-2.5308,-2.5308,-2.5308,-2.5264,-2.5173,-2.4849,-2.4615,-2.4495,-2.4294,-2.419,-2.419,-2.419,-2.419,-2.419,-2.419,-2.419,-2.4123,-2.3448,-2.3063,-2.2824,-2.2443,-2.2296,-2.2296,-2.2296,-2.2296,-2.2296,-2.2296,-2.2296,-2.2296,-2.2296,-2.2296,-2.2194,-2.1718,-2.1597,-2.1506,-2.1102,-2.078,-2.0483,-2.0158,-1.9874,-1.9708,-1.9708,-1.9708,-1.9708,-1.9708,-1.9708,-1.9708,-1.9708,-1.9708,-1.9708,-1.9708,-1.9708,-1.9708,-1.9708,-1.9708,-1.9708,-1.9708,-1.9406,-1.9207,-1.9207,-1.8893,-1.8708,-1.8708,-1.8836,-1.9043,-1.9387,-1.8554,-1.8419,-1.908,-1.8765,-1.8746,-1.9095,-1.8746,-1.8765,-1.9095,-1.8968,-1.908,-2.2407,-2.2843,-2.3434,-2.476,0.0,0.0,0.0,0.0,0.0,0.0,0.0,0.0,0.0,0.0,0.0,0.0,0.0,0.0,0.0,0.0,0.0,0.0,0.0,0.0,0.0,0.0,0.0,0.0,0.0,0.0,0.0,0.0,0.0,0.0,0.0,0.0,-2.5308,-2.5058,-2.5058,-2.5284,-2.4676,-2.446,-2.4602,-2.433,-2.419,-2.419,-2.419,-2.419,-2.419,-2.419,-2.4141,-2.3996,-2.3533,-2.3224,-2.2984,-2.2581,-2.2374,-2.2296,-2.2296,-2.2296,-2.2296,-2.2296,-2.2296,-2.2296,-2.2296,-2.2296,-2.2223,-2.1913,-2.1809,-2.1718,-2.1291,-2.0748,-2.0263,-2.0141,-1.9909,-1.9708,-1.9708,-1.9708,-1.9708,-1.9708,-1.9708,-1.9708,-1.9708,-1.9708,-1.9708,-1.9708,-1.9708,-1.9708,-1.9708,-1.9708,-1.9708,-1.9708,-1.9369,-1.9151,-1.9151,-1.8817,-1.8612,-1.8612,-1.8949,-1.9095,-1.8949,-1.8066,-1.7947,-1.8669,-1.8341,-1.8322,-1.8688,-1.8322,-1.8341,-1.8669,-1.8496,-1.8593,-2.2562,-2.3294,-2.4041,0.0,0.0,0.0,0.0,0.0,0.0,0.0,0.0,0.0,0.0,0.0,0.0,0.0,0.0,0.0,0.0,0.0,0.0,0.0,0.0,0.0,0.0,0.0,0.0,0.0,0.0,0.0,0.0,0.0,0.0,0.0,0.0,0.0,-2.5288,-2.4509,-2.4509,-2.5264,-2.4062,-2.3964,-2.479,-2.4384,-2.419,-2.419,-2.419,-2.419,-2.419,-2.419,-2.4006,-2.3703,-2.3692,-2.33,-2.2708,-2.2695,-2.2541,-2.2296,-2.2296,-2.2296,-2.2296,-2.2296,-2.2296,-2.2296,-2.2296,-2.2296,-2.2296,-2.2296,-2.2296,-2.218,-2.1703,-2.0943,-2.0177,-1.98,-1.9708,-1.9708,-1.9708,-1.9708,-1.9708,-1.9708,-1.9708,-1.9708,-1.9708,-1.9708,-1.9708,-1.9708,-1.9708,-1.9708,-1.9708,-1.9708,-1.9708,-1.9708,-1.9708,-1.969,-1.969,-1.969,-1.969,-1.969,-1.969,-1.8968,-1.7394,-1.6816,-1.6543,-1.6543,-1.6543,-1.6543,-1.6543,-1.6543,-1.6543,-1.6531,-1.7076,-1.7333,-2.3311,-2.3753,0.0,-2.4914,0.0,0.0,0.0,0.0,0.0,0.0,0.0,0.0,0.0,0.0,0.0,0.0,0.0,0.0,0.0,0.0,0.0,0.0,0.0,0.0,0.0,0.0,0.0,0.0,0.0,0.0,0.0,0.0,0.0,0.0,0.0,0.0,-2.4452,-2.4774,-2.4466,-2.3543,-2.3662,-2.4093,-2.479,-2.4384,-2.419,-2.419,-2.419,-2.419,-2.419,-2.419,-2.4151,-2.4006,-2.3533,-2.3242,-2.2996,-2.2581,-2.236,-2.2296,-2.2296,-2.2296,-2.2296,-2.2296,-2.2296,-2.2296,-2.2296,-2.2296,-2.2223,-2.1899,-2.1598,-2.1276,-2.0813,-2.0278,-1.9927,-2.0072,-1.9909,-1.9708,-1.9708,-1.9708,-1.9708,-1.9708,-1.9708,-1.9708,-1.9708,-1.9708,-1.9708,-1.9708,-1.9708,-1.9708,-1.9708,-1.9708,-1.9708,-1.9708,-1.9369,-1.9151,-1.9151,-1.8458,-1.8185,-1.8554,-1.7867,-1.7907,-1.8949,-1.8477,-1.838,-1.8727,-1.838,-1.838,-1.8746,-1.8746,-1.8746,-1.8746,-1.8912,-1.8987,-2.3816,-2.418,0.0,-2.5007,-2.5152,0.0,0.0,0.0,0.0,0.0,0.0,0.0,0.0,0.0,0.0,0.0,0.0,0.0,0.0,0.0,0.0,0.0,0.0,0.0,0.0,0.0,0.0,0.0,0.0,0.0,0.0,0.0,0.0,0.0,0.0,0.0,-2.359,-2.3716,-2.3466,-2.2793,-2.2788,-2.3156,-2.3871,-2.351,-2.3474,-2.3749,-2.4061,-2.419,-2.419,-2.419,-2.419,-2.4161,-2.3764,-2.3426,-2.3171,-2.2798,-2.2508,-2.2296,-2.2296,-2.2296,-2.2296,-2.2296,-2.2296,-2.2296,-2.2296,-2.2296,-2.2237,-2.1974,-2.1705,-2.1369,-2.0732,-2.0398,-2.0191,-2.0087,-1.9874,-1.9708,-1.9708,-1.9708,-1.9708,-1.9708,-1.9708,-1.9708,-1.9708,-1.9708,-1.9708,-1.9708,-1.9708,-1.9708,-1.9708,-1.9708,-1.9708,-1.9708,-1.9406,-1.9225,-1.9225,-1.8631,-1.84,-1.8708,-1.8145,-1.8361,-1.9639,-1.8574,-1.8106,-1.8419,-1.8125,-1.8125,-1.8438,-1.8438,-1.8438,-1.8438,-1.8438,-1.8438,-2.4206,0.0,0.0,-2.5259,0.0,0.0,0.0,0.0,0.0,0.0,0.0,0.0,0.0,0.0,0.0,0.0,0.0,0.0,0.0,0.0,0.0,0.0,0.0,0.0,0.0,0.0,0.0,0.0,0.0,0.0,0.0,0.0,0.0,0.0,0.0,0.0,-2.2695,-2.197,-2.1947,0.0,-2.166,-2.1583,-2.2277,-2.2082,-2.2331,-2.2933,-2.3657,-2.3969,-2.3969,-2.3969,-2.3969,-2.3988,-2.395,-2.3568,-2.3011,-2.2988,-2.2663,-2.222,-2.222,-2.2257,-2.2296,-2.2296,-2.2296,-2.2296,-2.2296,-2.2296,-2.2296,-2.2296,-2.2268,-2.2063,-2.126,-2.0991,-2.0731,-1.9945,-1.9744,-1.9708,-1.9708,-1.9708,-1.9708,-1.9708,-1.9708,-1.9708,-1.9708,-1.9708,-1.9708,-1.9708,-1.9708,-1.9708,-1.9708,-1.9708,-1.9708,-1.9708,-1.9708,-1.9708,-1.9708,-1.9657,-1.9621,-1.9621,-1.9548,-1.9479,-1.9479,-1.7747,-1.6795,-1.6795,-1.6795,-1.6795,-1.6795,-1.6795,-1.6795,-1.6795,-1.6795,-1.6795,0.0,-2.5134,0.0,0.0,0.0,0.0,0.0,0.0,0.0,0.0,0.0,0.0,0.0,0.0,0.0,0.0,0.0,0.0,0.0,0.0,0.0,0.0,0.0,0.0,0.0,0.0,0.0,0.0,0.0,0.0,0.0,0.0,0.0,0.0,0.0,-2.281,-2.1868,-2.2296,-2.1947,0.0,-2.1244,-2.1124,-2.0565,-2.155,-2.2025,-2.2069,-2.2235,-2.2326,-2.2326,-2.2326,-2.2326,-2.229,-2.2025,-2.1852,-2.1675,-2.1412,-2.147,-2.1657,-2.1657,-2.1958,-2.2296,-2.2296,-2.2296,-2.2296,-2.2296,-2.2296,-2.2296,-2.2296,-2.2032,-2.172,-2.1522,-2.0959,-2.0399,-2.0227,-1.9927,-1.9708,-1.9708,-1.9708,-1.9708,-1.9708,-1.9708,-1.9708,-1.9708,-1.9708,-1.9708,-1.9708,-1.9708,-1.9708,-1.9708,-1.9708,-1.9708,-1.9708,-1.9708,-1.9708,-1.9708,-1.9314,-1.9062,-1.9062,-1.8283,-1.7827,-1.7827,-1.8593,-1.9006,-1.9006,-1.9006,-1.9006,-1.9006,-1.9006,-1.9006,-1.9006,-1.9006,-1.9006,0.0,0.0,0.0,0.0,0.0,0.0,0.0,0.0,0.0,0.0,0.0,0.0,0.0,0.0,0.0,0.0,0.0,0.0,0.0,0.0,0.0,0.0,0.0,0.0,0.0,0.0,0.0,0.0,0.0,0.0,0.0,0.0,0.0,0.0,-2.2443,-2.1969,-2.0988,-2.1384,-2.1166,-2.0308,-2.0731,-2.06,-2.0036,-2.0982,-2.1402,-2.1345,-2.1653,-2.1794,-2.1794,-2.1794,-2.1794,-2.1785,-2.1607,-2.1357,-2.1093,-2.0916,-2.0819,-2.0785,-2.0785,-2.1211,-2.1769,-2.1769,-2.2023,-2.2296,-2.2296,-2.2296,-2.2296,-2.2296,-2.212,-2.1884,-2.1658,-2.1118,-2.0583,-2.0348,-2.0,-1.9708,-1.9708,-1.9708,-1.9708,-1.9708,-1.9708,-1.9708,-1.9708,-1.9708,-1.9708,-1.9708,-1.9708,-1.9708,-1.9708,-1.9708,-1.9708,-1.9708,-1.9708,-1.9708,-1.9708,-1.9442,-1.9281,-1.9281,-1.8746,-1.8458,-1.8458,-1.9244,-1.9225,-1.8204,-1.8185,-1.8185,-1.8185,-1.8185,-1.8032,-1.7793,-1.8046,-1.7885,0.0,0.0,0.0,0.0,0.0,0.0,0.0,0.0,0.0,0.0,0.0,0.0,0.0,0.0,0.0,0.0,0.0,0.0,0.0,0.0,0.0,0.0,0.0,0.0,0.0,0.0,0.0,0.0,0.0,0.0,0.0,0.0,-2.2401,-2.1628,-2.1448,-2.0948,-2.012,-1.9948,-1.9861,-1.9846,-2.0004,-2.0075,-2.0069,-2.0446,-2.0604,-2.0618,-2.1182,-2.1405,-2.1372,-2.1372,-2.1372,-2.1372,-2.1372,-2.1062,-2.0624,-2.0573,-2.0317,-1.993,-1.9898,-2.0454,-2.119,-2.119,-2.1701,-2.2296,-2.2296,-2.2296,-2.2262,-2.2158,-2.2195,-2.2161,-2.1569,-2.121,-2.0878,-2.0416,-2.0,-1.9708,-1.9708,-1.9708,-1.9708,-1.9708,-1.9708,-1.9708,-1.9708,-1.9708,-1.9708,-1.9708,-1.9708,-1.9708,-1.9708,-1.9708,-1.9708,-1.9708,-1.9708,-1.9708,-1.9708,-1.9708,-1.9657,-1.9566,-1.9566,-1.953,-1.9424,-1.9424,-1.8593,-1.6816,-1.6951,-1.7055,-1.7055,-1.7055,-1.6757,-1.6244,-1.6671,-1.6334,0.0,0.0,0.0,0.0,0.0,0.0,0.0,0.0,0.0,0.0,0.0,0.0,0.0,0.0,0.0,0.0,0.0,0.0,0.0,0.0,0.0,0.0,0.0,0.0,0.0,0.0,0.0,0.0,0.0,0.0,0.0,-2.0937,-2.0898,-2.0761,-1.997,-1.9477,-1.9356,-1.8535,-1.8094,-1.8065,-1.8815,-1.9558,-2.0241,-2.0029,-1.9864,-1.9775,-1.9841,-1.9797,-1.9627,-1.9627,-1.9627,-1.9627,-1.9627,-1.957,-1.949,-1.9325,-1.9464,-1.971,-1.9473,-2.0182,-2.119,-2.119,-2.1701,-2.2296,-2.2296,-2.2296,-2.2161,-2.1529,-2.1803,-2.2043,-2.0924,-2.082,-2.0878,-2.0416,-2.0,-1.9708,-1.9708,-1.9708,-1.9708,-1.9708,-1.9708,-1.9708,-1.9708,-1.9708,-1.9708,-1.9708,-1.9708,-1.9708,-1.9708,-1.9708,-1.9708,-1.9708,-1.9708,-1.9708,-1.9708,-1.9708,-1.9497,-1.9043,-1.9006,-1.8798,-1.8341,-1.8322,-1.8185,-1.7887,-1.8798,-1.9262,-1.9262,-1.9262,-1.8939,-1.8309,-1.8379,-1.8027,-2.4648,0.0,0.0,0.0,0.0,0.0,0.0,0.0,0.0,0.0,0.0,0.0,0.0,0.0,0.0,0.0,0.0,0.0,0.0,0.0,0.0,0.0,0.0,0.0,0.0,0.0,0.0,0.0,0.0,0.0,-2.0625,-2.0137,-1.9863,-1.9863,-1.9002,-1.8504,-1.8476,-1.8061,-1.7793,-1.7699,-1.8084,-1.8469,-1.8846,-1.8691,-1.9028,-1.9688,-1.9516,-1.9372,-1.9297,-1.9297,-1.9297,-1.9297,-1.9297,-1.9219,-1.9117,-1.9026,-1.8948,-1.8839,-1.8714,-1.9224,-1.9904,-1.9904,-2.0416,-2.1011,-2.1011,-2.1011,-2.0944,-2.0606,-2.0622,-2.0697,-2.0537,-2.0296,-2.0143,-2.027,-2.0,-1.9708,-1.9708,-1.9708,-1.9708,-1.9708,-1.9708,-1.9708,-1.9708,-1.9708,-1.9708,-1.9708,-1.9708,-1.9708,-1.9708,-1.9708,-1.9708,-1.9708,-1.9708,-1.9708,-1.9708,-1.9708,-1.9603,-1.9369,-1.935,-1.9244,-1.9006,-1.8654,-1.8607,-1.8987,-1.8574,-1.8361,-1.8361,-1.8046,-1.7449,-1.6583,-1.6874,-1.6355,0.0,0.0,0.0,0.0,0.0,0.0,0.0,0.0,0.0,0.0,0.0,0.0,0.0,0.0,0.0,0.0,0.0,0.0,0.0,0.0,0.0,0.0,0.0,0.0,0.0,0.0,0.0,0.0,0.0,0.0,-1.9941,-1.9316,-1.8965,-1.8965,-1.8125,-1.7654,-1.7597,-1.7364,-1.7287,-1.7391,-1.7391,-1.7507,-1.7699,-1.7652,-1.8213,-1.9214,-1.9136,-1.9066,-1.9022,-1.9224,-1.9297,-1.9297,-1.9297,-1.9214,-1.9077,-1.9009,-1.8706,-1.829,-1.8218,-1.8516,-1.8894,-1.8894,-1.9389,-2.0002,-2.0002,-2.0002,-1.9951,-1.9765,-1.9827,-1.9953,-2.0049,-1.9951,-1.9857,-2.0087,-1.9927,-1.9708,-1.9708,-1.9708,-1.9708,-1.9708,-1.9708,-1.9708,-1.9708,-1.9708,-1.9708,-1.9708,-1.9708,-1.9708,-1.9708,-1.9708,-1.9708,-1.9708,-1.9708,-1.9708,-1.9708,-1.9708,-1.9708,-1.9708,-1.9708,-1.9633,-1.9453,-1.8972,-1.8852,-1.9181,-1.788,-1.7416,-1.7907,-1.7504,-1.6738,-1.5615,-1.6032,-1.5367,0.0,0.0,0.0,0.0,0.0,0.0,0.0,0.0,0.0,0.0,0.0,0.0,0.0,0.0,0.0,0.0,0.0,0.0,0.0,0.0,0.0,0.0,0.0,0.0,0.0,0.0,0.0,0.0,0.0,0.0,-1.8144,-1.8086,-1.8066,-1.8066,-1.7227,-1.6776,-1.6762,-1.5882,-1.5811,-1.6564,-1.6564,-1.6968,-1.7696,-1.7565,-1.7559,-1.7651,-1.8267,-1.8404,-1.8225,-1.8985,-1.9297,-1.9297,-1.9297,-1.9289,-1.9259,-1.9077,-1.8816,-1.8537,-1.829,-1.8516,-1.8894,-1.8894,-1.9389,-2.0002,-2.0002,-2.0002,-1.9849,-1.9147,-1.9993,-2.0767,-1.928,-1.9905,-2.0732,-1.9927,-1.9726,-1.9708,-1.9708,-1.9708,-1.9708,-1.9708,-1.9708,-1.9708,-1.9708,-1.9708,-1.9708,-1.9708,-1.9708,-1.9708,-1.9708,-1.9708,-1.9708,-1.9708,-1.9708,-1.9708,-1.9708,-1.9708,-1.9708,-1.9708,-1.9708,-1.9405,-1.8777,-1.8717,-1.8433,-1.7818,-1.7209,-1.78,-1.9584,-1.9548,-1.8862,-1.7552,-1.7581,-1.69,0.0,0.0,0.0,0.0,0.0,0.0,0.0,0.0,0.0,0.0,0.0,0.0,0.0,0.0,0.0,0.0,0.0,0.0,0.0,0.0,0.0,0.0,0.0,0.0,0.0,0.0,0.0,0.0,0.0,0.0,-1.8008,-1.7461,-1.7168,-1.7168,-1.6328,-1.5877,-1.5864,-1.5495,-1.5441,-1.5726,-1.57,-1.583,-1.6096,-1.6057,-1.599,-1.5933,-1.6699,-1.7189,-1.7477,-1.7672,-1.8052,-1.8537,-1.8537,-1.8856,-1.9274,-1.9077,-1.8825,-1.8556,-1.829,-1.8207,-1.82,-1.82,-1.8374,-1.8594,-1.8594,-1.8594,-1.8527,-1.8268,-1.8285,-1.8434,-1.8737,-1.8842,-1.9031,-1.9569,-1.9708,-1.9708,-1.9708,-1.9708,-1.9708,-1.9708,-1.9708,-1.9708,-1.9708,-1.9708,-1.9708,-1.9708,-1.9708,-1.9708,-1.9708,-1.9708,-1.9708,-1.9708,-1.9708,-1.9708,-1.9708,-1.9318,-1.9061,-1.9061,-1.8657,-1.8311,-1.8072,-1.7637,-1.7519,-1.7713,-1.7088,-1.7148,-1.7908,-1.7559,-1.6976,-1.6153,-1.6153,-1.5732,-2.2552,0.0,0.0,0.0,0.0,0.0,0.0,0.0,0.0,0.0,0.0,0.0,0.0,0.0,0.0,0.0,0.0,0.0,0.0,0.0,0.0,0.0,0.0,0.0,0.0,0.0,0.0,0.0,0.0,0.0,-1.7084,-1.6579,-1.6269,-1.6269,-1.5703,-1.5409,-1.5395,-1.536,-1.5326,-1.53,-1.5255,-1.5218,-1.5192,-1.5192,-1.5146,-1.5091,-1.5575,-1.614,-1.6711,-1.6885,-1.7422,-1.8089,-1.8089,-1.8592,-1.9282,-1.915,-1.8896,-1.8566,-1.84,-1.8093,-1.78,-1.78,-1.78,-1.78,-1.78,-1.78,-1.78,-1.78,-1.7662,-1.7698,-1.8578,-1.8594,-1.8612,-1.9498,-1.9708,-1.9708,-1.9708,-1.9708,-1.9708,-1.9708,-1.9708,-1.9633,-1.9408,-1.9558,-1.9558,-1.9091,-1.9405,-1.9618,-1.9393,-1.9573,-1.9708,-1.9708,-1.9708,-1.9618,-1.9375,-1.8957,-1.8612,-1.8371,-1.7953,-1.7593,-1.7369,-1.695,-1.6816,-1.7071,-1.6622,-1.6439,-1.6534,-1.6587,-1.6338,-1.5764,-1.5764,-1.5471,0.0,0.0,0.0,0.0,0.0,0.0,0.0,0.0,0.0,0.0,0.0,0.0,0.0,0.0,0.0,0.0,0.0,0.0,0.0,0.0,0.0,0.0,0.0,0.0,0.0,0.0,0.0,0.0,0.0,-1.5295,-1.5296,-1.5363,-1.5402,-1.5391,-1.5391,-1.5409,-1.5395,-1.5395,-1.5369,-1.5302,-1.53,-1.5265,-1.5192,-1.5192,-1.5192,-1.5186,-1.5052,-1.534,-1.5934,-1.6704,-1.7422,-1.8041,-1.8041,-1.8537,-1.926,-1.9253,-1.898,-1.8595,-1.8585,-1.8239,-1.78,-1.78,-1.78,-1.78,-1.78,-1.78,-1.78,-1.78,-1.8307,-1.8847,-1.8818,-1.9241,-1.9696,-1.9711,-1.9708,-1.9693,-1.9678,-1.9678,-1.9678,-1.9678,-1.9678,-1.9468,-1.8792,-1.9211,-1.9196,-1.7908,-1.8807,-1.9408,-1.8747,-1.9226,-1.9648,-1.9648,-1.9648,-1.9393,-1.8732,-1.8657,-1.8356,-1.7697,-1.7637,-1.7354,-1.6712,-1.6666,-1.6398,-1.5814,-1.5799,-1.5799,-1.5799,-1.7041,-1.7309,-1.6666,-1.6666,-1.6368,-2.2133,0.0,0.0,0.0,0.0,0.0,0.0,0.0,0.0,0.0,0.0,0.0,0.0,0.0,0.0,0.0,0.0,0.0,0.0,0.0,0.0,0.0,0.0,0.0,0.0,0.0,0.0,0.0,-1.5758,-1.5301,-1.5295,-1.5363,-1.5397,-1.5402,-1.5409,-1.539,-1.5409,-1.5401,-1.5379,-1.5299,-1.5299,-1.5265,-1.5192,-1.5192,-1.5192,-1.5189,-1.5152,-1.5188,-1.5243,-1.5332,-1.5756,-1.6353,-1.6353,-1.7215,-1.8405,-1.8216,-1.834,-1.8566,-1.8381,-1.81,-1.78,-1.78,-1.78,-1.78,-1.78,-1.78,-1.78,-1.78,-1.7769,-1.7922,-1.8674,-1.9108,-1.9473,-2.0016,-1.9909,-1.9573,-1.9076,-1.8972,-1.8972,-1.8972,-1.8972,-1.8762,-1.8087,-1.8132,-1.8132,-1.7758,-1.8012,-1.8192,-1.7997,-1.8132,-1.8252,-1.8252,-1.8252,-1.8177,-1.7997,-1.7533,-1.7174,-1.6995,-1.6578,-1.6248,-1.6069,-1.6054,-1.5964,-1.5799,-1.5799,-1.5799,-1.5799,-1.6144,-1.6233,-1.6054,-1.6054,-1.5964,0.0,0.0,0.0,0.0,0.0,0.0,0.0,0.0,0.0,0.0,0.0,0.0,0.0,0.0,0.0,0.0,0.0,0.0,0.0,0.0,0.0,0.0,0.0,0.0,0.0,0.0,0.0,0.0,-1.5528,-1.5267,-1.5305,-1.5349,-1.5373,-1.5394,-1.5404,-1.5409,-1.5391,-1.5408,-1.5202,-1.4806,-1.4774,-1.4549,-1.4166,-1.4167,-1.4346,-1.4651,-1.4651,-1.4782,-1.4984,-1.4863,-1.5195,-1.5783,-1.5783,-1.6533,-1.758,-1.742,-1.7724,-1.8182,-1.7949,-1.7917,-1.7949,-1.7845,-1.78,-1.78,-1.78,-1.78,-1.78,-1.78,-1.7659,-1.7646,-1.8283,-1.8515,-1.8673,-1.9121,-1.904,-1.8762,-1.8373,-1.8281,-1.8281,-1.8281,-1.8281,-1.8072,-1.7399,-1.7503,-1.7519,-1.6997,-1.7355,-1.7593,-1.7324,-1.7518,-1.7713,-1.7713,-1.7713,-1.7578,-1.7309,-1.692,-1.6592,-1.6338,-1.5994,-1.5799,-1.5799,-1.5799,-1.5799,-1.5799,-1.5799,-1.5799,-1.5799,-1.5799,-1.5799,-1.5799,-1.5799,-1.5799,-2.334,-2.3298,0.0,0.0,0.0,0.0,-2.0496,-2.0257,0.0,0.0,0.0,0.0,0.0,0.0,0.0,0.0,0.0,0.0,0.0,0.0,0.0,0.0,0.0,0.0,0.0,0.0,-1.5346,-1.5346,-1.525,-1.5224,-1.5286,-1.5295,-1.5322,-1.5385,-1.5392,-1.5343,-1.5254,-1.5254,-1.4822,-1.3947,-1.3894,-1.3452,-1.2703,-1.2706,-1.3087,-1.3764,-1.386,-1.4264,-1.4891,-1.4986,-1.5321,-1.5774,-1.5774,-1.6183,-1.6762,-1.6762,-1.7096,-1.7531,-1.7427,-1.7691,-1.8011,-1.7855,-1.78,-1.78,-1.78,-1.78,-1.78,-1.78,-1.7798,-1.78,-1.7853,-1.7802,-1.7721,-1.7764,-1.7746,-1.7684,-1.7609,-1.7578,-1.7579,-1.7504,-1.7533,-1.7369,-1.6712,-1.7085,-1.7101,-1.5978,-1.6757,-1.7264,-1.6682,-1.7115,-1.7489,-1.7489,-1.7489,-1.725,-1.6652,-1.6607,-1.6368,-1.5829,-1.5799,-1.5799,-1.5799,-1.5799,-1.5799,-1.5799,-1.5799,-1.5799,-1.5799,-1.5799,-1.5799,-1.5799,-1.5799,-1.5799,-2.4355,-2.416,-2.3945,-2.3124,0.0,0.0,0.0,-1.94,0.0,0.0,0.0,0.0,0.0,0.0,0.0,0.0,0.0,0.0,0.0,0.0,0.0,0.0,0.0,0.0,0.0,0.0,-1.6253,-1.6253,-1.5596,-1.5217,-1.5215,-1.5272,-1.5311,-1.5311,-1.5374,-1.5064,-1.4364,-1.4354,-1.3924,-1.3048,-1.3045,-1.2919,-1.2705,-1.2697,-1.2792,-1.2967,-1.3613,-1.3986,-1.4167,-1.4861,-1.5072,-1.4926,-1.4926,-1.5331,-1.5931,-1.5931,-1.6208,-1.6654,-1.7215,-1.7219,-1.7084,-1.7619,-1.78,-1.78,-1.78,-1.78,-1.78,-1.78,-1.781,-1.7864,-1.8197,-1.8033,-1.7853,-1.8192,-1.7971,-1.7548,-1.701,-1.689,-1.6741,-1.6278,-1.6562,-1.6697,-1.6069,-1.6084,-1.6084,-1.5844,-1.6009,-1.6114,-1.5994,-1.6084,-1.6159,-1.6159,-1.6159,-1.6114,-1.5979,-1.5979,-1.5919,-1.5814,-1.5799,-1.5799,-1.5799,-1.5799,-1.5799,-1.5799,-1.5799,-1.5799,-1.5799,-1.5799,-1.5799,-1.5799,-1.5799,-1.5799,-2.5059,-2.4727,-2.4199,-2.3359,0.0,0.0,0.0,0.0,-1.9198,0.0,0.0,0.0,0.0,0.0,0.0,0.0,0.0,0.0,0.0,0.0,0.0,0.0,0.0,0.0,0.0,0.0,-1.693,-1.6526,-1.5692,-1.5192,-1.5192,-1.5229,-1.5072,-1.4661,-1.4672,-1.4299,-1.3465,-1.3453,-1.3027,-1.2202,-1.2178,-1.1904,-1.1444,-1.1446,-1.1665,-1.2065,-1.2483,-1.3132,-1.3934,-1.4341,-1.4616,-1.4799,-1.4799,-1.4913,-1.5105,-1.5105,-1.5486,-1.6023,-1.6149,-1.6335,-1.6515,-1.6659,-1.6712,-1.6779,-1.7134,-1.7507,-1.78,-1.78,-1.7681,-1.7562,-1.7595,-1.733,-1.7058,-1.7101,-1.6925,-1.6667,-1.6308,-1.6263,-1.6159,-1.5858,-1.6039,-1.6159,-1.5858,-1.5799,-1.5799,-1.5799,-1.5799,-1.5799,-1.5799,-1.5799,-1.5799,-1.5799,-1.5799,-1.5799,-1.5799,-1.5799,-1.5799,-1.5799,-1.5799,-1.5799,-1.5799,-1.5799,-1.5799,-1.5799,-1.5799,-1.5799,-1.5799,-1.5799,-1.5799,-1.5799,-1.5799,-1.5799,0.0,0.0,0.0,0.0,0.0,-2.2422,0.0,0.0,0.0,-1.9766,0.0,0.0,0.0,0.0,0.0,0.0,0.0,0.0,0.0,0.0,0.0,0.0,0.0,0.0,0.0,0.0,-1.7545,-1.6564,-1.5849,-1.5442,-1.5442,-1.5288,-1.4893,-1.4257,-1.4231,-1.377,-1.2794,-1.2782,-1.23,-1.1328,-1.1287,-1.0888,-1.0202,-1.0195,-1.0544,-1.1173,-1.1336,-1.2173,-1.3434,-1.3717,-1.4156,-1.4665,-1.4802,-1.4707,-1.4493,-1.4493,-1.4879,-1.5384,-1.5145,-1.5483,-1.5966,-1.5729,-1.5634,-1.574,-1.6479,-1.7128,-1.7603,-1.7681,-1.7514,-1.7211,-1.6815,-1.6501,-1.6219,-1.5885,-1.5799,-1.5799,-1.5799,-1.5799,-1.5799,-1.5799,-1.5799,-1.5799,-1.5799,-1.5799,-1.5799,-1.5799,-1.5799,-1.5799,-1.5799,-1.5799,-1.5799,-1.5799,-1.5799,-1.5799,-1.5799,-1.5799,-1.5799,-1.5799,-1.5799,-1.5799,-1.5799,-1.5799,-1.5799,-1.5799,-1.5799,-1.5799,-1.5799,-1.5799,-1.5799,-1.5799,-1.5799,-1.5799,0.0,0.0,0.0,0.0,-2.2031,0.0,0.0,0.0,-1.8887,-1.7441,0.0,0.0,0.0,0.0,0.0,0.0,0.0,0.0,0.0,0.0,0.0,0.0,0.0,0.0,0.0,0.0,0.0,-1.6622,-1.6407,-1.6349,-1.6349,-1.5615,-1.5157,-1.5069,-1.5115,-1.437,-1.2726,-1.2774,-1.1979,-1.0365,-1.041,-1.035,-1.0204,-1.0204,-1.0254,-1.0375,-1.1082,-1.1504,-1.181,-1.3275,-1.3824,-1.3806,-1.448,-1.463,-1.4493,-1.4493,-1.4441,-1.4449,-1.5059,-1.5137,-1.5072,-1.5668,-1.5742,-1.574,-1.6479,-1.6766,-1.6905,-1.7256,-1.7332,-1.7146,-1.6528,-1.6328,-1.6219,-1.5885,-1.5799,-1.5799,-1.5799,-1.5799,-1.5799,-1.5799,-1.5799,-1.5799,-1.5799,-1.5799,-1.5799,-1.5799,-1.5799,-1.5799,-1.5799,-1.5799,-1.5799,-1.5799,-1.5799,-1.5799,-1.5799,-1.5799,-1.5799,-1.5799,-1.5799,-1.5799,-1.5799,-1.5799,-1.5799,-1.5799,-1.5799,-1.5799,-1.5799,-1.5799,-1.5799,-1.5799,-1.5799,-1.5799,0.0,0.0,0.0,0.0,0.0,0.0,-1.9707,0.0,-1.8477,0.0,0.0,0.0,0.0,0.0,0.0,0.0,0.0,0.0,0.0,0.0,0.0,0.0,0.0,0.0,0.0,0.0,0.0,0.0,0.0,-1.6506,-1.6506,-1.6157,-1.5481,-1.4478,-1.4472,-1.3683,-1.2028,-1.2021,-1.1445,-1.0253,-1.0293,-1.0253,-1.0207,-1.0207,-1.02,-1.0227,-1.0525,-1.0925,-1.1442,-1.2079,-1.2838,-1.3628,-1.3859,-1.4167,-1.4493,-1.4493,-1.4453,-1.4393,-1.4593,-1.4577,-1.4457,-1.4532,-1.476,-1.5105,-1.5842,-1.635,-1.6819,-1.7417,-1.7584,-1.7491,-1.6998,-1.6735,-1.6501,-1.6163,-1.5941,-1.5799,-1.5799,-1.5799,-1.5799,-1.5799,-1.5799,-1.5799,-1.5799,-1.5799,-1.5799,-1.5799,-1.5799,-1.5799,-1.5799,-1.5799,-1.5799,-1.5799,-1.5799,-1.5799,-1.5799,-1.5799,-1.5799,-1.5799,-1.5799,-1.5799,-1.5799,-1.5799,-1.5799,-1.5799,-1.5799,-1.5799,-1.5799,-1.5799,-1.5799,-1.5799,-1.5799,-1.5799,-2.2415,0.0,0.0,0.0,0.0,0.0,0.0,0.0,0.0,0.0,0.0,0.0,0.0,0.0,0.0,0.0,0.0,0.0,0.0,0.0,0.0,0.0,0.0,0.0,0.0,0.0,0.0,0.0,0.0,0.0,-1.716,-1.6756,-1.5926,-1.4651,-1.4382,-1.3571,-1.2174,-1.1945,-1.1432,-1.0621,-1.041,-1.0273,-1.023,-1.0216,-1.0193,-1.0202,-1.0159,-1.0477,-1.1056,-1.12,-1.2053,-1.3311,-1.3405,-1.3912,-1.4556,-1.4511,-1.4493,-1.447,-1.427,-1.4129,-1.3983,-1.3648,-1.3845,-1.4368,-1.5325,-1.5977,-1.6576,-1.7423,-1.767,-1.7584,-1.7248,-1.6977,-1.6738,-1.6488,-1.6246,-1.6081,-1.6081,-1.5997,-1.5926,-1.5926,-1.587,-1.5799,-1.5799,-1.5799,-1.5799,-1.5799,-1.5799,-1.5799,-1.5799,-1.5799,-1.5799,-1.5799,-1.5799,-1.5799,-1.5799,-1.5799,-1.5799,-1.5799,-1.5799,-1.5799,-1.5799,-1.5799,-1.5799,-1.5799,-1.5799,-1.5799,-1.5799,-1.5799,-1.5799,-1.5799,-1.5799,-1.5799,0.0,0.0,0.0,-1.9484,0.0,0.0,0.0,0.0,-1.8957,0.0,0.0,0.0,0.0,0.0,0.0,0.0,0.0,0.0,0.0,0.0,0.0,0.0,0.0,0.0,0.0,0.0,0.0,0.0,0.0,0.0,-1.8876,-1.7372,-1.6465,-1.6426,-1.5596,-1.4731,-1.3827,-1.3055,-1.2264,-1.1456,-1.0678,-1.0293,-1.0293,-1.023,-1.0197,-1.0192,-1.0204,-1.0183,-1.021,-1.1058,-1.1833,-1.262,-1.3315,-1.405,-1.4682,-1.455,-1.4493,-1.447,-1.427,-1.3948,-1.3594,-1.3454,-1.3413,-1.3718,-1.5165,-1.5612,-1.5873,-1.6994,-1.732,-1.7248,-1.6904,-1.6802,-1.6802,-1.6789,-1.6776,-1.6763,-1.6763,-1.6514,-1.6287,-1.6287,-1.6025,-1.5799,-1.5799,-1.5799,-1.5799,-1.5799,-1.5799,-1.5799,-1.5799,-1.5799,-1.5799,-1.5799,-1.5799,-1.5799,-1.5799,-1.5799,-1.5799,-1.5799,-1.5799,-1.5799,-1.5799,-1.5799,-1.5799,-1.5799,-1.5799,-1.5799,-1.5799,-1.5799,-1.5799,-1.5799,-1.5799,-1.5799,0.0,0.0,-1.8788,-1.8425,0.0,0.0,0.0,0.0,0.0,0.0,0.0,0.0,0.0,0.0,0.0,0.0,0.0,0.0,0.0,0.0,0.0,0.0,0.0,0.0,0.0,0.0,0.0,0.0,0.0,0.0,0.0,-1.8453,-1.7641,-1.6545,-1.6215,-1.5383,-1.3974,-1.3126,-1.2291,-1.1494,-1.068,-1.0293,-1.0293,-1.0231,-1.0198,-1.0193,-1.0205,-1.0165,-1.0113,-1.0423,-1.0969,-1.1715,-1.2459,-1.319,-1.3889,-1.4337,-1.4493,-1.447,-1.427,-1.3941,-1.3594,-1.3548,-1.3803,-1.431,-1.5291,-1.5944,-1.6515,-1.7384,-1.7635,-1.7595,-1.7479,-1.7301,-1.7138,-1.7138,-1.6952,-1.6802,-1.6802,-1.6528,-1.6301,-1.6301,-1.6025,-1.5799,-1.5799,-1.5799,-1.5799,-1.5799,-1.5799,-1.5799,-1.5799,-1.5799,-1.5799,-1.5799,-1.5799,-1.5799,-1.5799,-1.5799,-1.5799,-1.5799,-1.5799,-1.5799,-1.5799,-1.5799,-1.5799,-1.5799,-1.5799,-1.5799,-1.5799,-1.5799,-1.5799,-1.5799,-1.5799,-1.5799,-1.8783,-1.8396,0.0,-1.7565,-1.7464,0.0,-1.7438,0.0,0.0,0.0,0.0,0.0,0.0,0.0,0.0,0.0,0.0,0.0,0.0,0.0,0.0,0.0,0.0,0.0,0.0,0.0,-1.6534,-1.7642,0.0,0.0,0.0,0.0,-1.8353,-1.6968,-1.666,-1.5829,-1.4434,-1.3286,-1.2433,-1.1918,-1.0794,-1.0273,-1.0293,-1.0252,-1.0226,-1.0208,-1.0202,-1.0187,-1.0124,-1.0104,-1.0564,-1.1307,-1.1749,-1.2372,-1.316,-1.415,-1.4458,-1.4368,-1.4162,-1.3885,-1.3594,-1.354,-1.3786,-1.4293,-1.5291,-1.5927,-1.6519,-1.7512,-1.78,-1.78,-1.78,-1.7647,-1.7491,-1.7491,-1.7224,-1.6993,-1.6993,-1.6617,-1.6301,-1.6301,-1.6025,-1.5799,-1.5799,-1.5799,-1.5799,-1.5799,-1.5799,-1.5799,-1.5799,-1.5799,-1.5799,-1.5799,-1.5799,-1.5799,-1.5799,-1.5799,-1.5799,-1.5799,-1.5799,-1.5799,-1.5799,-1.5799,-1.5799,-1.5799,-1.5799,-1.5799,-1.5799,-1.5799,-1.5799,-1.5799,-1.5799,-1.5799]},{"header":{"parameterUnit":"m.s-1","parameterCategory":1,"la1":30.6,"la2":29.2853,"lo1":-89.7004,"lo2":-87.6739,"dy":0.0162,"dx":0.0183,"nx":112,"ny":82,"refTime":"2024-07-13T00:00:00:Z","depth":0,"parameterNumber":3,"parameterNumberName":"V-component_of_WINDS"},"data":[0.0,0.0,0.0,0.0,0.0,0.0,0.0,0.0,0.0,0.0,0.0,0.0,0.0,0.0,0.0,0.0,0.0,0.0,0.0,0.0,0.0,0.0,0.0,0.0,0.0,0.0,0.0,0.0,0.0,0.0,0.0,0.0,0.0,0.0,0.0,0.0,0.0,0.0,0.0,0.0,0.0,0.0,0.0,0.0,0.0,0.0,0.0,0.0,0.0,0.0,0.0,0.0,0.0,0.0,0.0,0.0,0.0,0.0,0.0,0.0,0.0,0.0,0.0,0.0,0.0,0.0,0.0,0.0,0.0,0.0,0.0,0.0,0.0,0.0,0.0,0.0,0.0,0.0,0.0,0.0,0.0,0.0,0.0,0.0,0.0,0.0,0.0,0.0,0.0,0.0,0.0,-1.3988,-1.6133,-1.7838,-1.8665,-1.9717,-1.9674,-1.8081,0.0,0.0,0.0,0.0,0.0,0.0,0.0,0.0,0.0,0.0,0.0,0.0,0.0,0.0,0.0,0.0,0.0,0.0,0.0,0.0,0.0,0.0,0.0,0.0,0.0,0.0,0.0,0.0,0.0,0.0,0.0,0.0,0.0,0.0,0.0,0.0,0.0,0.0,0.0,0.0,0.0,0.0,0.0,0.0,0.0,0.0,0.0,0.0,0.0,0.0,0.0,0.0,0.0,0.0,0.0,0.0,0.0,0.0,0.0,0.0,0.0,0.0,0.0,0.0,0.0,0.0,0.0,0.0,0.0,0.0,0.0,0.0,0.0,0.0,0.0,0.0,0.0,0.0,0.0,0.0,0.0,0.0,0.0,0.0,0.0,0.0,0.0,0.0,0.0,0.0,0.0,0.0,0.0,0.0,0.0,0.0,0.0,0.0,0.0,0.0,0.0,0.0,0.0,0.0,-1.2812,-1.3961,-1.5264,-1.6451,-1.7464,-1.859,-1.8909,-1.8047,0.0,0.0,0.0,0.0,0.0,0.0,0.0,0.0,0.0,0.0,0.0,0.0,0.0,0.0,0.0,0.0,0.0,0.0,0.0,0.0,0.0,0.0,0.0,0.0,0.0,0.0,0.0,0.0,0.0,0.0,0.0,0.0,0.0,0.0,0.0,0.0,0.0,0.0,0.0,0.0,0.0,0.0,0.0,0.0,0.0,0.0,0.0,0.0,0.0,0.0,0.0,0.0,0.0,0.0,0.0,0.0,0.0,0.0,0.0,0.0,0.0,0.0,0.0,0.0,0.0,0.0,0.0,0.0,0.0,0.0,0.0,0.0,0.0,0.0,0.0,0.0,0.0,0.0,0.0,0.0,0.0,0.0,0.0,0.0,0.0,0.0,0.0,0.0,0.0,0.0,0.0,0.0,0.0,0.0,0.0,0.0,0.0,0.0,0.0,0.0,0.0,0.0,0.0,-1.329,-1.3811,-1.6457,-1.6642,-1.7171,-1.8602,-1.9186,-1.8955,-1.775,-1.7451,0.0,0.0,0.0,0.0,0.0,0.0,0.0,0.0,0.0,0.0,0.0,0.0,0.0,0.0,0.0,0.0,0.0,0.0,0.0,0.0,0.0,0.0,0.0,0.0,0.0,0.0,0.0,0.0,0.0,0.0,0.0,0.0,0.0,0.0,0.0,0.0,0.0,0.0,0.0,0.0,0.0,0.0,0.0,0.0,0.0,0.0,0.0,0.0,0.0,0.0,0.0,0.0,0.0,0.0,0.0,0.0,0.0,0.0,0.0,0.0,0.0,0.0,0.0,0.0,0.0,0.0,0.0,0.0,0.0,0.0,0.0,0.0,0.0,0.0,0.0,0.0,0.0,0.0,0.0,0.0,0.0,0.0,0.0,0.0,0.0,0.0,0.0,0.0,0.0,0.0,0.0,0.0,0.0,0.0,0.0,0.0,0.0,0.0,0.0,0.0,0.0,0.0,-1.4691,-1.5588,-1.8329,-1.8069,-1.8193,-1.9402,-1.9664,-1.9082,-1.749,-1.6875,0.0,0.0,0.0,0.0,0.0,0.0,0.0,0.0,0.0,0.0,0.0,0.0,0.0,0.0,0.0,0.0,0.0,0.0,0.0,0.0,0.0,0.0,0.0,0.0,0.0,0.0,0.0,0.0,0.0,0.0,0.0,0.0,0.0,0.0,0.0,0.0,0.0,0.0,0.0,0.0,0.0,0.0,0.0,0.0,0.0,0.0,0.0,0.0,0.0,0.0,0.0,0.0,0.0,0.0,0.0,0.0,0.0,0.0,0.0,0.0,0.0,0.0,0.0,0.0,0.0,0.0,0.0,0.0,0.0,0.0,0.0,0.0,0.0,0.0,0.0,0.0,0.0,0.0,0.0,0.0,0.0,0.0,0.0,0.0,0.0,0.0,0.0,0.0,0.0,0.0,0.0,0.0,0.0,0.0,0.0,0.0,0.0,0.0,0.0,0.0,0.0,0.0,-1.7152,-1.8289,-1.7496,-1.831,-1.8755,-1.8436,-1.8985,-1.8779,-1.7461,-1.6613,0.0,0.0,0.0,0.0,0.0,0.0,0.0,0.0,0.0,0.0,0.0,0.0,0.0,0.0,0.0,0.0,0.0,0.0,0.0,0.0,0.0,0.0,0.0,0.0,0.0,0.0,0.0,0.0,0.0,0.0,0.0,0.0,0.0,0.0,0.0,0.0,0.0,0.0,0.0,0.0,0.0,0.0,0.0,0.0,0.0,0.0,0.0,0.0,0.0,0.0,0.0,0.0,0.0,0.0,0.0,0.0,0.0,0.0,0.0,0.0,0.0,0.0,0.0,0.0,0.0,0.0,0.0,0.0,0.0,0.0,0.0,0.0,0.0,0.0,0.0,0.0,0.0,0.0,0.0,0.0,0.0,0.0,0.0,0.0,0.0,0.0,0.0,0.0,0.0,0.0,0.0,0.0,0.0,0.0,0.0,0.0,0.0,0.0,0.0,0.0,0.0,0.0,-1.6259,-1.7138,0.0,-1.8341,-1.8253,-1.8486,-1.8713,-1.834,-1.7051,0.0,0.0,0.0,0.0,0.0,0.0,0.0,0.0,0.0,0.0,0.0,0.0,0.0,0.0,0.0,0.0,0.0,0.0,0.0,0.0,0.0,0.0,0.0,0.0,0.0,0.0,0.0,0.0,0.0,0.0,0.0,0.0,0.0,0.0,0.0,0.0,0.0,0.0,0.0,0.0,0.0,0.0,0.0,0.0,0.0,0.0,0.0,0.0,0.0,0.0,0.0,0.0,0.0,0.0,0.0,0.0,0.0,0.0,0.0,0.0,0.0,0.0,0.0,0.0,0.0,0.0,0.0,0.0,0.0,0.0,0.0,0.0,0.0,0.0,0.0,0.0,0.0,0.0,0.0,0.0,0.0,0.0,0.0,0.0,0.0,0.0,0.0,0.0,0.0,0.0,0.0,0.0,0.0,0.0,0.0,0.0,0.0,0.0,0.0,0.0,0.0,0.0,-1.6314,-1.6514,-1.7234,0.0,-1.8645,-1.8329,-1.8566,-1.8354,-1.7711,-1.6592,0.0,0.0,0.0,0.0,0.0,0.0,0.0,0.0,0.0,0.0,0.0,0.0,0.0,0.0,0.0,0.0,0.0,0.0,0.0,0.0,0.0,0.0,0.0,0.0,0.0,0.0,0.0,0.0,0.0,0.0,0.0,0.0,0.0,0.0,0.0,0.0,0.0,0.0,0.0,0.0,0.0,0.0,0.0,0.0,0.0,0.0,0.0,0.0,0.0,0.0,0.0,0.0,0.0,0.0,0.0,0.0,0.0,0.0,0.0,0.0,0.0,0.0,0.0,0.0,0.0,0.0,0.0,0.0,0.0,0.0,0.0,0.0,0.0,0.0,0.0,0.0,0.0,0.0,0.0,0.0,0.0,0.0,0.0,0.0,0.0,0.0,0.0,0.0,0.0,0.0,0.0,0.0,0.0,0.0,0.0,0.0,0.0,0.0,0.0,0.0,0.0,0.0,-1.7256,-1.8486,-1.9277,-1.9277,-1.9277,-1.9102,-1.8627,-1.7861,-1.7034,0.0,0.0,0.0,0.0,0.0,0.0,0.0,0.0,0.0,0.0,0.0,0.0,0.0,0.0,0.0,0.0,0.0,0.0,0.0,0.0,0.0,0.0,0.0,0.0,0.0,0.0,0.0,0.0,0.0,0.0,0.0,0.0,0.0,0.0,0.0,0.0,0.0,0.0,0.0,0.0,0.0,0.0,0.0,0.0,0.0,0.0,0.0,0.0,0.0,0.0,0.0,0.0,0.0,0.0,0.0,0.0,0.0,0.0,0.0,0.0,0.0,0.0,0.0,0.0,0.0,0.0,0.0,0.0,0.0,0.0,0.0,0.0,0.0,0.0,0.0,0.0,0.0,0.0,0.0,0.0,0.0,0.0,0.0,0.0,0.0,0.0,0.0,0.0,0.0,0.0,0.0,0.0,0.0,0.0,0.0,0.0,0.0,0.0,0.0,0.0,0.0,0.0,0.0,-1.6408,-1.7588,-1.8389,-1.8389,-1.8389,-1.834,-1.8203,-1.7695,-1.7034,-1.6153,0.0,0.0,0.0,0.0,0.0,0.0,0.0,0.0,0.0,0.0,0.0,0.0,0.0,0.0,0.0,0.0,0.0,0.0,0.0,0.0,0.0,0.0,0.0,0.0,0.0,0.0,0.0,0.0,0.0,0.0,0.0,0.0,0.0,0.0,0.0,0.0,0.0,0.0,0.0,0.0,0.0,0.0,0.0,0.0,0.0,0.0,0.0,0.0,0.0,0.0,0.0,0.0,0.0,0.0,0.0,0.0,0.0,0.0,0.0,0.0,0.0,0.0,0.0,0.0,0.0,0.0,0.0,0.0,0.0,0.0,0.0,0.0,0.0,0.0,0.0,0.0,0.0,0.0,0.0,0.0,0.0,0.0,0.0,0.0,0.0,0.0,0.0,0.0,0.0,0.0,0.0,0.0,0.0,0.0,0.0,0.0,0.0,0.0,0.0,0.0,0.0,0.0,-1.6016,-1.6904,-1.7594,-1.7978,-1.7861,-1.7832,-1.7998,-1.7461,-1.6816,-1.6134,0.0,0.0,0.0,0.0,0.0,0.0,0.0,0.0,0.0,0.0,0.0,0.0,0.0,0.0,0.0,0.0,0.0,0.0,0.0,0.0,0.0,0.0,0.0,0.0,0.0,0.0,0.0,0.0,0.0,0.0,0.0,0.0,0.0,0.0,0.0,0.0,0.0,0.0,0.0,0.0,0.0,0.0,0.0,0.0,0.0,0.0,0.0,0.0,0.0,0.0,0.0,0.0,0.0,0.0,0.0,0.0,0.0,0.0,0.0,0.0,0.0,0.0,0.0,0.0,0.0,0.0,0.0,0.0,0.0,0.0,0.0,0.0,0.0,0.0,0.0,0.0,0.0,0.0,0.0,0.0,0.0,0.0,0.0,0.0,0.0,0.0,0.0,0.0,0.0,0.0,0.0,0.0,0.0,0.0,0.0,0.0,0.0,0.0,0.0,0.0,0.0,0.0,-1.5928,-1.6426,-1.6999,-1.7803,-1.7549,-1.748,-1.7861,-1.7106,-1.6484,-1.6065,0.0,0.0,0.0,0.0,0.0,0.0,0.0,0.0,0.0,0.0,0.0,0.0,0.0,0.0,0.0,0.0,0.0,0.0,0.0,0.0,0.0,0.0,0.0,0.0,0.0,0.0,0.0,0.0,0.0,0.0,0.0,0.0,0.0,0.0,0.0,0.0,0.0,0.0,0.0,0.0,0.0,0.0,0.0,0.0,0.0,0.0,0.0,0.0,0.0,0.0,0.0,0.0,0.0,0.0,0.0,0.0,0.0,0.0,0.0,0.0,-1.1451,0.0,0.0,0.0,0.0,0.0,0.0,0.0,0.0,0.0,0.0,0.0,0.0,0.0,0.0,0.0,0.0,0.0,0.0,0.0,0.0,0.0,0.0,0.0,0.0,0.0,0.0,0.0,0.0,0.0,0.0,0.0,0.0,0.0,0.0,0.0,0.0,0.0,0.0,0.0,0.0,0.0,-1.5488,-1.621,-1.6775,-1.696,-1.6892,-1.6872,-1.697,-1.6514,-1.6016,-1.5576,0.0,0.0,0.0,0.0,0.0,0.0,0.0,0.0,0.0,0.0,0.0,0.0,0.0,0.0,0.0,0.0,0.0,0.0,0.0,0.0,0.0,0.0,0.0,0.0,0.0,0.0,0.0,0.0,0.0,0.0,0.0,0.0,0.0,0.0,0.0,0.0,0.0,0.0,0.0,0.0,0.0,0.0,0.0,0.0,0.0,0.0,0.0,0.0,0.0,0.0,0.0,0.0,0.0,0.0,0.0,0.0,0.0,0.0,0.0,0.0,0.0,-1.3074,0.0,0.0,0.0,0.0,0.0,0.0,0.0,0.0,0.0,0.0,0.0,0.0,0.0,0.0,0.0,0.0,0.0,0.0,0.0,0.0,0.0,0.0,0.0,0.0,0.0,0.0,0.0,0.0,0.0,0.0,0.0,0.0,0.0,0.0,0.0,0.0,0.0,0.0,0.0,0.0,-1.5332,-1.5811,-1.6229,-1.6658,-1.6543,-1.6494,-1.6687,-1.6318,-1.6147,-1.6264,-1.5109,0.0,0.0,0.0,0.0,0.0,0.0,0.0,0.0,0.0,0.0,0.0,0.0,0.0,0.0,0.0,0.0,0.0,0.0,0.0,0.0,0.0,0.0,0.0,0.0,0.0,0.0,0.0,0.0,0.0,0.0,0.0,0.0,0.0,0.0,0.0,0.0,0.0,0.0,0.0,0.0,0.0,0.0,0.0,0.0,0.0,0.0,0.0,0.0,0.0,0.0,0.0,0.0,0.0,0.0,-1.2225,-1.1986,-1.2191,-1.2347,-1.2522,-1.376,-1.4807,-1.5684,0.0,0.0,0.0,0.0,0.0,0.0,0.0,0.0,0.0,0.0,0.0,0.0,0.0,0.0,0.0,0.0,0.0,0.0,0.0,0.0,0.0,0.0,0.0,0.0,0.0,-1.7227,-1.7197,0.0,0.0,0.0,0.0,0.0,0.0,0.0,0.0,0.0,0.0,0.0,0.0,-1.5312,-1.541,-1.5693,-1.6395,-1.6172,-1.6103,-1.6443,-1.6284,-1.6417,-1.7038,-1.5889,-1.5273,0.0,0.0,0.0,0.0,0.0,0.0,0.0,0.0,0.0,0.0,0.0,0.0,0.0,0.0,0.0,0.0,0.0,0.0,0.0,0.0,0.0,0.0,0.0,0.0,0.0,0.0,0.0,0.0,0.0,0.0,0.0,0.0,-0.5871,-0.8259,0.0,0.0,0.0,0.0,0.0,0.0,0.0,0.0,0.0,0.0,0.0,0.0,0.0,0.0,-1.1839,-1.2355,-1.2502,-1.2245,-1.2583,-1.2569,-1.2245,-1.2285,-1.3208,-1.477,-1.4969,0.0,-1.4747,-1.5588,0.0,0.0,0.0,0.0,0.0,0.0,0.0,0.0,0.0,0.0,0.0,0.0,0.0,0.0,0.0,0.0,0.0,0.0,0.0,0.0,0.0,0.0,-1.7842,-1.7842,-1.7881,-1.7881,0.0,-1.7048,-1.6395,-1.6007,0.0,0.0,0.0,0.0,0.0,0.0,0.0,0.0,-1.5352,-1.541,-1.543,-1.5576,-1.5537,-1.5518,-1.5576,-1.61,-1.6491,-1.6587,-1.6662,-1.6724,-1.6763,-1.5603,0.0,0.0,0.0,0.0,0.0,0.0,0.0,0.0,0.0,0.0,0.0,0.0,0.0,0.0,0.0,0.0,0.0,0.0,0.0,0.0,0.0,0.0,0.0,0.0,0.0,0.0,0.0,0.0,0.0,-0.485,-0.5589,-0.7181,-0.6831,-0.7057,0.0,0.0,0.0,0.0,0.0,0.0,0.0,0.0,0.0,-1.1993,-1.2141,-1.2318,-1.2619,-1.2879,-1.2891,-1.2589,-1.2859,-1.2759,-1.2305,-1.3024,-1.3734,-1.4414,-1.5508,-1.587,-1.5739,-1.6459,-1.6886,-1.7051,0.0,0.0,0.0,0.0,0.0,-1.6504,-1.6943,0.0,0.0,0.0,0.0,0.0,0.0,0.0,0.0,0.0,0.0,0.0,0.0,0.0,0.0,-1.8008,-1.8008,-1.8008,-1.8008,-1.7715,-1.7324,0.0,-1.665,-1.6221,-1.5293,0.0,0.0,0.0,0.0,0.0,-1.5361,-1.541,-1.541,-1.541,-1.541,-1.541,-1.541,-1.6093,-1.668,-1.709,-1.7252,-1.741,-1.7606,-1.6718,-1.6435,0.0,0.0,0.0,0.0,0.0,0.0,0.0,0.0,0.0,0.0,0.0,0.0,0.0,0.0,0.0,0.0,0.0,0.0,0.0,0.0,0.0,0.0,0.0,0.0,0.0,0.0,0.0,0.0,-0.5013,-0.5553,-0.6432,-0.6809,-0.7531,0.0,0.0,0.0,0.0,0.0,0.0,-1.1744,-1.1971,-1.2368,-1.2891,-1.2978,-1.3086,-1.332,-1.3394,-1.324,-1.2904,-1.3173,-1.2966,-1.2348,-1.3388,-1.3948,-1.4171,-1.5614,-1.6498,-1.6973,-1.7389,-1.7539,-1.75,-1.707,-1.6863,-1.6863,-1.6863,-1.6863,-1.6931,-1.7393,-1.7471,-1.7328,-1.677,0.0,-1.6065,-1.4961,0.0,0.0,0.0,0.0,-1.6824,-1.7402,0.0,-1.7881,-1.7988,-1.7842,-1.7744,-1.7959,-1.793,-1.7764,0.0,-1.7295,-1.6865,-1.5771,0.0,0.0,0.0,0.0,-1.5059,-1.5371,-1.541,-1.541,-1.541,-1.5584,-1.569,-1.569,-1.6528,-1.7302,-1.7852,-1.807,-1.8272,-1.8514,-1.7833,-1.7522,-1.7727,0.0,0.0,0.0,0.0,0.0,0.0,0.0,0.0,0.0,0.0,0.0,0.0,0.0,0.0,0.0,0.0,0.0,0.0,0.0,0.0,0.0,0.0,0.0,0.0,0.0,0.0,0.0,0.0,0.0,-0.6769,-0.7391,0.0,0.0,0.0,0.0,-1.1254,-1.165,-1.2107,-1.269,-1.273,-1.2891,-1.318,-1.3413,-1.3567,-1.358,-1.3901,-1.3754,-1.3186,-1.344,-1.312,-1.2311,-1.2688,-1.3688,-1.5128,-1.5234,-1.6263,-1.794,-1.7954,-1.7978,-1.7939,-1.751,-1.7344,-1.7344,-1.7344,-1.7344,-1.7412,-1.7832,-1.7715,-1.7474,-1.7793,-1.733,-1.658,-1.6144,-1.5693,0.0,0.0,-1.6668,-1.6892,-1.7764,-1.7695,-1.7519,-1.791,-1.736,-1.6989,-1.7832,-1.7695,-1.7402,0.0,-1.7051,-1.658,-1.6144,0.0,-1.5371,-1.5381,-1.5381,-1.5391,-1.541,-1.541,-1.541,-1.541,-1.6036,-1.6436,-1.6436,-1.7759,-1.8608,-1.8635,-1.9307,-1.9708,-1.9709,-1.9008,-1.8714,-1.8921,-1.8198,0.0,0.0,0.0,0.0,0.0,0.0,0.0,0.0,0.0,0.0,0.0,0.0,0.0,0.0,0.0,0.0,0.0,0.0,0.0,0.0,0.0,0.0,0.0,0.0,0.0,0.0,0.0,0.0,-0.6279,-0.7831,0.0,-0.9122,-1.0773,-1.1898,-1.1968,-1.2452,-1.2906,-1.33,-1.332,-1.346,-1.3768,-1.3874,-1.3928,-1.3928,-1.4035,-1.3888,-1.3447,-1.3367,-1.3093,-1.2623,-1.3156,-1.4068,-1.5234,-1.5825,-1.6828,-1.8008,-1.8008,-1.8008,-1.7998,-1.7842,-1.7793,-1.7793,-1.7793,-1.7793,-1.7812,-1.7959,-1.791,-1.7764,-1.7646,-1.7217,-1.6668,-1.6543,-1.6356,-1.6356,-1.6982,-1.6921,-1.6833,-1.7451,-1.7285,-1.707,-1.751,-1.7373,-1.7236,-1.7539,-1.749,-1.7217,-1.6672,-1.6865,-1.6924,-1.6222,-1.5958,-1.5732,-1.5459,-1.541,-1.5584,-1.6036,-1.6122,-1.6283,-1.6771,-1.7052,-1.7202,-1.7202,-1.8112,-1.8546,-1.8213,-1.8867,-1.9284,-1.9284,-1.9032,-1.9081,-1.9497,-1.892,-1.8387,0.0,0.0,0.0,0.0,0.0,0.0,0.0,0.0,0.0,0.0,0.0,0.0,0.0,0.0,0.0,0.0,0.0,0.0,0.0,0.0,0.0,0.0,0.0,0.0,0.0,0.0,-0.5895,-0.5909,-0.8046,-0.9361,-0.8951,-1.1168,-1.2596,-1.2496,-1.2926,-1.334,-1.3586,-1.37,-1.3881,-1.4082,-1.4088,-1.4088,-1.4088,-1.4088,-1.3941,-1.36,-1.3547,-1.324,-1.2822,-1.3641,-1.4423,-1.5269,-1.6175,-1.7139,-1.8008,-1.8008,-1.8008,-1.8008,-1.8008,-1.8008,-1.8008,-1.8008,-1.8008,-1.8008,-1.8008,-1.8008,-1.7969,-1.7686,-1.7402,-1.7106,-1.697,-1.6953,-1.6982,-1.7119,-1.6921,-1.6765,-1.709,-1.6836,-1.6621,-1.7061,-1.6934,-1.6807,-1.71,-1.7051,-1.6799,-1.6212,-1.6574,-1.6741,-1.5997,-1.587,-1.5831,-1.5769,-1.5777,-1.6036,-1.6782,-1.6866,-1.7062,-1.755,-1.7825,-1.7977,-1.7977,-1.8661,-1.8913,-1.8562,-1.8994,-1.9259,-1.9259,-1.9096,-1.9171,-1.9509,-1.8995,-1.8644,-1.8456,0.0,0.0,0.0,0.0,0.0,0.0,0.0,0.0,0.0,0.0,0.0,0.0,0.0,0.0,0.0,0.0,0.0,0.0,0.0,0.0,0.0,0.0,0.0,-0.5409,-0.5755,-0.5946,-0.584,-0.798,-0.9376,-0.9097,-1.1003,-1.2408,-1.2726,-1.3033,-1.334,-1.3586,-1.3915,-1.4075,-1.4088,-1.4088,-1.4088,-1.4088,-1.4088,-1.3941,-1.362,-1.3935,-1.3641,-1.288,-1.4067,-1.4825,-1.5305,-1.6219,-1.7139,-1.8008,-1.8008,-1.8008,-1.8008,-1.8008,-1.8008,-1.8008,-1.8008,-1.8008,-1.8008,-1.8008,-1.8008,-1.8008,-1.8008,-1.8008,-1.7939,-1.7529,-1.7435,-1.7314,-1.6843,-1.6716,-1.6697,-1.6687,-1.6377,-1.6183,-1.6602,-1.6024,-1.5664,-1.6492,-1.6367,-1.6085,-1.6075,-1.6075,-1.5938,-1.5488,-1.541,-1.569,-1.6407,-1.6521,0.0,-1.755,-1.7633,-1.7633,-1.766,-1.8313,-1.8741,-1.8741,-1.9397,-1.9798,-1.9773,-1.9773,-1.9773,-1.9773,-1.9271,-1.9008,-1.902,-1.8505,-1.8469,-1.9008,0.0,0.0,0.0,0.0,0.0,0.0,0.0,0.0,0.0,0.0,0.0,0.0,0.0,0.0,0.0,0.0,0.0,0.0,0.0,0.0,0.0,0.0,-0.5681,-0.5681,-0.5979,-0.6259,-0.632,-0.7716,-0.8586,-0.8341,-1.0462,-1.1793,-1.167,-1.2596,-1.334,-1.3586,-1.368,-1.3868,-1.4082,-1.4088,-1.4088,-1.4088,-1.4088,-1.4048,-1.3961,-1.3614,-1.3665,-1.4082,-1.4007,-1.4776,-1.6219,-1.6498,-1.7139,-1.8008,-1.8008,-1.8008,-1.8008,-1.8008,-1.8008,-1.8008,-1.8008,-1.8008,-1.8008,-1.8008,-1.8008,-1.8008,-1.8008,-1.8008,-1.7988,-1.7871,-1.7842,-1.7744,-1.7324,-1.6973,-1.6629,-1.6328,-1.5918,-1.5703,-1.6173,-1.6095,-1.5977,-1.6222,-1.6183,-1.5997,-1.5654,-1.5586,-1.5557,-1.543,-1.5835,-1.6265,-1.6464,0.0,0.0,-1.8313,-1.8394,-1.8608,-1.915,-1.9371,-1.9501,-1.9501,-1.9683,-1.9635,0.0,-1.9221,-1.9221,-1.9221,-1.9083,-1.9183,-1.9572,-1.9045,-1.8857,0.0,0.0,0.0,0.0,0.0,0.0,0.0,0.0,0.0,0.0,0.0,0.0,0.0,0.0,0.0,0.0,0.0,0.0,0.0,0.0,0.0,0.0,-0.5647,-0.5918,-0.5986,-0.6187,-0.633,-0.6412,-0.7442,-0.8093,-0.7943,-0.9984,-1.1227,-1.1036,-1.2254,-1.3146,-1.3407,-1.354,-1.374,-1.4075,-1.4088,-1.4088,-1.4088,-1.3968,-1.3901,-1.3895,-1.3434,-1.3447,-1.3863,-1.4305,-1.5052,0.0,-1.6862,-1.7501,-1.8008,-1.8008,-1.8008,0.0,0.0,0.0,0.0,0.0,-1.79,-1.7744,-1.7744,-1.7744,-1.7744,-1.7744,-1.7871,-1.8008,-1.8008,-1.8008,-1.793,-1.75,-1.707,-1.6599,-1.6212,-1.5732,-1.5478,-1.5732,-1.5821,-1.588,-1.6197,-1.6256,-1.6293,-1.6296,0.0,0.0,-1.633,-1.6425,-1.6708,-1.733,-1.7797,-1.834,0.0,-1.9176,-1.9307,-1.9747,-1.9798,-1.9798,-1.9798,-1.9798,0.0,0.0,0.0,-1.9221,-1.9008,-1.9008,0.0,0.0,0.0,0.0,0.0,0.0,0.0,0.0,-2.0867,-2.1245,0.0,0.0,0.0,0.0,0.0,0.0,0.0,0.0,0.0,0.0,0.0,0.0,0.0,0.0,0.0,0.0,-0.5864,-0.6105,-0.6279,-0.6286,-0.6279,-0.6296,-0.7099,-0.7633,-0.7633,-0.9437,-1.064,-1.064,-1.1923,-1.2884,-1.3193,0.0,0.0,0.0,0.0,-1.4075,-1.4041,-1.3733,-1.3586,-1.3547,-1.33,-1.3091,-1.3006,-1.4774,-1.546,-1.5446,-1.7226,-1.8008,-1.8008,-1.8008,-1.8008,-1.8008,-1.8008,-1.7978,-1.7939,-1.7939,-1.7676,0.0,0.0,0.0,0.0,-1.7363,-1.7637,-1.7949,-1.7998,-1.7978,-1.7852,-1.7432,-1.6992,-1.6553,-1.6134,-1.5703,-1.541,-1.541,-1.541,-1.5584,-1.6236,-1.6394,-1.6606,-1.7252,-1.7389,-1.7438,-1.7546,-1.7098,-1.7202,-1.8489,-1.8768,0.0,-1.9721,-1.9798,-1.9798,-1.9798,0.0,0.0,-1.9798,-1.9798,-1.9798,-1.9798,-1.9798,-1.9597,-1.9108,-1.9096,-1.9096,-1.9096,-1.9096,-1.9309,-1.9798,-2.0878,-2.1207,-2.0792,-2.0918,-2.1443,0.0,0.0,0.0,0.0,0.0,0.0,0.0,0.0,0.0,0.0,0.0,0.0,0.0,0.0,0.0,-0.5739,-0.6017,-0.6265,-0.6296,-0.6152,-0.6122,-0.6286,-0.649,-0.6606,-0.6606,-0.8428,-0.9593,-0.9593,-1.1334,-1.2632,-1.318,-1.3267,0.0,-1.4068,-1.4088,-1.3975,-1.3693,-1.3633,-1.3487,-1.3287,0.0,0.0,-1.3976,-1.486,-1.5647,-1.6393,-1.7501,-1.8008,-1.8008,-1.8008,-1.8008,-1.8008,-1.8008,-1.7803,-1.75,-1.75,-1.7236,-1.6824,-1.6824,-1.6824,-1.6882,-1.7275,-1.7441,-1.7568,-1.791,-1.7773,0.0,-1.695,-1.6533,-1.6124,-1.5654,-1.5478,-1.541,-1.541,-1.541,-1.5439,-1.5575,-1.5751,-1.5911,-1.6037,-1.62,-1.6497,-1.708,-1.7792,-1.8367,-1.8661,-1.9202,-1.9643,-1.9773,-1.9798,-1.9798,-1.9798,-1.9798,-1.9798,-1.9798,-1.9798,-1.9798,-1.9798,-1.9798,-1.9761,-1.966,-1.966,-1.966,-1.966,-1.966,-1.9698,-1.9798,-2.0515,-2.1018,-2.1383,-2.2246,-2.2506,0.0,0.0,0.0,0.0,0.0,0.0,0.0,0.0,0.0,0.0,0.0,-0.342,-0.4388,0.0,-0.5742,-0.5891,-0.6044,-0.6146,-0.6146,-0.6013,-0.5973,-0.6129,-0.6146,-0.6146,-0.6146,-0.7613,-0.8765,-0.9258,-1.0683,-1.196,-1.2953,-1.3126,-1.3414,-1.3854,-1.4008,-1.3941,-1.3606,-1.346,-1.328,-1.3012,-1.271,-1.2818,-1.3289,-1.4601,-1.5446,-1.5965,-1.7398,-1.8008,-1.8008,-1.8008,-1.7881,-1.7695,-1.7695,-1.7568,-1.7363,-1.7139,-1.6777,-1.6396,-1.6396,-1.6396,-1.6436,-1.6682,-1.7054,-1.7383,-1.7373,-1.7373,-1.7295,-1.6824,-1.6406,-1.6046,-1.5791,-1.586,-1.595,-1.595,-1.6216,-1.6539,-1.6628,-1.6741,-1.6826,-1.6925,-1.7037,-1.723,-1.7581,-1.8105,-1.8459,-1.8459,-1.8772,-1.9007,-1.9007,-1.9007,-1.9108,-1.9359,-1.9384,-1.9384,-1.9384,-1.9384,-1.9497,-1.9786,-1.9798,-1.9798,-1.9798,-1.9798,-1.9798,-1.9798,-1.9798,-1.9798,-1.9798,-2.0415,-2.0981,-2.1506,-2.2305,-2.2694,0.0,0.0,0.0,0.0,0.0,0.0,0.0,0.0,-0.0206,-0.0977,-0.1978,-0.2986,-0.3917,-0.5037,-0.5861,-0.6044,-0.6013,-0.5993,-0.5993,-0.5874,-0.5806,-0.5892,-0.5932,-0.5959,-0.599,-0.7036,-0.8159,-0.9221,-1.0228,-1.1396,-1.2726,-1.2986,-1.3253,-1.3507,-1.3794,-1.3774,-1.3433,-1.324,-1.2966,-1.2697,-1.2418,-1.2305,-1.2372,-1.4127,-1.4914,-1.5021,-1.6814,-1.7702,-1.7881,-1.7793,-1.7559,-1.7246,-1.7191,-1.7161,-1.7112,-1.6728,-1.6318,-1.5968,-1.5968,-1.5968,-1.5977,-1.6065,-1.6574,-1.708,-1.6775,-1.6924,-1.7051,-1.6699,-1.6279,-1.5968,-1.5968,-1.6135,-1.6293,-1.6293,-1.6774,-1.7267,-1.7456,-1.7522,-1.7625,-1.7808,-1.7859,-1.7877,-1.7877,-1.7877,-1.7953,-1.8179,-1.8204,-1.8204,-1.8204,-1.8204,-1.838,-1.8795,-1.8845,-1.8895,-1.8995,-1.9008,-1.9221,-1.9773,-1.9798,-1.9798,-1.9798,-1.9798,-1.9798,-1.9798,-1.9798,-1.9798,-1.9798,-2.0302,-2.0817,-2.137,-2.1895,-2.2498,0.0,0.0,0.0,0.0,0.0,0.0,0.0,0.0,-0.0237,-0.1097,-0.204,-0.3054,-0.4217,-0.5197,-0.5898,-0.6228,-0.6122,-0.5993,-0.5993,-0.5789,-0.562,-0.5637,-0.5749,-0.5881,-0.5979,-0.6927,-0.8044,-0.9205,-1.0228,-1.1396,-1.2726,-1.2817,-1.2978,-1.3253,-1.3293,-1.316,-1.2891,-1.2851,-1.2683,-1.2351,-1.2318,-1.2305,-1.2335,-1.3382,-1.3882,-1.3939,-1.5463,-1.6631,-1.7422,-1.7009,-1.6814,-1.6736,-1.6367,-1.6242,-1.6232,-1.6183,-1.5859,-1.5488,-1.5488,-1.5488,-1.5547,-1.5968,-1.6163,-1.631,-1.6599,-1.6494,-1.6232,-1.6183,-1.582,-1.5488,-1.5488,-1.5508,-1.5526,-1.5526,-1.5731,-1.592,-1.5949,-1.6233,-1.648,-1.6503,-1.6612,-1.6688,-1.6688,-1.6688,-1.7027,-1.8053,-1.8204,-1.8204,-1.8204,-1.8204,-1.8229,-1.8292,-1.8292,-1.8469,-1.8958,-1.9008,-1.9221,-1.9773,-1.9798,-1.9798,-1.9798,-1.9798,-1.9798,-1.9798,-1.9798,-1.9798,-1.9798,-1.9874,-2.02,-2.0792,-2.1358,-2.2133,0.0,0.0,0.0,0.0,0.0,0.0,0.0,0.0,-0.0089,-0.046,-0.1261,-0.2067,-0.2699,-0.4051,-0.5098,0.0,-0.5659,-0.5895,-0.5895,-0.5644,-0.5491,-0.5491,-0.5589,-0.5735,-0.5881,-0.6342,-0.7131,-0.8338,-0.9367,-1.0423,-1.1558,-1.238,-1.2844,-1.2971,-1.312,-1.306,-1.279,-1.2784,-1.2636,-1.2305,-1.2305,-1.2305,-1.2342,-1.3273,-1.4162,-1.5024,-1.546,-1.6179,-1.6992,-1.6775,-1.6541,-1.6328,-1.6163,-1.5938,-1.5684,-1.5684,-1.5566,-1.541,-1.541,-1.541,-1.5439,-1.5625,-1.5889,-1.6075,-1.5986,-1.6016,-1.6036,-1.5782,-1.5557,-1.541,-1.541,-1.5729,-1.6036,-1.6036,-1.6237,-1.6468,-1.6509,-1.6436,-1.637,-1.64,-1.6455,-1.65,-1.65,-1.65,-1.6651,-1.7127,-1.7202,-1.7202,-1.7202,-1.7202,-1.735,-1.7689,-1.7727,-1.7953,-1.8481,-1.8254,-1.8442,-1.9271,-1.9321,-1.9459,-1.9798,-1.9798,-1.9798,-1.9798,-1.9798,-1.9798,-1.9798,-1.9798,-2.01,-2.0704,-2.093,-2.143,0.0,0.0,0.0,0.0,0.0,0.0,0.0,0.0,0.0,0.0,-0.0686,-0.136,-0.1573,-0.2942,-0.4194,-0.4596,-0.5032,-0.5454,-0.5706,-0.5559,-0.5412,-0.5453,-0.5556,-0.5661,-0.5847,-0.5925,-0.6455,-0.7689,-0.8393,-0.9341,-1.074,-1.1702,-1.235,-1.2656,-1.2839,-1.2852,-1.2663,-1.2663,-1.2556,-1.2305,-1.2305,-1.2258,-1.2214,-1.3057,-1.413,-1.5417,-1.533,-1.575,-1.6502,-1.6385,-1.6172,-1.5919,-1.5919,-1.5693,-1.541,-1.541,-1.541,-1.541,-1.541,-1.541,-1.541,-1.541,-1.5625,-1.585,-1.5508,-1.5635,-1.585,-1.5498,-1.541,-1.5439,-1.5642,-1.6093,-1.6507,-1.6567,-1.6822,-1.7005,-1.6892,-1.6633,-1.6449,-1.6476,-1.65,-1.65,-1.65,-1.65,-1.65,-1.65,-1.65,-1.65,-1.65,-1.65,-1.6663,-1.7099,-1.7137,-1.7375,-1.7928,-1.7614,-1.779,-1.8719,-1.877,-1.9008,-1.9572,-1.9585,-1.966,-1.9798,-1.9798,-1.9798,-1.9798,-1.9798,-2.0012,-2.0465,-2.0616,-2.0905,0.0,0.0,0.0,0.0,0.0,0.0,0.0,0.0,0.0,0.0,-0.0695,-0.135,-0.1561,-0.2348,-0.3279,-0.4352,-0.4368,-0.4576,-0.5492,-0.5494,-0.545,-0.5566,-0.5586,-0.5705,0.0,-0.5891,-0.6368,-0.7715,-0.7509,-0.8353,-1.0685,-1.0718,-1.1179,-1.2268,-1.2325,-1.2325,-1.2318,-1.2318,-1.2311,-1.2305,-1.2305,-1.2151,-1.1942,-1.2481,-1.3266,-1.418,-1.4547,-1.5269,-1.6075,-1.5625,-1.542,-1.543,-1.543,-1.542,-1.541,-1.541,-1.541,-1.541,-1.541,-1.541,-1.541,-1.541,-1.542,-1.543,-1.5391,-1.542,-1.543,-1.5391,-1.541,-1.5555,-1.6293,-1.6492,-1.6536,-1.6746,-1.6945,-1.6953,-1.6433,-1.6412,-1.6491,-1.65,-1.65,-1.65,-1.65,-1.65,-1.65,-1.65,-1.65,-1.65,-1.65,-1.65,-1.65,-1.6525,-1.6525,-1.6773,-1.7373,-1.741,-1.7649,-1.8191,-1.8229,-1.8456,-1.9008,-1.902,-1.9259,-1.9798,-1.9798,-1.9798,-1.9798,-1.9798,-1.9811,-1.9849,-2.0427,-2.0704,0.0,0.0,0.0,0.0,0.0,0.0,0.0,0.0,0.0,0.0,-0.0238,-0.0454,-0.0536,-0.1374,-0.2157,-0.2504,-0.3503,-0.4327,-0.4642,-0.5161,-0.5532,-0.5586,-0.5762,0.0,0.0,0.0,0.0,-0.6769,-0.7211,-0.7835,-0.8746,-1.0038,-1.0923,-1.1273,-1.1959,-1.2204,-1.2053,-1.2204,-1.2204,-1.2011,-1.2011,-1.1857,-1.1563,-1.1573,-1.2339,-1.3638,-1.3596,-1.4351,-1.5615,-1.5469,-1.541,-1.541,-1.541,-1.541,-1.541,-1.541,-1.541,-1.541,-1.541,-1.541,-1.541,-1.541,-1.541,-1.541,-1.541,-1.541,-1.541,-1.541,-1.541,-1.5468,-1.57,-1.6122,-1.6434,-1.6152,-1.6291,-1.6464,-1.6315,-1.6083,-1.603,-1.6423,-1.65,-1.65,-1.65,-1.65,-1.65,-1.65,-1.65,-1.65,-1.65,-1.65,-1.65,-1.65,-1.65,-1.6575,-1.6798,-1.681,-1.7049,-1.7614,-1.7664,-1.7903,-1.8455,-1.8456,-1.8555,-1.8744,-1.9083,-1.9259,-1.9259,-1.9635,-1.9798,-1.9811,-1.9999,-2.0087,0.0054,0.0,0.0,0.0,0.0,0.0,0.0,0.0,0.0,0.0,0.0,0.0,0.0,-0.0563,-0.1129,-0.1449,-0.2447,-0.3413,-0.4107,-0.4711,-0.5275,-0.5696,-0.5878,-0.6013,0.0,0.0,0.0,-0.6279,-0.6656,-0.7114,-0.7668,-0.9163,-1.0185,-1.0555,-1.1473,-1.1897,-1.171,-1.1897,-1.1897,-1.171,-1.1603,-1.1456,-1.1263,-1.129,-1.1998,-1.3268,-1.3375,-1.4183,-1.541,-1.541,-1.541,-1.541,-1.541,-1.541,-1.541,-1.541,-1.541,-1.541,-1.541,-1.541,-1.541,-1.541,-1.541,-1.541,-1.541,-1.541,-1.541,-1.541,-1.541,-1.5487,-1.5794,-1.6259,-1.6569,-1.6365,-1.648,-1.6573,-1.6415,-1.613,-1.603,-1.6423,-1.65,-1.65,-1.65,-1.65,-1.65,-1.65,-1.65,-1.65,-1.65,-1.65,-1.65,-1.65,-1.65,-1.65,-1.65,-1.65,-1.6672,-1.7049,-1.7074,-1.7325,-1.789,-1.7903,-1.8003,-1.8204,-1.8531,-1.8707,-1.8707,-1.9233,-1.9497,-1.9522,-1.971,-1.9798,0.0221,0.0028,0.0,0.0,0.0,0.0,0.0,0.0,0.0,0.0,0.0,0.0,0.0,0.0,-0.0271,-0.1115,-0.1256,-0.1939,-0.3776,-0.4156,-0.4632,0.0,0.0,0.0,0.0,0.0,0.0,-0.6289,0.0,-0.6273,-0.7389,-0.8157,-0.8996,-1.0014,-1.0873,-1.1348,-1.1369,-1.1369,-1.1369,-1.1369,-1.1122,-1.0982,-1.0995,-1.1512,-1.2174,-1.2978,-1.3786,-1.4599,-1.5352,-1.5381,-1.541,-1.541,-1.541,-1.541,-1.541,-1.541,-1.541,-1.541,-1.541,-1.541,-1.541,-1.541,-1.541,-1.541,-1.541,-1.541,-1.541,-1.541,-1.5439,-1.5648,-1.652,-1.6788,-1.6943,-1.728,-1.7375,-1.7225,-1.6635,-1.65,-1.65,-1.65,-1.65,-1.65,-1.65,-1.65,-1.65,-1.65,-1.65,-1.65,-1.65,-1.65,-1.65,-1.65,-1.65,-1.65,-1.65,-1.65,-1.65,-1.65,-1.65,-1.6773,-1.7335,-1.736,-1.7589,-1.8103,-1.8141,-1.8166,-1.8166,-1.8694,-1.897,-1.9008,-1.9509,-1.9773,0.0853,0.0423,0.0,0.0,0.0,0.0,0.0,0.0,0.0,0.0,0.0,0.0,0.0,0.0,0.0,-0.028,-0.0873,0.0,-0.1979,-0.3403,0.0,-0.4838,0.0,-0.6255,-0.6296,-0.6265,0.0,0.0,-0.6081,-0.6149,-0.6569,-0.7344,-0.8179,-0.9114,-0.9985,-1.0663,-1.1102,-1.1102,-1.1102,-1.1102,-1.1029,-1.0914,-1.07,-1.0841,-1.1351,-1.2143,-1.297,-1.3756,-1.454,-1.5138,-1.541,-1.541,-1.541,-1.541,-1.541,-1.541,-1.541,-1.541,-1.541,-1.541,-1.541,-1.541,-1.541,-1.541,-1.541,-1.541,-1.541,-1.541,-1.5806,-1.619,-1.6027,-1.6788,-1.7441,-1.6741,-1.6999,-1.7225,-1.6635,-1.65,-1.65,-1.65,-1.65,-1.65,-1.65,-1.65,-1.65,-1.65,-1.65,-1.65,-1.65,-1.65,-1.65,-1.65,-1.65,-1.65,-1.65,-1.65,-1.65,-1.65,-1.65,-1.6563,-1.6713,-1.6735,-1.6789,-1.6926,-1.7375,-1.7612,-1.7624,-1.8141,-1.8607,-1.9008,-1.9146,-1.9409,0.1154,0.0717,0.0336,0.0076,0.0,0.0,0.0,0.0,0.0,0.0,0.0,0.0,0.0,0.0,0.0,0.0,0.0,0.0,-0.1379,-0.2469,-0.3573,0.0,-0.5192,0.0,-0.6261,-0.6238,-0.6159,0.0,-0.6142,-0.6112,-0.6098,-0.6886,-0.7507,-0.7852,-0.9078,-1.0097,-1.0802,-1.0834,-1.0834,-1.0834,-1.0834,-1.0754,-1.0593,-1.0593,-1.1233,-1.2358,0.0,-1.3666,-1.4746,-1.5196,-1.541,-1.541,-1.541,-1.541,-1.541,-1.541,-1.541,-1.541,-1.541,-1.541,-1.541,-1.541,-1.541,-1.541,-1.541,-1.541,-1.541,-1.541,-1.5561,-1.5695,-1.549,-1.6089,-1.6623,-1.6103,-1.6506,-1.6911,-1.6563,-1.65,-1.65,-1.65,-1.65,-1.65,-1.65,-1.65,-1.65,-1.65,-1.65,-1.65,-1.65,-1.65,-1.65,-1.65,-1.65,-1.65,-1.65,-1.65,-1.65,-1.65,-1.65,-1.65,-1.65,-1.65,-1.65,-1.65,-1.6835,-1.6999,-1.6999,-1.7564,-1.8003,-1.8304,-1.8531,-1.8819,0.1461,0.11,0.0875,0.0275,0.0129,0.0106,0.0027,0.0,0.0,0.0,0.0,0.0,0.0,0.0,0.0,0.0,0.0,-0.0309,-0.127,-0.1527,-0.2285,-0.4092,-0.4518,-0.5054,-0.5957,-0.6013,-0.5963,-0.5963,-0.6125,-0.6122,-0.5817,-0.6489,-0.6883,-0.6859,-0.8581,-0.9824,-1.0593,-1.0593,-1.0593,-1.0593,-1.0593,-1.0573,-1.0533,-1.0533,-1.1293,-1.2631,0.0,0.0,-1.5108,-1.5323,-1.541,-1.541,-1.541,-1.541,-1.541,-1.541,-1.541,-1.5371,-1.5352,-1.5322,-1.5342,-1.5391,-1.541,-1.54,-1.5342,-1.5322,-1.5312,-1.5264,-1.5065,-1.4892,-1.4971,-1.5167,-1.5363,-1.555,-1.6008,-1.6402,-1.6466,-1.65,-1.65,-1.65,-1.65,-1.65,-1.65,-1.65,-1.65,-1.65,-1.65,-1.65,-1.65,-1.65,-1.65,-1.65,-1.65,-1.65,-1.65,-1.65,-1.65,-1.65,-1.65,-1.65,-1.65,-1.65,-1.65,-1.65,-1.65,-1.65,-1.65,-1.7024,-1.7322,-1.741,-1.7877,-1.8129,0.2606,0.2108,0.1488,0.0889,0.0735,0.0612,0.0106,0.0,0.0,0.0,0.0,0.0,0.0,0.0,0.0,0.0,0.0,0.0,0.0,0.0,-0.1715,0.0,0.0,0.0,0.0,0.0,0.0,0.0,0.0,0.0,-0.5803,-0.5832,-0.6457,-0.7739,-0.9454,-1.0466,-1.0593,-1.0593,-1.0593,-1.0593,-1.0593,-1.0459,-1.0194,-1.0194,-1.034,-1.0667,0.0,0.0,-1.3515,-1.4835,-1.541,-1.541,-1.541,-1.541,-1.541,-1.541,-1.541,-1.5361,-1.501,-1.4893,-1.4951,-1.5293,-1.541,-1.5352,-1.5,-1.4893,-1.4814,-1.4426,-1.4707,-1.505,-1.4641,-1.5007,-1.5493,-1.5572,-1.5676,-1.5886,-1.6402,-1.65,-1.65,-1.65,-1.65,-1.65,-1.65,-1.65,-1.65,-1.65,-1.65,-1.65,-1.65,-1.65,-1.65,-1.65,-1.65,-1.65,-1.65,-1.65,-1.65,-1.65,-1.65,-1.65,-1.65,-1.65,-1.65,-1.65,-1.65,-1.65,-1.65,-1.66,-1.6911,-1.741,-1.7511,-1.7765,0.287,0.2548,0.2148,0.1607,0.1465,0.1403,0.1189,0.0,0.0,0.0,0.028,0.0,0.0,0.0,0.0,0.0,0.0,0.0,0.0,0.0,0.0,0.0,0.0,0.0,0.0,0.0,0.0,0.0,0.0,0.0,-0.5688,-0.5586,-0.6264,-0.7934,-0.8646,-0.9438,-1.0327,-1.0211,-1.0137,-1.0137,-1.0137,-1.0057,-0.9893,-0.9893,-1.0116,-1.0573,-1.138,0.0,-1.3104,-1.3884,-1.4401,-1.4718,-1.4718,-1.4718,-1.4718,-1.4718,-1.4718,-1.4689,-1.4484,-1.4453,-1.4482,-1.465,-1.4718,-1.4679,-1.4475,-1.4453,-1.4404,-1.4163,-1.4202,-1.4338,-1.4389,-1.4733,-1.5175,-1.5513,-1.5842,-1.6139,-1.6445,-1.65,-1.65,-1.65,-1.65,-1.65,-1.65,-1.65,-1.65,-1.65,-1.65,-1.65,-1.65,-1.65,-1.65,-1.65,-1.65,-1.65,-1.65,-1.65,-1.65,-1.65,-1.65,-1.65,-1.65,-1.65,-1.65,-1.65,-1.65,-1.65,-1.65,-1.65,-1.6638,-1.6936,-1.6936,-1.7074,0.3012,0.2898,0.2777,0.2302,0.2189,0.2186,0.2202,0.1752,0.0,0.0,0.0867,0.0476,0.0476,0.0,0.0237,0.0,0.0,0.0,0.0,0.0,0.0,0.0,0.0,0.0,0.0,0.0,0.0,0.0,0.0,0.0,-0.5569,-0.5593,-0.6249,-0.7601,-0.7705,-0.839,-0.9773,-0.9734,-0.9715,-0.9715,-0.9715,-0.9653,-0.9586,-0.9586,-0.9945,-1.0547,-1.0877,0.0,0.0,-1.3195,-1.3611,-1.4104,-1.4104,-1.4104,-1.4104,-1.4104,-1.4104,-1.4094,-1.4007,-1.3968,-1.3958,-1.387,-1.3958,-1.4085,-1.3997,-1.3968,-1.3948,-1.386,-1.3633,-1.3485,-1.3955,-1.4281,-1.4698,-1.5432,-1.6051,-1.65,-1.65,-1.65,-1.65,-1.65,-1.65,-1.65,-1.65,-1.65,-1.65,-1.65,-1.65,-1.65,-1.65,-1.65,-1.65,-1.65,-1.65,-1.65,-1.65,-1.65,-1.65,-1.65,-1.65,-1.65,-1.65,-1.65,-1.65,-1.65,-1.65,-1.65,-1.65,-1.65,-1.65,-1.65,-1.65,-1.65,0.3534,0.3512,0.3394,0.2944,0.2806,0.2711,0.2296,0.0,0.0,0.2093,0.2035,0.2009,0.2009,0.1455,0.0,0.0,0.0,0.0,0.0,0.0,0.0,0.0,0.0,0.0,0.0,0.0,0.0,0.0,0.0,0.0,0.0,-0.5972,-0.6381,-0.6535,-0.7809,-0.8587,-0.8734,-0.9366,-0.9715,-0.9715,-0.9715,-0.9546,-0.9251,-0.9251,-0.9279,-0.9438,0.0,0.0,0.0,-1.3467,-1.4051,-1.4104,-1.4104,-1.4104,-1.4104,-1.4104,-1.4104,-1.4055,-1.3665,-1.3564,-1.3496,-1.3125,-1.3516,-1.4036,-1.3682,-1.3564,-1.3486,-1.3105,-1.2993,-1.2964,-1.3027,-1.345,-1.4179,-1.5343,-1.6051,-1.65,-1.65,-1.65,-1.65,-1.65,-1.65,-1.65,-1.65,-1.65,-1.65,-1.65,-1.65,-1.65,-1.65,-1.65,-1.65,-1.65,-1.65,-1.65,-1.65,-1.65,-1.65,-1.65,-1.65,-1.65,-1.65,-1.65,-1.65,-1.65,-1.65,-1.65,-1.65,-1.65,-1.65,-1.65,-1.65,-1.65,0.3604,0.3604,0.3604,0.3575,0.3568,0.3558,0.3569,0.0,0.2871,0.2926,0.2538,0.2202,0.2202,0.1952,0.1605,0.0,0.0847,0.052,0.0072,0.0,0.0,0.0,0.0,0.0,0.0,0.0,0.0,0.0,0.0,0.0,0.0,-0.5481,-0.5852,-0.6383,-0.7166,-0.7822,-0.8349,-0.8905,-0.9158,-0.9158,-0.9158,-0.9092,-0.8951,-0.8951,-0.8951,-0.9005,0.0,0.0,0.0,-1.2318,-1.2985,-1.3379,-1.3379,-1.3379,-1.3379,-1.3379,-1.3379,-1.335,-1.3184,-1.3135,-1.3105,-1.2964,-1.3105,-1.335,-1.3184,-1.3135,-1.3096,-1.2954,-1.3152,-1.3539,-1.3884,-1.4698,-1.5555,-1.603,-1.6337,-1.65,-1.65,-1.65,-1.65,-1.65,-1.65,-1.65,-1.65,-1.65,-1.65,-1.65,-1.65,-1.65,-1.65,-1.65,-1.65,-1.65,-1.65,-1.65,-1.65,-1.65,-1.65,-1.65,-1.65,-1.65,-1.65,-1.65,-1.65,-1.65,-1.65,-1.65,-1.65,-1.65,-1.65,-1.65,-1.65,-1.65,0.3614,0.3631,0.3704,0.3933,0.4028,0.4129,0.0,0.407,0.3677,0.3707,0.3289,0.2871,0.2871,0.2676,0.2358,0.0,0.1376,0.0919,0.0412,0.0,0.0,0.0,0.0,0.0,0.0,0.0,0.0,0.0,0.0,0.0,0.0,-0.5015,-0.5277,-0.5885,-0.6283,-0.6893,-0.7716,-0.8222,-0.8593,-0.8804,-0.8804,-0.8804,-0.8804,-0.8804,-0.8804,-0.8831,0.0,0.0,0.0,-1.145,-1.2113,-1.2608,-1.2798,-1.2905,-1.2905,-1.2905,-1.2905,-1.2905,-1.2905,-1.2905,-1.2905,-1.2905,-1.2905,-1.2905,-1.2905,-1.2905,-1.2905,-1.2905,-1.3324,-1.3933,-1.4537,-1.5466,-1.6281,-1.6457,-1.65,-1.65,-1.65,-1.65,-1.65,-1.65,-1.65,-1.65,-1.65,-1.65,-1.65,-1.65,-1.65,-1.65,-1.65,-1.65,-1.65,-1.65,-1.65,-1.65,-1.65,-1.65,-1.65,-1.65,-1.65,-1.65,-1.65,-1.65,-1.65,-1.65,-1.65,-1.65,-1.65,-1.65,-1.65,-1.65,-1.65,-1.65,0.3641,0.3706,0.3826,0.3957,0.4109,0.4257,0.0,0.4491,0.4491,0.4491,0.4491,0.4487,0.4487,0.3818,0.3296,0.3292,0.2047,0.11,0.1101,0.0,0.0,0.0,0.0,0.0,0.0,0.0,0.0,0.0,0.0,0.0,0.0,-0.4853,-0.4697,-0.4723,-0.523,-0.5873,-0.662,-0.7343,-0.8076,-0.8804,-0.8804,-0.8804,-0.8804,-0.8804,-0.8804,0.0,0.0,0.0,0.0,-1.1242,-1.1792,-1.1888,-1.2608,-1.2905,-1.2905,-1.2905,-1.2905,-1.2905,-1.2905,-1.2905,-1.2905,-1.2905,-1.2905,-1.2905,-1.2905,-1.2905,-1.2905,-1.2905,-1.3324,-1.3933,-1.4537,-1.5141,-1.5764,-1.6358,-1.65,-1.65,-1.65,-1.65,-1.65,-1.65,-1.65,-1.65,-1.65,-1.65,-1.65,-1.65,-1.65,-1.65,-1.65,-1.65,-1.65,-1.65,-1.65,-1.65,-1.65,-1.65,-1.65,-1.65,-1.65,-1.65,-1.65,-1.65,-1.65,-1.65,-1.65,-1.65,-1.65,-1.65,-1.65,-1.65,-1.65,-1.65,0.3894,0.3914,0.396,0.4112,0.416,0.426,0.4457,0.4491,0.4491,0.4491,0.4491,0.4522,0.4627,0.4363,0.4032,0.383,0.0,0.0,0.0,0.0,0.0,0.0,0.0,0.0,0.0,0.0,0.0,0.0,0.0,0.0,0.0,-0.4741,-0.4691,-0.4691,-0.523,-0.5846,-0.6588,-0.7343,-0.8076,-0.8804,-0.8804,-0.8804,-0.8804,-0.8804,0.0,0.0,0.0,0.0,0.0,-1.0745,-1.14,-1.1814,-1.2055,-1.2452,-1.2905,-1.2905,-1.2905,-1.2905,-1.2905,-1.2905,-1.2905,-1.2905,-1.2905,-1.2905,-1.2905,-1.2905,-1.3065,-1.3907,-1.4271,-1.4652,-1.5678,-1.6086,-1.6259,-1.6445,-1.65,-1.65,-1.65,-1.65,-1.65,-1.65,-1.65,-1.65,-1.65,-1.65,-1.65,-1.65,-1.65,-1.65,-1.65,-1.65,-1.65,-1.65,-1.65,-1.65,-1.65,-1.65,-1.65,-1.65,-1.65,-1.65,-1.65,-1.65,-1.65,-1.65,-1.65,-1.668,-1.7055,-1.668,-1.65,-1.65,-1.65,-1.65,0.0,0.4038,0.4102,0.417,0.4264,0.4351,0.447,0.4491,0.4491,0.4491,0.4535,0.4607,0.4674,0.466,0.4578,0.4359,0.0,0.0,0.0,0.0,0.0,0.0,0.0,0.0,0.0,0.0,0.0,0.0,0.0,0.0,0.0,0.0,-0.4634,-0.4634,-0.4949,-0.5464,-0.6177,-0.6907,-0.767,-0.8401,-0.8672,-0.8804,-0.8804,-0.8804,0.0,0.0,0.0,0.0,0.0,-1.0141,-1.0813,-1.1441,-1.169,-1.2236,-1.2905,-1.2905,-1.2905,-1.2905,-1.2905,-1.2905,-1.2905,-1.2905,-1.2905,-1.2905,-1.2905,-1.2905,-1.3065,-1.3813,-1.434,-1.4858,-1.5634,-1.6163,-1.65,-1.65,-1.65,-1.65,-1.65,-1.65,-1.65,-1.65,-1.65,-1.65,-1.65,-1.65,-1.65,-1.65,-1.65,-1.65,-1.65,-1.65,-1.65,-1.65,-1.65,-1.65,-1.65,-1.65,-1.65,-1.65,-1.65,-1.65,-1.65,-1.65,-1.65,-1.65,-1.65,-1.6659,-1.6993,-1.6659,-1.65,-1.65,-1.65,-1.65,0.0,0.4129,0.421,0.421,0.4365,0.4491,0.4491,0.4491,0.0,0.4491,0.461,0.4697,0.4718,0.483,0.4904,0.4945,0.0,0.0,0.0,0.0,0.0,0.0,0.0,0.0,0.0,0.0,0.0,0.0,0.0,0.0,0.0,0.0,-0.4491,-0.4491,-0.4491,-0.4842,-0.5569,-0.6258,-0.6993,-0.7777,-0.848,-0.8804,-0.8804,-0.8804,0.0,0.0,0.0,0.0,0.0,-0.9458,-1.0141,-1.0864,-1.1491,-1.2212,-1.2905,-1.2905,-1.2905,-1.2905,-1.2905,-1.2905,-1.2905,-1.2905,-1.2905,-1.2905,-1.2905,-1.2905,-1.2905,-1.2954,-1.3776,-1.4663,-1.4744,-1.5611,-1.6457,-1.65,-1.65,-1.65,-1.65,-1.65,-1.65,-1.65,-1.65,-1.65,-1.65,-1.65,-1.65,-1.65,-1.65,-1.65,-1.65,-1.65,-1.65,-1.65,-1.65,-1.65,-1.65,-1.65,-1.65,-1.65,-1.65,-1.65,-1.65,-1.65,-1.65,-1.65,-1.6531,-1.6531,-1.65,-1.6531,-1.6531,-1.65,-1.65,-1.65,0.4406,0.0,0.444,0.444,0.4464,0.4491,0.0,0.4491,0.4491,0.4491,0.0,0.4758,0.4955,0.4938,0.5036,0.0,0.0,0.0,0.0,0.0,0.0,0.0,0.0,0.0,0.0,0.0,0.0,0.0,0.0,0.0,0.0,0.0,-0.4491,-0.4491,-0.4491,-0.5089,-0.634,-0.6507,-0.7262,-0.8533,-0.8725,-0.8804,-0.8804,-0.8804,0.0,0.0,0.0,0.0,-0.8804,-0.8982,-0.9736,-1.0813,-1.0965,-1.1792,-1.2905,-1.2905,-1.2905,-1.2905,-1.2905,-1.2905,-1.2905,-1.2905,-1.2905,-1.2905,-1.2905,-1.2905,-1.3002,-1.3467,-1.3779,-1.4213,-1.5141,-1.5588,-1.593,-1.6402,-1.65,-1.65,-1.65,-1.65,-1.65,-1.65,-1.65,-1.65,-1.65,-1.65,-1.65,-1.65,-1.65,-1.65,-1.65,-1.65,-1.65,-1.65,-1.65,-1.65,-1.65,-1.65,-1.65,-1.65,-1.65,-1.65,-1.65,-1.65,-1.65,-1.65,-1.6888,-1.6909,-1.65,-1.6909,-1.6888,-1.65,-1.65,-1.65,0.4491,0.4491,0.4491,0.4491,0.4491,0.4491,0.4491,0.0,0.0,0.0,0.0,0.4762,0.4961,0.5081,0.0,0.0,0.0,0.0,0.0,0.0,0.0,0.0,0.0,0.0,0.0,0.0,0.0,0.0,0.0,0.0,0.0,0.0,-0.4491,-0.4491,-0.4491,-0.4873,-0.5637,-0.629,-0.6993,-0.7803,-0.848,-0.8804,-0.8804,-0.8804,0.0,0.0,0.0,0.0,-0.8804,-0.8804,-0.9588,-1.0788,-1.0788,-1.1667,-1.2905,-1.2905,-1.2905,-1.2905,-1.2905,-1.2905,-1.2905,-1.2905,-1.2905,-1.2905,-1.2905,-1.2905,-1.2978,-1.331,-1.3779,-1.4352,-1.5028,-1.5599,-1.6095,-1.6423,-1.65,-1.65,-1.65,-1.65,-1.65,-1.65,-1.65,-1.65,-1.65,-1.65,-1.65,-1.65,-1.65,-1.65,-1.65,-1.65,-1.65,-1.65,-1.65,-1.65,-1.65,-1.65,-1.65,-1.65,-1.65,-1.65,-1.65,-1.65,-1.6616,-1.6858,-1.7394,-1.7524,-1.7229,-1.7524,-1.7524,-1.7229,-1.7229,-1.7229,0.4484,0.4491,0.4491,0.4491,0.4491,0.4491,0.4491,0.0,0.0,0.0,0.0,0.0,0.0,0.5196,0.0,0.0,0.0,0.0,0.0,0.0,0.0,0.0,0.0,0.0,0.0,0.0,0.0,0.0,0.0,0.0,0.0,0.0,0.0,-0.4491,-0.4491,-0.4491,-0.4491,-0.5909,-0.6669,-0.6777,-0.8156,-0.8804,-0.8804,-0.8804,0.0,0.0,0.0,0.0,-0.8804,-0.8804,-0.9543,-1.0661,-1.0762,-1.1584,-1.2749,-1.2856,-1.2905,-1.2905,-1.2905,-1.2905,-1.2905,-1.2905,-1.2905,-1.2905,-1.2905,-1.2905,-1.2929,-1.3017,-1.3705,-1.4479,-1.4652,-1.5456,-1.6259,-1.6457,-1.65,-1.65,-1.65,-1.65,-1.65,-1.65,-1.65,-1.65,-1.65,-1.65,-1.65,-1.65,-1.65,-1.65,-1.65,-1.65,-1.65,-1.65,-1.65,-1.65,-1.65,-1.65,-1.65,-1.65,-1.65,-1.65,-1.65,-1.65,-1.671,-1.7167,-1.7626,-1.7867,-1.7867,-1.7867,-1.7867,-1.7867,-1.7867,-1.7867,0.4457,0.4491,0.4491,0.4491,0.4491,0.4491,0.4491,0.0,0.0,0.0,0.0,0.0,0.0,0.0,0.0,0.0,0.0,0.0,0.0,0.0,0.0,0.0,0.0,0.0,0.0,0.0,0.0,0.0,0.0,0.0,0.0,0.0,0.0,-0.4491,-0.4491,-0.4491,-0.4491,-0.5909,-0.6912,-0.753,-0.8401,-0.8804,-0.8804,-0.8804,-0.8804,0.0,0.0,-0.8804,-0.8804,-0.8804,-0.9263,-1.002,-1.0593,-1.1266,-1.2055,-1.2666,-1.2905,-1.2905,-1.2905,-1.2905,-1.2905,-1.2905,-1.2905,-1.2905,-1.2905,-1.2905,-1.3017,-1.3529,-1.342,-1.3406,-1.4433,-1.4835,-1.522,-1.625,-1.65,-1.65,-1.65,-1.65,-1.65,-1.65,-1.65,-1.65,-1.65,-1.65,-1.65,-1.65,-1.65,-1.65,-1.65,-1.65,-1.65,-1.65,-1.65,-1.65,-1.65,-1.65,-1.65,-1.65,-1.65,-1.65,-1.65,-1.65,-1.6531,-1.6616,-1.6689,-1.6752,-1.6752,-1.6752,-1.6752,-1.6752,-1.6752,-1.6752,0.4301,0.4345,0.4365,0.447,0.4491,0.4491,0.4491,0.0,0.0,0.0,0.0,0.0,0.0,0.0,0.0,0.0,0.0,0.0,0.0,0.0,0.0,0.0,0.0,0.0,0.0,0.0,0.0,0.0,0.0,0.0,0.0,0.0,0.0,0.0,-0.4491,-0.4491,-0.4491,-0.5496,-0.6367,-0.7101,-0.7857,-0.8401,-0.8804,-0.8804,-0.8804,-0.8804,0.0,-0.8804,-0.8804,-0.8804,-0.9185,-0.984,-1.0141,-1.0889,-1.1898,-1.2642,-1.2905,-1.2905,-1.2905,-1.2905,-1.2905,-1.2905,-1.2905,-1.2905,-1.2905,-1.2905,-1.2954,-1.3238,-1.3586,-1.4095,-1.496,-1.5421,-1.581,-1.6358,-1.65,-1.65,-1.65,-1.65,-1.65,-1.65,-1.65,-1.65,-1.65,-1.65,-1.65,-1.65,-1.65,-1.65,-1.65,-1.65,-1.65,-1.65,-1.65,-1.65,-1.65,-1.65,-1.65,-1.65,-1.6774,-1.6795,-1.6522,-1.7055,-1.7229,-1.693,-1.7209,-1.7374,-1.7374,-1.7666,-1.7646,-1.7374,-1.7666,-1.7646,0.4177,0.4197,0.4257,0.4453,0.0,0.4498,0.4535,0.0,0.0,0.0,0.0,0.0,0.0,0.0,0.0,0.0,0.0,0.0,0.0,0.0,0.0,0.0,0.0,0.0,0.0,0.0,0.0,0.0,0.0,0.0,0.0,0.0,0.0,0.0,-0.4491,-0.4491,-0.4491,-0.5003,-0.5628,-0.6367,-0.7262,-0.7996,-0.8533,-0.8725,-0.8804,-0.8804,-0.8804,-0.8804,-0.8804,-0.8804,-0.9113,-0.9588,-0.9909,-1.0872,-1.2129,-1.2691,-1.2905,-1.2905,-1.2905,-1.2905,-1.2905,-1.2905,-1.2905,-1.2905,-1.2905,-1.2905,-1.2929,-1.3065,-1.3766,-1.4629,-1.5231,-1.5732,-1.6151,-1.6423,-1.65,-1.65,-1.65,-1.65,-1.65,-1.65,-1.65,-1.65,-1.65,-1.65,-1.65,-1.65,-1.65,-1.65,-1.65,-1.65,-1.65,-1.65,-1.65,-1.65,-1.65,-1.65,-1.65,-1.65,-1.6993,-1.7105,-1.6689,-1.7605,-1.7907,-1.7504,-1.7887,-1.8106,-1.8106,-1.8516,-1.8496,-1.8125,-1.84,-1.8322,0.4146,0.4197,0.4257,0.4453,0.4491,0.0,0.4672,0.468,0.0,0.0,0.0,0.0,0.0,0.0,0.0,0.0,0.0,0.0,0.0,0.0,0.0,0.0,0.0,0.0,0.0,0.0,0.0,0.0,0.0,0.0,0.0,0.0,0.0,0.0,0.0,-0.4491,-0.4491,-0.4546,-0.4924,-0.5597,-0.7015,-0.7723,-0.7803,-0.848,-0.8804,-0.8804,-0.8804,-0.8804,-0.8804,-0.8804,-0.8831,-0.9008,-1.0244,-1.1584,-1.2832,-1.2881,-1.2905,-1.2905,-1.2905,-1.2905,-1.2905,-1.2905,-1.2905,-1.2905,-1.2905,-1.2905,-1.3017,-1.3576,-1.3802,-1.4003,-1.4606,-1.4789,-1.5107,-1.6216,-1.65,-1.65,-1.65,-1.65,-1.65,-1.65,-1.65,-1.65,-1.65,-1.65,-1.65,-1.65,-1.65,-1.65,-1.65,-1.65,-1.65,-1.65,-1.65,-1.65,-1.65,-1.65,-1.65,-1.65,-1.6993,-1.7271,-1.7229,-1.7787,-1.8086,-1.8046,-1.8086,-1.8106,-1.8106,-1.8145,-1.8145,-1.8086,-1.7626,-1.7394,0.4588,0.443,0.4239,0.4934,0.4814,0.0,0.0,0.4765,0.0,0.0,0.0,0.0,0.0,0.0,0.0,0.0,0.0,0.0,0.0,0.0,0.0,0.0,0.0,0.0,0.0,0.0,0.0,0.0,0.0,0.0,0.0,0.0,0.0,0.0,0.0,-0.4491,-0.4491,-0.4491,-0.4625,-0.4893,-0.634,-0.7262,-0.7723,-0.8454,-0.8804,-0.8804,-0.8804,-0.8804,-0.8804,-0.8804,-0.8804,-0.8929,-1.0287,-1.1124,-1.1692,-1.2569,-1.2905,-1.2905,-1.2905,-1.2905,-1.2905,-1.2905,-1.2905,-1.2905,-1.2905,-1.2905,-1.3041,-1.3637,-1.3792,-1.3933,-1.4537,-1.4994,-1.5365,-1.582,-1.6238,-1.65,-1.65,-1.65,-1.65,-1.65,-1.65,-1.65,-1.65,-1.65,-1.65,-1.65,-1.65,-1.65,-1.65,-1.65,-1.65,-1.65,-1.6795,-1.6993,-1.6993,-1.7312,-1.7483,-1.7483,-1.7374,-1.7146,-1.6816,-1.7646,-1.7787,-1.7105,-1.7422,-1.7442,-1.7118,-1.7442,-1.7422,-1.7118,-1.7229,-1.7105,0.4584,0.4596,0.4529,0.5066,0.0,0.0,0.0,0.0,0.0,0.0,0.0,0.0,0.0,0.0,0.0,0.0,0.0,0.0,0.0,0.0,0.0,0.0,0.0,0.0,0.0,0.0,0.0,0.0,0.0,0.0,0.0,0.0,0.0,0.0,0.0,0.0,-0.4491,-0.4447,-0.4447,-0.4515,-0.5896,-0.6812,-0.7375,-0.8348,-0.8804,-0.8804,-0.8804,-0.8804,-0.8804,-0.8804,-0.8936,-0.9211,-1.0141,-1.0737,-1.1241,-1.2197,-1.2691,-1.2905,-1.2905,-1.2905,-1.2905,-1.2905,-1.2905,-1.2905,-1.2905,-1.2905,-1.2992,-1.3396,-1.3529,-1.3637,-1.426,-1.5005,-1.5654,-1.5842,-1.6194,-1.65,-1.65,-1.65,-1.65,-1.65,-1.65,-1.65,-1.65,-1.65,-1.65,-1.65,-1.65,-1.65,-1.65,-1.65,-1.65,-1.65,-1.6837,-1.7055,-1.7055,-1.7394,-1.7585,-1.7585,-1.725,-1.7118,-1.725,-1.8145,-1.8263,-1.7524,-1.7867,-1.7887,-1.7504,-1.7887,-1.7867,-1.7524,-1.7706,-1.7605,0.3978,0.4633,0.5165,0.0,0.0,0.0,0.0,0.0,0.0,0.0,0.0,0.0,0.0,0.0,0.0,0.0,0.0,0.0,0.0,0.0,0.0,0.0,0.0,0.0,0.0,0.0,0.0,0.0,0.0,0.0,0.0,0.0,0.0,0.0,0.0,0.0,-0.4487,-0.4294,-0.4294,-0.4512,-0.5777,-0.6477,-0.6642,-0.8129,-0.8804,-0.8804,-0.8804,-0.8804,-0.8804,-0.8804,-0.9185,-0.9788,-0.9814,-1.0618,-1.1789,-1.1814,-1.227,-1.2905,-1.2905,-1.2905,-1.2905,-1.2905,-1.2905,-1.2905,-1.2905,-1.2905,-1.2905,-1.2905,-1.2905,-1.3065,-1.3661,-1.4698,-1.5764,-1.6358,-1.65,-1.65,-1.65,-1.65,-1.65,-1.65,-1.65,-1.65,-1.65,-1.65,-1.65,-1.65,-1.65,-1.65,-1.65,-1.65,-1.65,-1.65,-1.65,-1.6522,-1.6522,-1.6522,-1.6522,-1.6522,-1.6522,-1.7229,-1.8817,-1.9387,-1.9672,-1.9672,-1.9672,-1.9672,-1.9672,-1.9672,-1.9672,-1.9657,-1.9132,-1.8874,0.4743,0.4725,0.0,0.5097,0.0,0.0,0.0,0.0,0.0,0.0,0.0,0.0,0.0,0.0,0.0,0.0,0.0,0.0,0.0,0.0,0.0,0.0,0.0,0.0,0.0,0.0,0.0,0.0,0.0,0.0,0.0,0.0,0.0,0.0,0.0,0.0,-0.4284,-0.4368,-0.4314,-0.4151,-0.5164,-0.5979,-0.6642,-0.8129,-0.8804,-0.8804,-0.8804,-0.8804,-0.8804,-0.8804,-0.891,-0.9185,-1.0141,-1.0745,-1.1216,-1.2197,-1.2715,-1.2905,-1.2905,-1.2905,-1.2905,-1.2905,-1.2905,-1.2905,-1.2905,-1.2905,-1.2992,-1.342,-1.3826,-1.4317,-1.4915,-1.5666,-1.6173,-1.593,-1.6194,-1.65,-1.65,-1.65,-1.65,-1.65,-1.65,-1.65,-1.65,-1.65,-1.65,-1.65,-1.65,-1.65,-1.65,-1.65,-1.65,-1.65,-1.6837,-1.7055,-1.7055,-1.7747,-1.8027,-1.7646,-1.8341,-1.8302,-1.725,-1.7727,-1.7827,-1.7463,-1.7827,-1.7827,-1.7442,-1.7442,-1.7442,-1.7442,-1.7291,-1.7209,0.471,0.4782,0.0,0.5031,0.5003,0.0,0.0,0.0,0.0,0.0,0.0,0.0,0.0,0.0,0.0,0.0,0.0,0.0,0.0,0.0,0.0,0.0,0.0,0.0,0.0,0.0,0.0,0.0,0.0,0.0,0.0,0.0,0.0,0.0,0.0,0.0,-0.4107,-0.4182,-0.4138,-0.4019,-0.4766,-0.5452,-0.6062,-0.7469,-0.8313,-0.8644,-0.8758,-0.8804,-0.8804,-0.8804,-0.8804,-0.8883,-0.9692,-1.0338,-1.0897,-1.1742,-1.2412,-1.2905,-1.2905,-1.2905,-1.2905,-1.2905,-1.2905,-1.2905,-1.2905,-1.2905,-1.2968,-1.3334,-1.3695,-1.4177,-1.5028,-1.5511,-1.581,-1.5942,-1.6238,-1.65,-1.65,-1.65,-1.65,-1.65,-1.65,-1.65,-1.65,-1.65,-1.65,-1.65,-1.65,-1.65,-1.65,-1.65,-1.65,-1.65,-1.6795,-1.6972,-1.6972,-1.7565,-1.7807,-1.7483,-1.8066,-1.7847,-1.6552,-1.7626,-1.8106,-1.7787,-1.8086,-1.8086,-1.7767,-1.7767,-1.7767,-1.7767,-1.7767,-1.7767,0.4214,0.0,0.0,0.4653,0.0,0.0,0.0,0.0,0.0,0.0,0.0,0.0,0.0,0.0,0.0,0.0,0.0,0.0,0.0,0.0,0.0,0.0,0.0,0.0,0.0,0.0,0.0,0.0,0.0,0.0,0.0,0.0,0.0,0.0,0.0,0.0,-0.39,-0.3849,-0.387,0.0,-0.453,-0.4884,-0.5092,-0.6462,-0.7553,-0.8375,-0.8611,-0.8724,-0.8724,-0.8724,-0.8724,-0.8731,-0.8776,-0.9552,-1.0639,-1.0689,-1.1578,-1.2764,-1.2764,-1.2817,-1.2905,-1.2905,-1.2905,-1.2905,-1.2905,-1.2905,-1.2905,-1.2905,-1.2954,-1.3224,-1.434,-1.4698,-1.5062,-1.6151,-1.6457,-1.65,-1.65,-1.65,-1.65,-1.65,-1.65,-1.65,-1.65,-1.65,-1.65,-1.65,-1.65,-1.65,-1.65,-1.65,-1.65,-1.65,-1.65,-1.65,-1.65,-1.6531,-1.6573,-1.6573,-1.6659,-1.671,-1.671,-1.8458,-1.9406,-1.9406,-1.9406,-1.9406,-1.9406,-1.9406,-1.9406,-1.9406,-1.9406,-1.9406,0.0,0.4573,0.0,0.0,0.0,0.0,0.0,0.0,0.0,0.0,0.0,0.0,0.0,0.0,0.0,0.0,0.0,0.0,0.0,0.0,0.0,0.0,0.0,0.0,0.0,0.0,0.0,0.0,0.0,0.0,0.0,0.0,0.0,0.0,0.0,-0.2523,-0.3122,-0.3681,-0.387,0.0,-0.3913,-0.4226,-0.4606,-0.6332,-0.7423,-0.8005,-0.8065,-0.8099,-0.8099,-0.8099,-0.8099,-0.8141,-0.8676,-0.9051,-0.9368,-0.9956,-1.0822,-1.1728,-1.1728,-1.2234,-1.2905,-1.2905,-1.2905,-1.2905,-1.2905,-1.2905,-1.2905,-1.2905,-1.3238,-1.3671,-1.3944,-1.471,-1.5477,-1.5732,-1.6173,-1.65,-1.65,-1.65,-1.65,-1.65,-1.65,-1.65,-1.65,-1.65,-1.65,-1.65,-1.65,-1.65,-1.65,-1.65,-1.65,-1.65,-1.65,-1.65,-1.65,-1.69,-1.7126,-1.7126,-1.7927,-1.838,-1.838,-1.7605,-1.7188,-1.7188,-1.7188,-1.7188,-1.7188,-1.7188,-1.7188,-1.7188,-1.7188,-1.7188,0.0,0.0,0.0,0.0,0.0,0.0,0.0,0.0,0.0,0.0,0.0,0.0,0.0,0.0,0.0,0.0,0.0,0.0,0.0,0.0,0.0,0.0,0.0,0.0,0.0,0.0,0.0,0.0,0.0,0.0,0.0,0.0,0.0,0.0,-0.1299,-0.1898,-0.2786,-0.3196,-0.3447,-0.3604,-0.3679,-0.3958,-0.4465,-0.6116,-0.7006,-0.7298,-0.7721,-0.7905,-0.7905,-0.7905,-0.7905,-0.7929,-0.8294,-0.8765,-0.9336,-0.9725,-1.0551,-1.1492,-1.1492,-1.197,-1.2568,-1.2568,-1.2715,-1.2905,-1.2905,-1.2905,-1.2905,-1.2905,-1.3128,-1.3443,-1.3732,-1.448,-1.5231,-1.5543,-1.6051,-1.65,-1.65,-1.65,-1.65,-1.65,-1.65,-1.65,-1.65,-1.65,-1.65,-1.65,-1.65,-1.65,-1.65,-1.65,-1.65,-1.65,-1.65,-1.65,-1.65,-1.6752,-1.6909,-1.6909,-1.7442,-1.7747,-1.7747,-1.6951,-1.6972,-1.8007,-1.8027,-1.8027,-1.8027,-1.8027,-1.7875,-1.7562,-1.7889,-1.7691,0.0,0.0,0.0,0.0,0.0,0.0,0.0,0.0,0.0,0.0,0.0,0.0,0.0,0.0,0.0,0.0,0.0,0.0,0.0,0.0,0.0,0.0,0.0,0.0,0.0,0.0,0.0,0.0,0.0,0.0,0.0,0.0,-0.022,-0.0732,-0.0843,-0.1419,-0.2493,-0.2604,-0.2946,-0.3522,-0.3527,-0.3789,-0.4312,-0.5718,-0.6422,-0.6575,-0.7293,-0.7659,-0.7752,-0.7752,-0.7752,-0.7752,-0.7752,-0.8349,-0.9236,-0.9349,-1.0157,-1.1219,-1.1315,-1.172,-1.2203,-1.2203,-1.2529,-1.2905,-1.2905,-1.2905,-1.2886,-1.2793,-1.2846,-1.3021,-1.3543,-1.4205,-1.4858,-1.5454,-1.6051,-1.65,-1.65,-1.65,-1.65,-1.65,-1.65,-1.65,-1.65,-1.65,-1.65,-1.65,-1.65,-1.65,-1.65,-1.65,-1.65,-1.65,-1.65,-1.65,-1.65,-1.65,-1.6531,-1.6637,-1.6637,-1.668,-1.6774,-1.6774,-1.7605,-1.9387,-1.9244,-1.9151,-1.9151,-1.9151,-1.8815,-1.82,-1.8761,-1.8381,0.0,0.0,0.0,0.0,0.0,0.0,0.0,0.0,0.0,0.0,0.0,0.0,0.0,0.0,0.0,0.0,0.0,0.0,0.0,0.0,0.0,0.0,0.0,0.0,0.0,0.0,0.0,0.0,0.0,0.0,0.0,0.0,-0.0046,-0.0113,-0.0632,-0.117,-0.1736,-0.2255,-0.2745,-0.3165,-0.3296,-0.3471,-0.3751,-0.4924,-0.5766,-0.6259,-0.6375,-0.6696,-0.712,-0.712,-0.712,-0.712,-0.712,-0.722,-0.7433,-0.7955,-0.8768,-0.9667,-1.0137,-1.1129,-1.2203,-1.2203,-1.2529,-1.2905,-1.2905,-1.2905,-1.2827,-1.2398,-1.2588,-1.2952,-1.3138,-1.3944,-1.4858,-1.5454,-1.6051,-1.65,-1.65,-1.65,-1.65,-1.65,-1.65,-1.65,-1.65,-1.65,-1.65,-1.65,-1.65,-1.65,-1.65,-1.65,-1.65,-1.65,-1.65,-1.65,-1.65,-1.65,-1.6689,-1.7146,-1.7188,-1.7415,-1.7867,-1.7887,-1.8027,-1.8322,-1.7415,-1.693,-1.693,-1.693,-1.6646,-1.6091,-1.6189,-1.5879,0.418,0.0,0.0,0.0,0.0,0.0,0.0,0.0,0.0,0.0,0.0,0.0,0.0,0.0,0.0,0.0,0.0,0.0,0.0,0.0,0.0,0.0,0.0,0.0,0.0,0.0,0.0,0.0,0.0,0.0,0.0,0.0,0.0,0.0,-0.0249,-0.0666,-0.1211,-0.1739,-0.2362,-0.3101,-0.3168,-0.3236,-0.3344,-0.3845,-0.4656,-0.5739,-0.6365,-0.6789,-0.7,-0.7,-0.7,-0.7,-0.7,-0.721,-0.753,-0.7808,-0.8535,-0.9444,-0.969,-1.0519,-1.1463,-1.1463,-1.1787,-1.2162,-1.2162,-1.2162,-1.2122,-1.1927,-1.2208,-1.2652,-1.302,-1.3917,-1.4905,-1.5484,-1.6051,-1.65,-1.65,-1.65,-1.65,-1.65,-1.65,-1.65,-1.65,-1.65,-1.65,-1.65,-1.65,-1.65,-1.65,-1.65,-1.65,-1.65,-1.65,-1.65,-1.65,-1.65,-1.6595,-1.6837,-1.6858,-1.6951,-1.7188,-1.6907,-1.6901,-1.7209,-1.7626,-1.7847,-1.7847,-1.8165,-1.7795,-1.6838,-1.7209,-1.6679,0.0,0.0,0.0,0.0,0.0,0.0,0.0,0.0,0.0,0.0,0.0,0.0,0.0,0.0,0.0,0.0,0.0,0.0,0.0,0.0,0.0,0.0,0.0,0.0,0.0,0.0,0.0,0.0,0.0,0.0,0.0,0.0,0.0,0.0,0.0,-0.027,-0.0845,-0.1424,-0.2161,-0.3047,-0.3047,-0.3067,-0.3101,-0.3252,-0.3934,-0.5036,-0.6079,-0.6658,-0.69,-0.6973,-0.7,-0.7,-0.7,-0.728,-0.7683,-0.785,-0.85,-0.9319,-0.9459,-1.0105,-1.0908,-1.0908,-1.1222,-1.1606,-1.1606,-1.1606,-1.1577,-1.1469,-1.1825,-1.2408,-1.302,-1.397,-1.4963,-1.5658,-1.6173,-1.65,-1.65,-1.65,-1.65,-1.65,-1.65,-1.65,-1.65,-1.65,-1.65,-1.65,-1.65,-1.65,-1.65,-1.65,-1.65,-1.65,-1.65,-1.65,-1.65,-1.65,-1.65,-1.65,-1.65,-1.6437,-1.6287,-1.5919,-1.5819,-1.6095,-1.7417,-1.8153,-1.8302,-1.8688,-1.8226,-1.7004,-1.7496,-1.6807,0.0,0.0,0.0,0.0,0.0,0.0,0.0,0.0,0.0,0.0,0.0,0.0,0.0,0.0,0.0,0.0,0.0,0.0,0.0,0.0,0.0,0.0,0.0,0.0,0.0,0.0,0.0,0.0,0.0,0.0,0.0,0.0,0.0,0.0,0.0,-0.0238,-0.0714,-0.1547,-0.2293,-0.2902,-0.2902,-0.2973,-0.312,-0.3694,-0.3993,-0.4116,-0.4873,-0.5737,-0.6633,-0.6886,-0.7,-0.7,-0.7,-0.7021,-0.7105,-0.7683,-0.8255,-0.8817,-0.9319,-1.0105,-1.0908,-1.0908,-1.1222,-1.1606,-1.1606,-1.1606,-1.1518,-1.1055,-1.1543,-1.2386,-1.3189,-1.4035,-1.4994,-1.6173,-1.6479,-1.65,-1.65,-1.65,-1.65,-1.65,-1.65,-1.65,-1.65,-1.65,-1.65,-1.65,-1.65,-1.65,-1.65,-1.65,-1.65,-1.65,-1.65,-1.65,-1.65,-1.65,-1.65,-1.65,-1.65,-1.6283,-1.5756,-1.5706,-1.5467,-1.4984,-1.5563,-1.6133,-1.6616,-1.6659,-1.6109,-1.5057,-1.5082,-1.4466,0.0,0.0,0.0,0.0,0.0,0.0,0.0,0.0,0.0,0.0,0.0,0.0,0.0,0.0,0.0,0.0,0.0,0.0,0.0,0.0,0.0,0.0,0.0,0.0,0.0,0.0,0.0,0.0,0.0,0.0,0.002,0.0,0.0,0.0,0.0,-0.0225,-0.0693,-0.1271,-0.181,-0.2333,-0.2627,-0.2791,-0.2856,-0.3067,-0.3308,-0.3569,-0.4067,-0.4888,-0.5933,-0.6323,-0.6593,-0.6747,-0.6747,-0.684,-0.7063,-0.7683,-0.8234,-0.8777,-0.9319,-0.9937,-1.0508,-1.0508,-1.0635,-1.0762,-1.0762,-1.0762,-1.0723,-1.0547,-1.1205,-1.2172,-1.315,-1.4102,-1.5104,-1.6239,-1.65,-1.65,-1.65,-1.65,-1.65,-1.65,-1.65,-1.65,-1.65,-1.65,-1.65,-1.65,-1.65,-1.65,-1.65,-1.65,-1.65,-1.65,-1.65,-1.65,-1.65,-1.6174,-1.5994,-1.5994,-1.5655,-1.5399,-1.5198,-1.4865,-1.4733,-1.4896,-1.4757,-1.5104,-1.5984,-1.6338,-1.6074,-1.5296,-1.5296,-1.4832,0.2172,0.0,0.0,0.0,0.0,0.0,0.0,0.0,0.0,0.0,0.0,0.0,0.0,0.0,0.0,0.0,0.0,0.0,0.0,0.0,0.0,0.0,0.0,0.0,0.0,0.0,0.0,0.0,0.0,0.0,0.0447,0.0307,0.016,0.0,0.0,-0.0219,-0.0689,-0.0973,-0.1408,-0.1997,-0.2314,-0.2547,-0.2696,-0.2696,-0.2841,-0.3122,-0.3471,-0.4287,-0.5389,-0.5793,-0.6212,-0.6606,-0.6606,-0.6767,-0.7042,-0.7447,-0.807,-0.8756,-0.9099,-0.9696,-1.0303,-1.0303,-1.0303,-1.0303,-1.0303,-1.0303,-1.0303,-1.0303,-1.0876,-1.1797,-1.3069,-1.4397,-1.5618,-1.6325,-1.65,-1.65,-1.65,-1.65,-1.65,-1.65,-1.65,-1.6437,-1.6249,-1.6375,-1.6375,-1.6019,-1.6283,-1.6425,-1.6237,-1.6387,-1.65,-1.65,-1.65,-1.6425,-1.6258,-1.5906,-1.5618,-1.5449,-1.5097,-1.4828,-1.4639,-1.4286,-1.4173,-1.4325,-1.3979,-1.4164,-1.4854,-1.5604,-1.564,-1.5025,-1.5025,-1.4681,0.0,0.0,0.0,0.0,0.0,0.0,0.0,0.0,0.0,0.0,0.0,0.0,0.0,0.0,0.0,0.0,0.0,0.0,0.0,0.0,0.0,0.0,0.0,0.0,0.0,0.0,0.0,0.0,0.0,0.1321,0.1305,0.0923,0.0487,0.0034,0.0,-0.0219,-0.0672,-0.0689,-0.1125,-0.1981,-0.1997,-0.2247,-0.2696,-0.2696,-0.2696,-0.2729,-0.3114,-0.3949,-0.5062,-0.5347,-0.5914,-0.6567,-0.6567,-0.6747,-0.6986,-0.7007,-0.7716,-0.8695,-0.8716,-0.9419,-1.0303,-1.0303,-1.0303,-1.0303,-1.0303,-1.0303,-1.0303,-1.0303,-1.0596,-1.1296,-1.2964,-1.4932,-1.6454,-1.6466,-1.65,-1.6488,-1.6475,-1.6475,-1.6475,-1.6475,-1.6475,-1.63,-1.5768,-1.612,-1.6107,-1.506,-1.5781,-1.6249,-1.5731,-1.6132,-1.645,-1.645,-1.645,-1.6237,-1.5718,-1.5655,-1.5437,-1.4916,-1.4865,-1.4626,-1.4085,-1.4078,-1.379,-1.321,-1.3198,-1.3198,-1.3198,-1.4299,-1.4588,-1.4078,-1.4078,-1.3765,0.0821,0.0,0.0,0.0,0.0,0.0,0.0,0.0,0.0,0.0,0.0,0.0,0.0,0.0,0.0,0.0,0.0,0.0,0.0,0.0,0.0,0.0,0.0,0.0,0.0,0.0,0.0,0.0,0.1952,0.1659,0.1321,0.0923,0.0639,0.0504,0.0185,-0.0067,-0.0185,-0.0538,-0.0974,-0.149,-0.1845,-0.2247,-0.2696,-0.2696,-0.2696,-0.2712,-0.2808,-0.3228,-0.3854,-0.456,-0.5291,-0.5952,-0.5952,-0.6266,-0.6767,-0.7153,-0.7879,-0.8756,-0.9139,-0.9725,-1.0303,-1.0303,-1.0303,-1.0303,-1.0303,-1.0303,-1.0303,-1.0303,-1.0624,-1.1308,-1.2864,-1.4334,-1.549,-1.578,-1.6194,-1.6387,-1.6007,-1.5919,-1.5919,-1.5919,-1.5919,-1.5743,-1.5211,-1.5248,-1.5248,-1.4934,-1.5148,-1.5299,-1.5135,-1.5248,-1.5349,-1.5349,-1.5349,-1.5286,-1.5135,-1.4777,-1.4475,-1.4324,-1.391,-1.3604,-1.3453,-1.3441,-1.3366,-1.3198,-1.3198,-1.3198,-1.3198,-1.3516,-1.3591,-1.3441,-1.3441,-1.3366,0.0,0.0,0.0,0.0,0.0,0.0,0.0,0.0,0.0,0.0,0.0,0.0,0.0,0.0,0.0,0.0,0.0,0.0,0.0,0.0,0.0,0.0,0.0,0.0,0.0,0.0,0.0,0.0,0.2338,0.2095,0.1625,0.1377,0.1075,0.0706,0.0437,0.0202,0.0,-0.0269,-0.063,-0.1052,-0.1439,-0.1867,-0.2323,-0.2434,-0.2546,-0.2616,-0.2616,-0.2873,-0.3339,-0.3844,-0.4609,-0.5454,-0.5454,-0.5855,-0.6464,-0.6774,-0.7432,-0.8238,-0.8778,-0.9402,-1.0,-1.0225,-1.0303,-1.0303,-1.0303,-1.0303,-1.0303,-1.0303,-1.0955,-1.1875,-1.2742,-1.3952,-1.5021,-1.5243,-1.5591,-1.5743,-1.5417,-1.5374,-1.5374,-1.5374,-1.5374,-1.5198,-1.4664,-1.4752,-1.4733,-1.4262,-1.4595,-1.4828,-1.4601,-1.4765,-1.4896,-1.4896,-1.4896,-1.4815,-1.4588,-1.4292,-1.3984,-1.374,-1.3391,-1.3198,-1.3198,-1.3198,-1.3198,-1.3198,-1.3198,-1.3198,-1.3198,-1.3198,-1.3198,-1.3198,-1.3198,-1.3198,0.0,0.0381,0.0,0.0,0.0,0.0,0.1703,0.175,0.0,0.0,0.0,0.0,0.0,0.0,0.0,0.0,0.0,0.0,0.0,0.0,0.0,0.0,0.0,0.0,0.0,0.0,0.2723,0.2723,0.2706,0.2513,0.2097,0.2031,0.1644,0.0874,0.0756,0.0502,0.0083,0.0033,-0.0243,-0.07,-0.0941,-0.131,-0.1814,-0.2055,-0.2263,-0.2473,-0.2491,-0.2773,-0.3216,-0.3237,-0.3944,-0.5049,-0.5049,-0.5493,-0.6142,-0.6142,-0.6691,-0.7487,-0.8011,-0.8772,-0.9602,-1.0128,-1.0303,-1.0303,-1.0303,-1.0303,-1.0303,-1.0303,-1.1284,-1.2377,-1.2471,-1.3568,-1.4673,-1.4775,-1.4858,-1.4871,-1.4808,-1.4815,-1.4783,-1.472,-1.4777,-1.4639,-1.4085,-1.44,-1.4381,-1.3348,-1.4061,-1.4551,-1.406,-1.4425,-1.4708,-1.4708,-1.4708,-1.4507,-1.4035,-1.3997,-1.3765,-1.3223,-1.3198,-1.3198,-1.3198,-1.3198,-1.3198,-1.3198,-1.3198,-1.3198,-1.3198,-1.3198,-1.3198,-1.3198,-1.3198,-1.3198,0.0,0.0079,0.0183,0.0177,0.0,0.0,0.0,0.1442,0.0,0.0,0.0,0.0,0.0,0.0,0.0,0.0,0.0,0.0,0.0,0.0,0.0,0.0,0.0,0.0,0.0,0.0,0.2866,0.2866,0.2768,0.2666,0.2563,0.2197,0.1914,0.1744,0.1058,0.0658,0.0564,0.0188,-0.0243,-0.0698,-0.0755,-0.113,-0.18,-0.1855,-0.2012,-0.2272,-0.2431,-0.2561,-0.2658,-0.2771,-0.3566,-0.4688,-0.4688,-0.5148,-0.5798,-0.5798,-0.6548,-0.7634,-0.805,-0.8797,-0.9666,-1.0147,-1.0303,-1.0303,-1.0303,-1.0303,-1.0303,-1.0303,-1.0517,-1.092,-1.1677,-1.2452,-1.324,-1.399,-1.4553,-1.479,-1.4337,-1.4267,-1.411,-1.3629,-1.3928,-1.4072,-1.3483,-1.3466,-1.3466,-1.3235,-1.3403,-1.3491,-1.3391,-1.3466,-1.3529,-1.3529,-1.3529,-1.3491,-1.3378,-1.3378,-1.3328,-1.321,-1.3198,-1.3198,-1.3198,-1.3198,-1.3198,-1.3198,-1.3198,-1.3198,-1.3198,-1.3198,-1.3198,-1.3198,-1.3198,-1.3198,0.0,0.0,0.0,0.0,0.0,0.0,0.0,0.0,0.0901,0.0,0.0,0.0,0.0,0.0,0.0,0.0,0.0,0.0,0.0,0.0,0.0,0.0,0.0,0.0,0.0,0.0,0.2966,0.2895,0.2785,0.2696,0.2696,0.248,0.2219,0.1914,0.1477,0.1031,0.0558,0.0323,0.0014,-0.0346,-0.0492,-0.0832,-0.1354,-0.1494,-0.1756,-0.21,-0.2201,-0.2345,-0.252,-0.2788,-0.3458,-0.4296,-0.4296,-0.4792,-0.5498,-0.5498,-0.5983,-0.674,-0.7423,-0.8077,-0.8712,-0.9425,-0.9648,-0.9687,-0.9893,-1.0107,-1.0303,-1.0303,-1.0467,-1.0815,-1.1563,-1.2163,-1.2738,-1.3421,-1.3828,-1.3986,-1.3715,-1.3647,-1.3559,-1.3248,-1.3428,-1.3559,-1.3248,-1.3198,-1.3198,-1.3198,-1.3198,-1.3198,-1.3198,-1.3198,-1.3198,-1.3198,-1.3198,-1.3198,-1.3198,-1.3198,-1.3198,-1.3198,-1.3198,-1.3198,-1.3198,-1.3198,-1.3198,-1.3198,-1.3198,-1.3198,-1.3198,-1.3198,-1.3198,-1.3198,-1.3198,-1.3198,0.0,0.0,0.0,0.0,0.0,0.0,0.0,0.0,0.0,0.0,0.0,0.0,0.0,0.0,0.0,0.0,0.0,0.0,0.0,0.0,0.0,0.0,0.0,0.0,0.0,0.0,0.3074,0.2902,0.2795,0.274,0.274,0.2713,0.2476,0.1988,0.1889,0.1462,0.0685,0.053,0.0336,0.0074,-0.0197,-0.0487,-0.0814,-0.1094,-0.1458,-0.187,-0.1961,-0.216,-0.2429,-0.2822,-0.3366,-0.3981,-0.407,-0.4602,-0.5293,-0.5293,-0.5489,-0.5867,-0.6704,-0.7281,-0.7765,-0.8607,-0.8936,-0.9065,-0.9466,-0.9864,-1.0214,-1.0389,-1.0706,-1.1151,-1.1774,-1.221,-1.2615,-1.3094,-1.3198,-1.3198,-1.3198,-1.3198,-1.3198,-1.3198,-1.3198,-1.3198,-1.3198,-1.3198,-1.3198,-1.3198,-1.3198,-1.3198,-1.3198,-1.3198,-1.3198,-1.3198,-1.3198,-1.3198,-1.3198,-1.3198,-1.3198,-1.3198,-1.3198,-1.3198,-1.3198,-1.3198,-1.3198,-1.3198,-1.3198,-1.3198,-1.3198,-1.3198,-1.3198,-1.3198,-1.3198,-1.3198,0.0,0.0,0.0,0.0,0.0,0.0,0.0,0.0,0.0,0.0,0.0,0.0,0.0,0.0,0.0,0.0,0.0,0.0,0.0,0.0,0.0,0.0,0.0,0.0,0.0,0.0,0.0,0.2912,0.2893,0.2883,0.2883,0.2771,0.2673,0.2606,0.2192,0.1876,0.1647,0.0991,0.0562,0.0351,0.0079,-0.0192,-0.0468,-0.0792,-0.11,-0.14,-0.1817,-0.2016,-0.2082,-0.2431,-0.3065,-0.3861,-0.4341,-0.4842,-0.5293,-0.5293,-0.5543,-0.5948,-0.6412,-0.7099,-0.7846,-0.8309,-0.8704,-0.9065,-0.9466,-0.9631,-0.9859,-1.0678,-1.0962,-1.1215,-1.2174,-1.2473,-1.2615,-1.3094,-1.3198,-1.3198,-1.3198,-1.3198,-1.3198,-1.3198,-1.3198,-1.3198,-1.3198,-1.3198,-1.3198,-1.3198,-1.3198,-1.3198,-1.3198,-1.3198,-1.3198,-1.3198,-1.3198,-1.3198,-1.3198,-1.3198,-1.3198,-1.3198,-1.3198,-1.3198,-1.3198,-1.3198,-1.3198,-1.3198,-1.3198,-1.3198,-1.3198,-1.3198,-1.3198,-1.3198,-1.3198,-1.3198,0.0,0.0,0.0,0.0,0.0,0.0,0.0,0.0,0.0,0.0,0.0,0.0,0.0,0.0,0.0,0.0,0.0,0.0,0.0,0.0,0.0,0.0,0.0,0.0,0.0,0.0,0.0,0.0,0.0,0.2892,0.2892,0.2849,0.2747,0.2585,0.2389,0.1999,0.1397,0.1091,0.0675,0.0168,0.0056,-0.0145,-0.0412,-0.0747,-0.105,-0.1324,-0.1714,-0.1926,-0.203,-0.2444,-0.3082,-0.3844,-0.4303,-0.4809,-0.5293,-0.5293,-0.5404,-0.5615,-0.6007,-0.6395,-0.6799,-0.7445,-0.8098,-0.8721,-0.9123,-0.9416,-0.9735,-1.0414,-1.0592,-1.0745,-1.1438,-1.1854,-1.221,-1.2685,-1.2995,-1.3198,-1.3198,-1.3198,-1.3198,-1.3198,-1.3198,-1.3198,-1.3198,-1.3198,-1.3198,-1.3198,-1.3198,-1.3198,-1.3198,-1.3198,-1.3198,-1.3198,-1.3198,-1.3198,-1.3198,-1.3198,-1.3198,-1.3198,-1.3198,-1.3198,-1.3198,-1.3198,-1.3198,-1.3198,-1.3198,-1.3198,-1.3198,-1.3198,-1.3198,-1.3198,-1.3198,-1.3198,-0.0538,0.0,0.0,0.0,0.0,0.0,0.0,0.0,0.0,0.0,0.0,0.0,0.0,0.0,0.0,0.0,0.0,0.0,0.0,0.0,0.0,0.0,0.0,0.0,0.0,0.0,0.0,0.0,0.0,0.0,0.3007,0.2936,0.2808,0.2616,0.2568,0.221,0.1495,0.1269,0.0862,0.0301,0.0102,-0.0101,-0.0301,-0.0614,-0.0914,-0.1208,-0.153,-0.1765,-0.1974,-0.2355,-0.2922,-0.3598,-0.405,-0.4587,-0.5119,-0.5246,-0.5293,-0.5356,-0.5765,-0.6052,-0.6336,-0.7029,-0.7694,-0.8316,-0.8848,-0.9201,-0.957,-1.0289,-1.0486,-1.0592,-1.1094,-1.1505,-1.1884,-1.2228,-1.2579,-1.282,-1.282,-1.2925,-1.3012,-1.3012,-1.3112,-1.3198,-1.3198,-1.3198,-1.3198,-1.3198,-1.3198,-1.3198,-1.3198,-1.3198,-1.3198,-1.3198,-1.3198,-1.3198,-1.3198,-1.3198,-1.3198,-1.3198,-1.3198,-1.3198,-1.3198,-1.3198,-1.3198,-1.3198,-1.3198,-1.3198,-1.3198,-1.3198,-1.3198,-1.3198,-1.3198,-1.3198,0.0,0.0,0.0,-0.0574,0.0,0.0,0.0,0.0,-0.0558,0.0,0.0,0.0,0.0,0.0,0.0,0.0,0.0,0.0,0.0,0.0,0.0,0.0,0.0,0.0,0.0,0.0,0.0,0.0,0.0,0.0,0.3286,0.3044,0.2903,0.2896,0.2768,0.2614,0.2454,0.169,0.1221,0.1053,0.0338,0.0,-0.0022,-0.029,-0.0601,-0.0925,-0.1196,-0.1499,-0.1823,-0.1962,-0.2381,-0.2986,-0.3583,-0.4145,-0.4682,-0.5135,-0.5293,-0.5356,-0.5765,-0.6412,-0.7133,-0.7554,-0.7705,-0.788,-0.8733,-0.9014,-0.9303,-1.0619,-1.0981,-1.1094,-1.1645,-1.1792,-1.1792,-1.1811,-1.1829,-1.1847,-1.1847,-1.2192,-1.2526,-1.2526,-1.289,-1.3198,-1.3198,-1.3198,-1.3198,-1.3198,-1.3198,-1.3198,-1.3198,-1.3198,-1.3198,-1.3198,-1.3198,-1.3198,-1.3198,-1.3198,-1.3198,-1.3198,-1.3198,-1.3198,-1.3198,-1.3198,-1.3198,-1.3198,-1.3198,-1.3198,-1.3198,-1.3198,-1.3198,-1.3198,-1.3198,-1.3198,0.0,0.0,-0.0143,-0.0684,0.0,0.0,0.0,0.0,0.0,0.0,0.0,0.0,0.0,0.0,0.0,0.0,0.0,0.0,0.0,0.0,0.0,0.0,0.0,0.0,0.0,0.0,0.0,0.0,0.0,0.0,0.0,0.3212,0.3091,0.2899,0.2859,0.2626,0.2166,0.1597,0.1143,0.0829,0.0268,0.0,-0.0011,-0.0279,-0.0579,-0.0914,-0.1185,-0.1485,-0.1806,-0.185,-0.2219,-0.2826,-0.3382,-0.3954,-0.453,-0.5094,-0.5293,-0.5356,-0.5765,-0.6427,-0.7133,-0.7261,-0.769,-0.8262,-0.8828,-0.9182,-0.9559,-1.0317,-1.0544,-1.0572,-1.0764,-1.1048,-1.1263,-1.1263,-1.1542,-1.1792,-1.1792,-1.2174,-1.2508,-1.2508,-1.289,-1.3198,-1.3198,-1.3198,-1.3198,-1.3198,-1.3198,-1.3198,-1.3198,-1.3198,-1.3198,-1.3198,-1.3198,-1.3198,-1.3198,-1.3198,-1.3198,-1.3198,-1.3198,-1.3198,-1.3198,-1.3198,-1.3198,-1.3198,-1.3198,-1.3198,-1.3198,-1.3198,-1.3198,-1.3198,-1.3198,-1.3198,-0.0471,-0.0301,0.0,-0.069,-0.0762,0.0,-0.1468,0.0,0.0,0.0,0.0,0.0,0.0,0.0,0.0,0.0,0.0,0.0,0.0,0.0,0.0,0.0,0.0,0.0,0.0,0.0,0.2342,0.2853,0.0,0.0,0.0,0.0,0.3216,0.2973,0.2919,0.2684,0.2254,0.1734,0.1293,0.0912,0.0389,0.009,-0.0011,-0.0179,-0.0424,-0.0736,-0.1027,-0.133,-0.1626,-0.1748,-0.2053,-0.2507,-0.3011,-0.3548,-0.4118,-0.4976,-0.5388,-0.557,-0.5975,-0.6548,-0.7133,-0.7275,-0.7681,-0.8252,-0.8828,-0.9172,-0.9513,-1.0136,-1.0303,-1.0303,-1.0303,-1.0525,-1.0745,-1.0745,-1.1132,-1.1516,-1.1516,-1.2018,-1.2508,-1.2508,-1.289,-1.3198,-1.3198,-1.3198,-1.3198,-1.3198,-1.3198,-1.3198,-1.3198,-1.3198,-1.3198,-1.3198,-1.3198,-1.3198,-1.3198,-1.3198,-1.3198,-1.3198,-1.3198,-1.3198,-1.3198,-1.3198,-1.3198,-1.3198,-1.3198,-1.3198,-1.3198,-1.3198,-1.3198,-1.3198,-1.3198,-1.3198]}]]